<?xml version="1.0" encoding="UTF-8" standalone="no" ?>
<gpx xmlns="http://www.topografix.com/GPX/1/1" xmlns:xsi="http://www.w3.org/2001/XMLSchema-instance" xsi:schemaLocation="http://www.topografix.com/GPX/1/1 http://www.topografix.com/GPX/1/1/gpx.xsd" version="1.1" creator="VisuGPX - https://www.visugpx.com">
  <metadata>
    <name>Mont Blanc par le TGL</name>
    <desc><![CDATA[Direction le Mont Blanc par le parcours du TGL, et retour par le chemin de la Chapelle]]></desc>
  </metadata>
  <trk>
    <name><![CDATA[larchant TGL demi(1)]]></name>
    <desc><![CDATA[Color:004000ff]]></desc>
    <trkseg>
      <trkpt lat="48.29891" lon="2.59607">
        <ele>74.029999</ele>
        <time>2010-08-28T12:23:36Z</time>
      </trkpt>
      <trkpt lat="48.29891" lon="2.59607">
        <ele>74.029999</ele>
        <time>2010-08-28T12:23:54Z</time>
      </trkpt>
      <trkpt lat="48.29898" lon="2.59606">
        <ele>73.559998</ele>
        <time>2010-08-28T12:23:59Z</time>
      </trkpt>
      <trkpt lat="48.29898" lon="2.59606">
        <ele>73.559998</ele>
        <time>2010-08-28T12:24:04Z</time>
      </trkpt>
      <trkpt lat="48.29898" lon="2.59606">
        <ele>73.559998</ele>
        <time>2010-08-28T12:24:09Z</time>
      </trkpt>
      <trkpt lat="48.2991" lon="2.59592">
        <ele>80.199997</ele>
        <time>2010-08-28T12:24:14Z</time>
      </trkpt>
      <trkpt lat="48.29913" lon="2.5959">
        <ele>79.939995</ele>
        <time>2010-08-28T12:24:19Z</time>
      </trkpt>
      <trkpt lat="48.29913" lon="2.5959">
        <ele>79.939995</ele>
        <time>2010-08-28T12:24:24Z</time>
      </trkpt>
      <trkpt lat="48.29921" lon="2.59579">
        <ele>81.379997</ele>
        <time>2010-08-28T12:24:29Z</time>
      </trkpt>
      <trkpt lat="48.29926" lon="2.59575">
        <ele>81.129997</ele>
        <time>2010-08-28T12:24:34Z</time>
      </trkpt>
      <trkpt lat="48.29929" lon="2.5957">
        <ele>81.889999</ele>
        <time>2010-08-28T12:24:39Z</time>
      </trkpt>
      <trkpt lat="48.2993" lon="2.59568">
        <ele>83.75</ele>
        <time>2010-08-28T12:24:44Z</time>
      </trkpt>
      <trkpt lat="48.2993" lon="2.59568">
        <ele>83.75</ele>
        <time>2010-08-28T12:24:49Z</time>
      </trkpt>
      <trkpt lat="48.29937" lon="2.59553">
        <ele>87.309998</ele>
        <time>2010-08-28T12:24:54Z</time>
      </trkpt>
      <trkpt lat="48.29942" lon="2.59552">
        <ele>87.529999</ele>
        <time>2010-08-28T12:24:59Z</time>
      </trkpt>
      <trkpt lat="48.29943" lon="2.59537">
        <ele>83.509995</ele>
        <time>2010-08-28T12:25:04Z</time>
      </trkpt>
      <trkpt lat="48.29944" lon="2.59527">
        <ele>81.379997</ele>
        <time>2010-08-28T12:25:09Z</time>
      </trkpt>
      <trkpt lat="48.29945" lon="2.59526">
        <ele>79.720001</ele>
        <time>2010-08-28T12:25:14Z</time>
      </trkpt>
      <trkpt lat="48.29949" lon="2.5952">
        <ele>74.360001</ele>
        <time>2010-08-28T12:25:19Z</time>
      </trkpt>
      <trkpt lat="48.29952" lon="2.59512">
        <ele>72.790001</ele>
        <time>2010-08-28T12:25:24Z</time>
      </trkpt>
      <trkpt lat="48.29952" lon="2.59505">
        <ele>71.610001</ele>
        <time>2010-08-28T12:25:29Z</time>
      </trkpt>
      <trkpt lat="48.29949" lon="2.59491">
        <ele>68.040001</ele>
        <time>2010-08-28T12:25:34Z</time>
      </trkpt>
      <trkpt lat="48.29949" lon="2.59491">
        <ele>68.040001</ele>
        <time>2010-08-28T12:25:39Z</time>
      </trkpt>
      <trkpt lat="48.29949" lon="2.59491">
        <ele>68.040001</ele>
        <time>2010-08-28T12:25:44Z</time>
      </trkpt>
      <trkpt lat="48.29944" lon="2.59478">
        <ele>82.699997</ele>
        <time>2010-08-28T12:25:49Z</time>
      </trkpt>
      <trkpt lat="48.29943" lon="2.59472">
        <ele>85.669998</ele>
        <time>2010-08-28T12:25:54Z</time>
      </trkpt>
      <trkpt lat="48.29943" lon="2.59472">
        <ele>85.669998</ele>
        <time>2010-08-28T12:25:59Z</time>
      </trkpt>
      <trkpt lat="48.29943" lon="2.59472">
        <ele>85.669998</ele>
        <time>2010-08-28T12:26:04Z</time>
      </trkpt>
      <trkpt lat="48.29943" lon="2.59472">
        <ele>85.669998</ele>
        <time>2010-08-28T12:26:09Z</time>
      </trkpt>
      <trkpt lat="48.29943" lon="2.59472">
        <ele>85.669998</ele>
        <time>2010-08-28T12:26:14Z</time>
      </trkpt>
      <trkpt lat="48.29943" lon="2.59472">
        <ele>85.669998</ele>
        <time>2010-08-28T12:26:19Z</time>
      </trkpt>
      <trkpt lat="48.29949" lon="2.59451">
        <ele>84.549995</ele>
        <time>2010-08-28T12:26:24Z</time>
      </trkpt>
      <trkpt lat="48.29949" lon="2.59449">
        <ele>84.089996</ele>
        <time>2010-08-28T12:26:28Z</time>
      </trkpt>
      <trkpt lat="48.29949" lon="2.59449">
        <ele>84.089996</ele>
        <time>2010-08-28T12:26:34Z</time>
      </trkpt>
      <trkpt lat="48.29949" lon="2.59449">
        <ele>84.089996</ele>
        <time>2010-08-28T12:26:39Z</time>
      </trkpt>
      <trkpt lat="48.29949" lon="2.59449">
        <ele>84.089996</ele>
        <time>2010-08-28T12:26:44Z</time>
      </trkpt>
      <trkpt lat="48.29949" lon="2.59449">
        <ele>84.089996</ele>
        <time>2010-08-28T12:26:49Z</time>
      </trkpt>
      <trkpt lat="48.29949" lon="2.59449">
        <ele>84.089996</ele>
        <time>2010-08-28T12:26:54Z</time>
      </trkpt>
      <trkpt lat="48.29956" lon="2.59436">
        <ele>84.949997</ele>
        <time>2010-08-28T12:26:59Z</time>
      </trkpt>
      <trkpt lat="48.29956" lon="2.59436">
        <ele>85.939995</ele>
        <time>2010-08-28T12:27:04Z</time>
      </trkpt>
      <trkpt lat="48.29956" lon="2.59436">
        <ele>85.939995</ele>
        <time>2010-08-28T12:27:09Z</time>
      </trkpt>
      <trkpt lat="48.29956" lon="2.59436">
        <ele>85.939995</ele>
        <time>2010-08-28T12:27:14Z</time>
      </trkpt>
      <trkpt lat="48.29956" lon="2.59436">
        <ele>85.939995</ele>
        <time>2010-08-28T12:27:19Z</time>
      </trkpt>
      <trkpt lat="48.29956" lon="2.59436">
        <ele>85.939995</ele>
        <time>2010-08-28T12:27:24Z</time>
      </trkpt>
      <trkpt lat="48.29956" lon="2.59436">
        <ele>85.939995</ele>
        <time>2010-08-28T12:27:29Z</time>
      </trkpt>
      <trkpt lat="48.29956" lon="2.59436">
        <ele>85.939995</ele>
        <time>2010-08-28T12:27:34Z</time>
      </trkpt>
      <trkpt lat="48.29956" lon="2.59436">
        <ele>85.939995</ele>
        <time>2010-08-28T12:27:39Z</time>
      </trkpt>
      <trkpt lat="48.29956" lon="2.59436">
        <ele>85.939995</ele>
        <time>2010-08-28T12:27:44Z</time>
      </trkpt>
      <trkpt lat="48.29956" lon="2.59436">
        <ele>85.939995</ele>
        <time>2010-08-28T12:27:49Z</time>
      </trkpt>
      <trkpt lat="48.29956" lon="2.59436">
        <ele>85.939995</ele>
        <time>2010-08-28T12:27:54Z</time>
      </trkpt>
      <trkpt lat="48.29956" lon="2.59436">
        <ele>85.939995</ele>
        <time>2010-08-28T12:27:59Z</time>
      </trkpt>
      <trkpt lat="48.29956" lon="2.59436">
        <ele>85.939995</ele>
        <time>2010-08-28T12:28:04Z</time>
      </trkpt>
      <trkpt lat="48.29956" lon="2.59436">
        <ele>85.939995</ele>
        <time>2010-08-28T12:28:09Z</time>
      </trkpt>
      <trkpt lat="48.29956" lon="2.59436">
        <ele>85.939995</ele>
        <time>2010-08-28T12:28:14Z</time>
      </trkpt>
      <trkpt lat="48.29956" lon="2.59436">
        <ele>85.939995</ele>
        <time>2010-08-28T12:28:19Z</time>
      </trkpt>
      <trkpt lat="48.29984" lon="2.59437">
        <ele>80.459999</ele>
        <time>2010-08-28T12:28:24Z</time>
      </trkpt>
      <trkpt lat="48.29985" lon="2.59435">
        <ele>80.159996</ele>
        <time>2010-08-28T12:28:29Z</time>
      </trkpt>
      <trkpt lat="48.29985" lon="2.59435">
        <ele>80.159996</ele>
        <time>2010-08-28T12:28:34Z</time>
      </trkpt>
      <trkpt lat="48.29985" lon="2.59435">
        <ele>80.159996</ele>
        <time>2010-08-28T12:28:39Z</time>
      </trkpt>
      <trkpt lat="48.29985" lon="2.59435">
        <ele>80.159996</ele>
        <time>2010-08-28T12:28:44Z</time>
      </trkpt>
      <trkpt lat="48.29985" lon="2.59435">
        <ele>80.159996</ele>
        <time>2010-08-28T12:28:49Z</time>
      </trkpt>
      <trkpt lat="48.29985" lon="2.59435">
        <ele>80.159996</ele>
        <time>2010-08-28T12:28:54Z</time>
      </trkpt>
      <trkpt lat="48.29985" lon="2.59435">
        <ele>80.159996</ele>
        <time>2010-08-28T12:28:59Z</time>
      </trkpt>
      <trkpt lat="48.29985" lon="2.59435">
        <ele>80.159996</ele>
        <time>2010-08-28T12:29:04Z</time>
      </trkpt>
      <trkpt lat="48.29985" lon="2.59435">
        <ele>80.159996</ele>
        <time>2010-08-28T12:29:09Z</time>
      </trkpt>
      <trkpt lat="48.29985" lon="2.59435">
        <ele>80.159996</ele>
        <time>2010-08-28T12:29:14Z</time>
      </trkpt>
      <trkpt lat="48.29985" lon="2.59435">
        <ele>80.159996</ele>
        <time>2010-08-28T12:29:19Z</time>
      </trkpt>
      <trkpt lat="48.30004" lon="2.59406">
        <ele>85.439995</ele>
        <time>2010-08-28T12:29:24Z</time>
      </trkpt>
      <trkpt lat="48.30005" lon="2.59403">
        <ele>84.869995</ele>
        <time>2010-08-28T12:29:29Z</time>
      </trkpt>
      <trkpt lat="48.30005" lon="2.59404">
        <ele>86.5</ele>
        <time>2010-08-28T12:29:34Z</time>
      </trkpt>
      <trkpt lat="48.30005" lon="2.59404">
        <ele>86.5</ele>
        <time>2010-08-28T12:29:39Z</time>
      </trkpt>
      <trkpt lat="48.30005" lon="2.59404">
        <ele>86.5</ele>
        <time>2010-08-28T12:29:44Z</time>
      </trkpt>
      <trkpt lat="48.30005" lon="2.59404">
        <ele>86.5</ele>
        <time>2010-08-28T12:29:49Z</time>
      </trkpt>
      <trkpt lat="48.3001" lon="2.59404">
        <ele>92.919998</ele>
        <time>2010-08-28T12:29:54Z</time>
      </trkpt>
      <trkpt lat="48.3001" lon="2.59404">
        <ele>92.93</ele>
        <time>2010-08-28T12:29:59Z</time>
      </trkpt>
      <trkpt lat="48.3001" lon="2.59404">
        <ele>92.93</ele>
        <time>2010-08-28T12:30:04Z</time>
      </trkpt>
      <trkpt lat="48.3001" lon="2.59404">
        <ele>92.93</ele>
        <time>2010-08-28T12:30:09Z</time>
      </trkpt>
      <trkpt lat="48.3001" lon="2.59404">
        <ele>92.93</ele>
        <time>2010-08-28T12:30:14Z</time>
      </trkpt>
      <trkpt lat="48.3001" lon="2.59404">
        <ele>92.93</ele>
        <time>2010-08-28T12:30:19Z</time>
      </trkpt>
      <trkpt lat="48.3001" lon="2.59404">
        <ele>92.93</ele>
        <time>2010-08-28T12:30:24Z</time>
      </trkpt>
      <trkpt lat="48.3001" lon="2.59404">
        <ele>92.93</ele>
        <time>2010-08-28T12:30:29Z</time>
      </trkpt>
      <trkpt lat="48.3001" lon="2.59404">
        <ele>92.93</ele>
        <time>2010-08-28T12:30:34Z</time>
      </trkpt>
      <trkpt lat="48.3001" lon="2.59404">
        <ele>92.93</ele>
        <time>2010-08-28T12:30:39Z</time>
      </trkpt>
      <trkpt lat="48.3001" lon="2.59404">
        <ele>92.93</ele>
        <time>2010-08-28T12:30:44Z</time>
      </trkpt>
      <trkpt lat="48.3001" lon="2.59404">
        <ele>92.93</ele>
        <time>2010-08-28T12:30:49Z</time>
      </trkpt>
      <trkpt lat="48.3001" lon="2.59361">
        <ele>88.949997</ele>
        <time>2010-08-28T12:30:54Z</time>
      </trkpt>
      <trkpt lat="48.3001" lon="2.5936">
        <ele>88.869995</ele>
        <time>2010-08-28T12:30:59Z</time>
      </trkpt>
      <trkpt lat="48.3001" lon="2.5936">
        <ele>88.869995</ele>
        <time>2010-08-28T12:31:04Z</time>
      </trkpt>
      <trkpt lat="48.3001" lon="2.5936">
        <ele>88.869995</ele>
        <time>2010-08-28T12:31:09Z</time>
      </trkpt>
      <trkpt lat="48.29989" lon="2.59353">
        <ele>112.769997</ele>
        <time>2010-08-28T12:31:14Z</time>
      </trkpt>
      <trkpt lat="48.29986" lon="2.59346">
        <ele>111.579994</ele>
        <time>2010-08-28T12:31:19Z</time>
      </trkpt>
      <trkpt lat="48.29983" lon="2.59347">
        <ele>112.939995</ele>
        <time>2010-08-28T12:31:24Z</time>
      </trkpt>
      <trkpt lat="48.29978" lon="2.5935">
        <ele>114.699997</ele>
        <time>2010-08-28T12:31:29Z</time>
      </trkpt>
      <trkpt lat="48.29982" lon="2.59346">
        <ele>101.879997</ele>
        <time>2010-08-28T12:31:34Z</time>
      </trkpt>
      <trkpt lat="48.29982" lon="2.59346">
        <ele>101.879997</ele>
        <time>2010-08-28T12:31:39Z</time>
      </trkpt>
      <trkpt lat="48.29982" lon="2.59346">
        <ele>101.879997</ele>
        <time>2010-08-28T12:31:44Z</time>
      </trkpt>
      <trkpt lat="48.29976" lon="2.59335">
        <ele>93.82</ele>
        <time>2010-08-28T12:31:49Z</time>
      </trkpt>
      <trkpt lat="48.2997" lon="2.59332">
        <ele>93.959999</ele>
        <time>2010-08-28T12:31:54Z</time>
      </trkpt>
      <trkpt lat="48.2997" lon="2.59332">
        <ele>93.959999</ele>
        <time>2010-08-28T12:31:59Z</time>
      </trkpt>
      <trkpt lat="48.2997" lon="2.59332">
        <ele>93.959999</ele>
        <time>2010-08-28T12:32:04Z</time>
      </trkpt>
      <trkpt lat="48.2995" lon="2.59324">
        <ele>104.479996</ele>
        <time>2010-08-28T12:32:09Z</time>
      </trkpt>
      <trkpt lat="48.29945" lon="2.5932">
        <ele>105.07</ele>
        <time>2010-08-28T12:32:14Z</time>
      </trkpt>
      <trkpt lat="48.29945" lon="2.5932">
        <ele>105.07</ele>
        <time>2010-08-28T12:32:19Z</time>
      </trkpt>
      <trkpt lat="48.29934" lon="2.59321">
        <ele>106.529999</ele>
        <time>2010-08-28T12:32:24Z</time>
      </trkpt>
      <trkpt lat="48.29931" lon="2.59314">
        <ele>106.449997</ele>
        <time>2010-08-28T12:32:29Z</time>
      </trkpt>
      <trkpt lat="48.29938" lon="2.59302">
        <ele>92.339996</ele>
        <time>2010-08-28T12:32:34Z</time>
      </trkpt>
      <trkpt lat="48.29939" lon="2.59301">
        <ele>93.839996</ele>
        <time>2010-08-28T12:32:39Z</time>
      </trkpt>
      <trkpt lat="48.29939" lon="2.59301">
        <ele>93.839996</ele>
        <time>2010-08-28T12:32:44Z</time>
      </trkpt>
      <trkpt lat="48.29939" lon="2.59301">
        <ele>93.839996</ele>
        <time>2010-08-28T12:32:49Z</time>
      </trkpt>
      <trkpt lat="48.29939" lon="2.59301">
        <ele>93.839996</ele>
        <time>2010-08-28T12:32:54Z</time>
      </trkpt>
      <trkpt lat="48.29939" lon="2.59301">
        <ele>93.839996</ele>
        <time>2010-08-28T12:32:59Z</time>
      </trkpt>
      <trkpt lat="48.29939" lon="2.59301">
        <ele>93.839996</ele>
        <time>2010-08-28T12:33:04Z</time>
      </trkpt>
      <trkpt lat="48.29939" lon="2.59301">
        <ele>93.839996</ele>
        <time>2010-08-28T12:33:09Z</time>
      </trkpt>
      <trkpt lat="48.29939" lon="2.59301">
        <ele>93.839996</ele>
        <time>2010-08-28T12:33:14Z</time>
      </trkpt>
      <trkpt lat="48.29932" lon="2.59278">
        <ele>79.309998</ele>
        <time>2010-08-28T12:33:19Z</time>
      </trkpt>
      <trkpt lat="48.29932" lon="2.59278">
        <ele>79.309998</ele>
        <time>2010-08-28T12:33:24Z</time>
      </trkpt>
      <trkpt lat="48.29932" lon="2.59278">
        <ele>79.309998</ele>
        <time>2010-08-28T12:33:29Z</time>
      </trkpt>
      <trkpt lat="48.29917" lon="2.59271">
        <ele>84.559998</ele>
        <time>2010-08-28T12:33:34Z</time>
      </trkpt>
      <trkpt lat="48.29911" lon="2.59266">
        <ele>85.5</ele>
        <time>2010-08-28T12:33:39Z</time>
      </trkpt>
      <trkpt lat="48.29908" lon="2.59265">
        <ele>87.229996</ele>
        <time>2010-08-28T12:33:44Z</time>
      </trkpt>
      <trkpt lat="48.29908" lon="2.59265">
        <ele>87.229996</ele>
        <time>2010-08-28T12:33:49Z</time>
      </trkpt>
      <trkpt lat="48.29908" lon="2.59265">
        <ele>87.229996</ele>
        <time>2010-08-28T12:33:54Z</time>
      </trkpt>
      <trkpt lat="48.29908" lon="2.59265">
        <ele>87.229996</ele>
        <time>2010-08-28T12:33:59Z</time>
      </trkpt>
      <trkpt lat="48.29908" lon="2.59265">
        <ele>87.229996</ele>
        <time>2010-08-28T12:34:04Z</time>
      </trkpt>
      <trkpt lat="48.29885" lon="2.59242">
        <ele>94.599998</ele>
        <time>2010-08-28T12:34:09Z</time>
      </trkpt>
      <trkpt lat="48.29885" lon="2.59242">
        <ele>94.599998</ele>
        <time>2010-08-28T12:34:14Z</time>
      </trkpt>
      <trkpt lat="48.29885" lon="2.59242">
        <ele>94.599998</ele>
        <time>2010-08-28T12:34:19Z</time>
      </trkpt>
      <trkpt lat="48.29885" lon="2.59242">
        <ele>94.599998</ele>
        <time>2010-08-28T12:34:24Z</time>
      </trkpt>
      <trkpt lat="48.29881" lon="2.59211">
        <ele>83.449997</ele>
        <time>2010-08-28T12:34:29Z</time>
      </trkpt>
      <trkpt lat="48.29879" lon="2.59203">
        <ele>84.209999</ele>
        <time>2010-08-28T12:34:34Z</time>
      </trkpt>
      <trkpt lat="48.2988" lon="2.59193">
        <ele>80.110001</ele>
        <time>2010-08-28T12:34:39Z</time>
      </trkpt>
      <trkpt lat="48.2988" lon="2.59193">
        <ele>80.110001</ele>
        <time>2010-08-28T12:34:44Z</time>
      </trkpt>
      <trkpt lat="48.29871" lon="2.59184">
        <ele>85.110001</ele>
        <time>2010-08-28T12:34:49Z</time>
      </trkpt>
      <trkpt lat="48.2987" lon="2.5918">
        <ele>84.5</ele>
        <time>2010-08-28T12:34:54Z</time>
      </trkpt>
      <trkpt lat="48.29868" lon="2.59171">
        <ele>83.129997</ele>
        <time>2010-08-28T12:34:59Z</time>
      </trkpt>
      <trkpt lat="48.29868" lon="2.59159">
        <ele>81.959999</ele>
        <time>2010-08-28T12:35:04Z</time>
      </trkpt>
      <trkpt lat="48.29863" lon="2.59152">
        <ele>82.360001</ele>
        <time>2010-08-28T12:35:09Z</time>
      </trkpt>
      <trkpt lat="48.29862" lon="2.59153">
        <ele>82.909996</ele>
        <time>2010-08-28T12:35:14Z</time>
      </trkpt>
      <trkpt lat="48.29852" lon="2.59147">
        <ele>78.659996</ele>
        <time>2010-08-28T12:35:19Z</time>
      </trkpt>
      <trkpt lat="48.29844" lon="2.59165">
        <ele>98.529999</ele>
        <time>2010-08-28T12:35:24Z</time>
      </trkpt>
      <trkpt lat="48.29844" lon="2.59167">
        <ele>96.360001</ele>
        <time>2010-08-28T12:35:29Z</time>
      </trkpt>
      <trkpt lat="48.29844" lon="2.59167">
        <ele>96.360001</ele>
        <time>2010-08-28T12:35:34Z</time>
      </trkpt>
      <trkpt lat="48.29844" lon="2.59167">
        <ele>96.360001</ele>
        <time>2010-08-28T12:35:39Z</time>
      </trkpt>
      <trkpt lat="48.29844" lon="2.59167">
        <ele>96.360001</ele>
        <time>2010-08-28T12:35:44Z</time>
      </trkpt>
      <trkpt lat="48.29871" lon="2.59147">
        <ele>29.599998</ele>
        <time>2010-08-28T12:35:49Z</time>
      </trkpt>
      <trkpt lat="48.29874" lon="2.59148">
        <ele>17.539999</ele>
        <time>2010-08-28T12:35:54Z</time>
      </trkpt>
      <trkpt lat="48.29871" lon="2.59147">
        <ele>18.65</ele>
        <time>2010-08-28T12:35:59Z</time>
      </trkpt>
      <trkpt lat="48.29871" lon="2.59147">
        <ele>18.65</ele>
        <time>2010-08-28T12:36:04Z</time>
      </trkpt>
      <trkpt lat="48.29871" lon="2.59147">
        <ele>18.65</ele>
        <time>2010-08-28T12:36:09Z</time>
      </trkpt>
      <trkpt lat="48.29871" lon="2.59147">
        <ele>18.65</ele>
        <time>2010-08-28T12:36:14Z</time>
      </trkpt>
      <trkpt lat="48.29871" lon="2.59147">
        <ele>18.65</ele>
        <time>2010-08-28T12:36:19Z</time>
      </trkpt>
      <trkpt lat="48.29871" lon="2.59147">
        <ele>18.65</ele>
        <time>2010-08-28T12:36:24Z</time>
      </trkpt>
      <trkpt lat="48.29871" lon="2.59147">
        <ele>18.65</ele>
        <time>2010-08-28T12:36:29Z</time>
      </trkpt>
      <trkpt lat="48.29871" lon="2.59147">
        <ele>18.65</ele>
        <time>2010-08-28T12:36:34Z</time>
      </trkpt>
      <trkpt lat="48.29871" lon="2.59147">
        <ele>18.65</ele>
        <time>2010-08-28T12:36:39Z</time>
      </trkpt>
      <trkpt lat="48.29871" lon="2.59147">
        <ele>18.65</ele>
        <time>2010-08-28T12:36:44Z</time>
      </trkpt>
      <trkpt lat="48.29871" lon="2.59147">
        <ele>18.65</ele>
        <time>2010-08-28T12:36:49Z</time>
      </trkpt>
      <trkpt lat="48.29871" lon="2.59147">
        <ele>18.65</ele>
        <time>2010-08-28T12:36:54Z</time>
      </trkpt>
      <trkpt lat="48.29871" lon="2.59147">
        <ele>18.65</ele>
        <time>2010-08-28T12:36:59Z</time>
      </trkpt>
      <trkpt lat="48.29871" lon="2.59147">
        <ele>18.65</ele>
        <time>2010-08-28T12:37:04Z</time>
      </trkpt>
      <trkpt lat="48.29797" lon="2.59179">
        <ele>85.150002</ele>
        <time>2010-08-28T12:37:09Z</time>
      </trkpt>
      <trkpt lat="48.29791" lon="2.59183">
        <ele>87.519997</ele>
        <time>2010-08-28T12:37:14Z</time>
      </trkpt>
      <trkpt lat="48.29785" lon="2.59187">
        <ele>90.900002</ele>
        <time>2010-08-28T12:37:19Z</time>
      </trkpt>
      <trkpt lat="48.29784" lon="2.59188">
        <ele>91.269997</ele>
        <time>2010-08-28T12:37:24Z</time>
      </trkpt>
      <trkpt lat="48.29768" lon="2.59181">
        <ele>71.519997</ele>
        <time>2010-08-28T12:37:29Z</time>
      </trkpt>
      <trkpt lat="48.29766" lon="2.59182">
        <ele>72.43</ele>
        <time>2010-08-28T12:37:34Z</time>
      </trkpt>
      <trkpt lat="48.29766" lon="2.59182">
        <ele>72.43</ele>
        <time>2010-08-28T12:37:39Z</time>
      </trkpt>
      <trkpt lat="48.29766" lon="2.59182">
        <ele>72.43</ele>
        <time>2010-08-28T12:37:44Z</time>
      </trkpt>
      <trkpt lat="48.29766" lon="2.59182">
        <ele>72.43</ele>
        <time>2010-08-28T12:37:49Z</time>
      </trkpt>
      <trkpt lat="48.29753" lon="2.59197">
        <ele>74.610001</ele>
        <time>2010-08-28T12:37:54Z</time>
      </trkpt>
      <trkpt lat="48.29753" lon="2.59198">
        <ele>73.650002</ele>
        <time>2010-08-28T12:37:59Z</time>
      </trkpt>
      <trkpt lat="48.29748" lon="2.59206">
        <ele>74.979996</ele>
        <time>2010-08-28T12:38:04Z</time>
      </trkpt>
      <trkpt lat="48.29747" lon="2.59207">
        <ele>75.209999</ele>
        <time>2010-08-28T12:38:09Z</time>
      </trkpt>
      <trkpt lat="48.29747" lon="2.59207">
        <ele>75.209999</ele>
        <time>2010-08-28T12:38:13Z</time>
      </trkpt>
      <trkpt lat="48.29747" lon="2.59207">
        <ele>75.209999</ele>
        <time>2010-08-28T12:38:18Z</time>
      </trkpt>
      <trkpt lat="48.29747" lon="2.59207">
        <ele>75.209999</ele>
        <time>2010-08-28T12:38:23Z</time>
      </trkpt>
      <trkpt lat="48.29747" lon="2.59207">
        <ele>75.209999</ele>
        <time>2010-08-28T12:38:28Z</time>
      </trkpt>
      <trkpt lat="48.29747" lon="2.59207">
        <ele>75.209999</ele>
        <time>2010-08-28T12:38:33Z</time>
      </trkpt>
      <trkpt lat="48.29747" lon="2.59207">
        <ele>75.209999</ele>
        <time>2010-08-28T12:38:38Z</time>
      </trkpt>
      <trkpt lat="48.29747" lon="2.59207">
        <ele>75.209999</ele>
        <time>2010-08-28T12:38:43Z</time>
      </trkpt>
      <trkpt lat="48.29747" lon="2.59207">
        <ele>75.209999</ele>
        <time>2010-08-28T12:38:48Z</time>
      </trkpt>
      <trkpt lat="48.29747" lon="2.59207">
        <ele>75.209999</ele>
        <time>2010-08-28T12:38:53Z</time>
      </trkpt>
      <trkpt lat="48.29747" lon="2.59207">
        <ele>75.209999</ele>
        <time>2010-08-28T12:38:58Z</time>
      </trkpt>
      <trkpt lat="48.29739" lon="2.59203">
        <ele>71.470001</ele>
        <time>2010-08-28T12:39:03Z</time>
      </trkpt>
      <trkpt lat="48.29734" lon="2.59205">
        <ele>68.559998</ele>
        <time>2010-08-28T12:39:08Z</time>
      </trkpt>
      <trkpt lat="48.29727" lon="2.59208">
        <ele>63.599998</ele>
        <time>2010-08-28T12:39:13Z</time>
      </trkpt>
      <trkpt lat="48.29713" lon="2.59216">
        <ele>61.649998</ele>
        <time>2010-08-28T12:39:18Z</time>
      </trkpt>
      <trkpt lat="48.29706" lon="2.59217">
        <ele>56.27</ele>
        <time>2010-08-28T12:39:23Z</time>
      </trkpt>
      <trkpt lat="48.29704" lon="2.59217">
        <ele>54.549999</ele>
        <time>2010-08-28T12:39:28Z</time>
      </trkpt>
      <trkpt lat="48.29704" lon="2.59217">
        <ele>54.549999</ele>
        <time>2010-08-28T12:39:33Z</time>
      </trkpt>
      <trkpt lat="48.29704" lon="2.59217">
        <ele>54.549999</ele>
        <time>2010-08-28T12:39:38Z</time>
      </trkpt>
      <trkpt lat="48.29704" lon="2.59217">
        <ele>54.549999</ele>
        <time>2010-08-28T12:39:43Z</time>
      </trkpt>
      <trkpt lat="48.29704" lon="2.59217">
        <ele>54.549999</ele>
        <time>2010-08-28T12:39:48Z</time>
      </trkpt>
      <trkpt lat="48.29704" lon="2.59217">
        <ele>54.549999</ele>
        <time>2010-08-28T12:39:53Z</time>
      </trkpt>
      <trkpt lat="48.2968" lon="2.59229">
        <ele>77.779999</ele>
        <time>2010-08-28T12:39:58Z</time>
      </trkpt>
      <trkpt lat="48.29678" lon="2.5923">
        <ele>76.669998</ele>
        <time>2010-08-28T12:40:03Z</time>
      </trkpt>
      <trkpt lat="48.29673" lon="2.59235">
        <ele>74.809998</ele>
        <time>2010-08-28T12:40:08Z</time>
      </trkpt>
      <trkpt lat="48.29673" lon="2.59235">
        <ele>74.809998</ele>
        <time>2010-08-28T12:40:13Z</time>
      </trkpt>
      <trkpt lat="48.29673" lon="2.59235">
        <ele>74.809998</ele>
        <time>2010-08-28T12:40:18Z</time>
      </trkpt>
      <trkpt lat="48.29673" lon="2.59235">
        <ele>74.809998</ele>
        <time>2010-08-28T12:40:23Z</time>
      </trkpt>
      <trkpt lat="48.29671" lon="2.59238">
        <ele>64.18</ele>
        <time>2010-08-28T12:40:28Z</time>
      </trkpt>
      <trkpt lat="48.29668" lon="2.59242">
        <ele>61.73</ele>
        <time>2010-08-28T12:40:33Z</time>
      </trkpt>
      <trkpt lat="48.29662" lon="2.59248">
        <ele>60.329998</ele>
        <time>2010-08-28T12:40:38Z</time>
      </trkpt>
      <trkpt lat="48.29661" lon="2.59249">
        <ele>59.619999</ele>
        <time>2010-08-28T12:40:43Z</time>
      </trkpt>
      <trkpt lat="48.29661" lon="2.59249">
        <ele>59.619999</ele>
        <time>2010-08-28T12:40:48Z</time>
      </trkpt>
      <trkpt lat="48.29661" lon="2.59249">
        <ele>59.619999</ele>
        <time>2010-08-28T12:40:53Z</time>
      </trkpt>
      <trkpt lat="48.29645" lon="2.59263">
        <ele>53.16</ele>
        <time>2010-08-28T12:40:58Z</time>
      </trkpt>
      <trkpt lat="48.29644" lon="2.59264">
        <ele>52.84</ele>
        <time>2010-08-28T12:41:03Z</time>
      </trkpt>
      <trkpt lat="48.29636" lon="2.59273">
        <ele>52.379997</ele>
        <time>2010-08-28T12:41:08Z</time>
      </trkpt>
      <trkpt lat="48.29631" lon="2.59279">
        <ele>54.669998</ele>
        <time>2010-08-28T12:41:13Z</time>
      </trkpt>
      <trkpt lat="48.29631" lon="2.59279">
        <ele>54.549999</ele>
        <time>2010-08-28T12:41:18Z</time>
      </trkpt>
      <trkpt lat="48.29631" lon="2.59279">
        <ele>54.549999</ele>
        <time>2010-08-28T12:41:23Z</time>
      </trkpt>
      <trkpt lat="48.2963" lon="2.59291">
        <ele>52.98</ele>
        <time>2010-08-28T12:41:28Z</time>
      </trkpt>
      <trkpt lat="48.2963" lon="2.59291">
        <ele>52.98</ele>
        <time>2010-08-28T12:41:33Z</time>
      </trkpt>
      <trkpt lat="48.2963" lon="2.59291">
        <ele>52.98</ele>
        <time>2010-08-28T12:41:38Z</time>
      </trkpt>
      <trkpt lat="48.2963" lon="2.59291">
        <ele>52.98</ele>
        <time>2010-08-28T12:41:43Z</time>
      </trkpt>
      <trkpt lat="48.2963" lon="2.59291">
        <ele>52.98</ele>
        <time>2010-08-28T12:41:48Z</time>
      </trkpt>
      <trkpt lat="48.2963" lon="2.59291">
        <ele>52.98</ele>
        <time>2010-08-28T12:41:53Z</time>
      </trkpt>
      <trkpt lat="48.29601" lon="2.59292">
        <ele>76.82</ele>
        <time>2010-08-28T12:41:58Z</time>
      </trkpt>
      <trkpt lat="48.29598" lon="2.59294">
        <ele>77.959999</ele>
        <time>2010-08-28T12:42:03Z</time>
      </trkpt>
      <trkpt lat="48.29598" lon="2.59294">
        <ele>77.959999</ele>
        <time>2010-08-28T12:42:08Z</time>
      </trkpt>
      <trkpt lat="48.29598" lon="2.59294">
        <ele>77.959999</ele>
        <time>2010-08-28T12:42:13Z</time>
      </trkpt>
      <trkpt lat="48.29598" lon="2.59298">
        <ele>73.970001</ele>
        <time>2010-08-28T12:42:18Z</time>
      </trkpt>
      <trkpt lat="48.29588" lon="2.59301">
        <ele>74.879997</ele>
        <time>2010-08-28T12:42:23Z</time>
      </trkpt>
      <trkpt lat="48.29587" lon="2.59299">
        <ele>74.389999</ele>
        <time>2010-08-28T12:42:28Z</time>
      </trkpt>
      <trkpt lat="48.29584" lon="2.59298">
        <ele>74.409996</ele>
        <time>2010-08-28T12:42:33Z</time>
      </trkpt>
      <trkpt lat="48.2958" lon="2.59302">
        <ele>74.779999</ele>
        <time>2010-08-28T12:42:38Z</time>
      </trkpt>
      <trkpt lat="48.2958" lon="2.59302">
        <ele>74.299995</ele>
        <time>2010-08-28T12:42:43Z</time>
      </trkpt>
      <trkpt lat="48.2958" lon="2.59302">
        <ele>74.299995</ele>
        <time>2010-08-28T12:42:47Z</time>
      </trkpt>
      <trkpt lat="48.2958" lon="2.59302">
        <ele>74.299995</ele>
        <time>2010-08-28T12:42:53Z</time>
      </trkpt>
      <trkpt lat="48.2958" lon="2.59302">
        <ele>74.299995</ele>
        <time>2010-08-28T12:42:58Z</time>
      </trkpt>
      <trkpt lat="48.2958" lon="2.59302">
        <ele>74.299995</ele>
        <time>2010-08-28T12:43:03Z</time>
      </trkpt>
      <trkpt lat="48.2958" lon="2.59302">
        <ele>74.299995</ele>
        <time>2010-08-28T12:43:08Z</time>
      </trkpt>
      <trkpt lat="48.2958" lon="2.59302">
        <ele>74.299995</ele>
        <time>2010-08-28T12:43:13Z</time>
      </trkpt>
      <trkpt lat="48.2958" lon="2.59302">
        <ele>74.299995</ele>
        <time>2010-08-28T12:43:18Z</time>
      </trkpt>
      <trkpt lat="48.2958" lon="2.59302">
        <ele>74.299995</ele>
        <time>2010-08-28T12:43:23Z</time>
      </trkpt>
      <trkpt lat="48.29558" lon="2.5931">
        <ele>80.040001</ele>
        <time>2010-08-28T12:43:28Z</time>
      </trkpt>
      <trkpt lat="48.29556" lon="2.5931">
        <ele>81.159996</ele>
        <time>2010-08-28T12:43:33Z</time>
      </trkpt>
      <trkpt lat="48.29556" lon="2.5931">
        <ele>81.159996</ele>
        <time>2010-08-28T12:43:38Z</time>
      </trkpt>
      <trkpt lat="48.29556" lon="2.5931">
        <ele>81.159996</ele>
        <time>2010-08-28T12:43:43Z</time>
      </trkpt>
      <trkpt lat="48.29556" lon="2.5931">
        <ele>81.159996</ele>
        <time>2010-08-28T12:43:48Z</time>
      </trkpt>
      <trkpt lat="48.29556" lon="2.5931">
        <ele>81.159996</ele>
        <time>2010-08-28T12:43:53Z</time>
      </trkpt>
      <trkpt lat="48.29556" lon="2.5931">
        <ele>81.159996</ele>
        <time>2010-08-28T12:43:58Z</time>
      </trkpt>
      <trkpt lat="48.29556" lon="2.5931">
        <ele>81.159996</ele>
        <time>2010-08-28T12:44:03Z</time>
      </trkpt>
      <trkpt lat="48.29556" lon="2.5931">
        <ele>81.159996</ele>
        <time>2010-08-28T12:44:08Z</time>
      </trkpt>
      <trkpt lat="48.29556" lon="2.5931">
        <ele>81.159996</ele>
        <time>2010-08-28T12:44:13Z</time>
      </trkpt>
      <trkpt lat="48.29556" lon="2.5931">
        <ele>81.159996</ele>
        <time>2010-08-28T12:44:18Z</time>
      </trkpt>
      <trkpt lat="48.29556" lon="2.5931">
        <ele>81.159996</ele>
        <time>2010-08-28T12:44:23Z</time>
      </trkpt>
      <trkpt lat="48.29556" lon="2.5931">
        <ele>81.159996</ele>
        <time>2010-08-28T12:44:28Z</time>
      </trkpt>
      <trkpt lat="48.29556" lon="2.5931">
        <ele>81.159996</ele>
        <time>2010-08-28T12:44:33Z</time>
      </trkpt>
      <trkpt lat="48.29556" lon="2.5931">
        <ele>81.159996</ele>
        <time>2010-08-28T12:44:38Z</time>
      </trkpt>
      <trkpt lat="48.29556" lon="2.5931">
        <ele>81.159996</ele>
        <time>2010-08-28T12:44:43Z</time>
      </trkpt>
      <trkpt lat="48.29556" lon="2.5931">
        <ele>81.159996</ele>
        <time>2010-08-28T12:44:48Z</time>
      </trkpt>
      <trkpt lat="48.29556" lon="2.5931">
        <ele>81.159996</ele>
        <time>2010-08-28T12:44:53Z</time>
      </trkpt>
      <trkpt lat="48.29556" lon="2.5931">
        <ele>81.159996</ele>
        <time>2010-08-28T12:44:58Z</time>
      </trkpt>
      <trkpt lat="48.29556" lon="2.5931">
        <ele>81.159996</ele>
        <time>2010-08-28T12:45:03Z</time>
      </trkpt>
      <trkpt lat="48.29556" lon="2.5931">
        <ele>81.159996</ele>
        <time>2010-08-28T12:45:08Z</time>
      </trkpt>
      <trkpt lat="48.29556" lon="2.5931">
        <ele>81.159996</ele>
        <time>2010-08-28T12:45:13Z</time>
      </trkpt>
      <trkpt lat="48.29556" lon="2.5931">
        <ele>81.159996</ele>
        <time>2010-08-28T12:45:18Z</time>
      </trkpt>
      <trkpt lat="48.29556" lon="2.5931">
        <ele>81.159996</ele>
        <time>2010-08-28T12:45:23Z</time>
      </trkpt>
      <trkpt lat="48.29556" lon="2.5931">
        <ele>81.159996</ele>
        <time>2010-08-28T12:45:28Z</time>
      </trkpt>
      <trkpt lat="48.29556" lon="2.5931">
        <ele>81.159996</ele>
        <time>2010-08-28T12:45:33Z</time>
      </trkpt>
      <trkpt lat="48.29556" lon="2.5931">
        <ele>81.159996</ele>
        <time>2010-08-28T12:45:38Z</time>
      </trkpt>
      <trkpt lat="48.29556" lon="2.5931">
        <ele>81.159996</ele>
        <time>2010-08-28T12:45:43Z</time>
      </trkpt>
      <trkpt lat="48.29556" lon="2.5931">
        <ele>81.159996</ele>
        <time>2010-08-28T12:45:48Z</time>
      </trkpt>
      <trkpt lat="48.29556" lon="2.5931">
        <ele>81.159996</ele>
        <time>2010-08-28T12:45:53Z</time>
      </trkpt>
      <trkpt lat="48.29556" lon="2.5931">
        <ele>81.159996</ele>
        <time>2010-08-28T12:45:58Z</time>
      </trkpt>
      <trkpt lat="48.29556" lon="2.5931">
        <ele>81.159996</ele>
        <time>2010-08-28T12:46:03Z</time>
      </trkpt>
      <trkpt lat="48.29556" lon="2.5931">
        <ele>81.159996</ele>
        <time>2010-08-28T12:46:08Z</time>
      </trkpt>
      <trkpt lat="48.29556" lon="2.5931">
        <ele>81.159996</ele>
        <time>2010-08-28T12:46:13Z</time>
      </trkpt>
      <trkpt lat="48.29556" lon="2.5931">
        <ele>81.159996</ele>
        <time>2010-08-28T12:46:18Z</time>
      </trkpt>
      <trkpt lat="48.29556" lon="2.5931">
        <ele>81.159996</ele>
        <time>2010-08-28T12:46:23Z</time>
      </trkpt>
      <trkpt lat="48.29556" lon="2.5931">
        <ele>81.159996</ele>
        <time>2010-08-28T12:46:28Z</time>
      </trkpt>
      <trkpt lat="48.29556" lon="2.5931">
        <ele>81.159996</ele>
        <time>2010-08-28T12:46:33Z</time>
      </trkpt>
      <trkpt lat="48.29556" lon="2.5931">
        <ele>81.159996</ele>
        <time>2010-08-28T12:46:38Z</time>
      </trkpt>
      <trkpt lat="48.29556" lon="2.5931">
        <ele>81.159996</ele>
        <time>2010-08-28T12:46:43Z</time>
      </trkpt>
      <trkpt lat="48.29556" lon="2.5931">
        <ele>81.159996</ele>
        <time>2010-08-28T12:46:48Z</time>
      </trkpt>
      <trkpt lat="48.29556" lon="2.5931">
        <ele>81.159996</ele>
        <time>2010-08-28T12:46:52Z</time>
      </trkpt>
      <trkpt lat="48.29516" lon="2.5935">
        <ele>69.729996</ele>
        <time>2010-08-28T12:46:57Z</time>
      </trkpt>
      <trkpt lat="48.29516" lon="2.59351">
        <ele>69.699997</ele>
        <time>2010-08-28T12:47:02Z</time>
      </trkpt>
      <trkpt lat="48.29516" lon="2.59351">
        <ele>69.699997</ele>
        <time>2010-08-28T12:47:07Z</time>
      </trkpt>
      <trkpt lat="48.29516" lon="2.59351">
        <ele>69.699997</ele>
        <time>2010-08-28T12:47:12Z</time>
      </trkpt>
      <trkpt lat="48.29516" lon="2.59351">
        <ele>69.699997</ele>
        <time>2010-08-28T12:47:17Z</time>
      </trkpt>
      <trkpt lat="48.29516" lon="2.59351">
        <ele>69.699997</ele>
        <time>2010-08-28T12:47:22Z</time>
      </trkpt>
      <trkpt lat="48.29516" lon="2.59351">
        <ele>69.699997</ele>
        <time>2010-08-28T12:47:27Z</time>
      </trkpt>
      <trkpt lat="48.29516" lon="2.59351">
        <ele>69.699997</ele>
        <time>2010-08-28T12:47:32Z</time>
      </trkpt>
      <trkpt lat="48.29516" lon="2.59351">
        <ele>69.699997</ele>
        <time>2010-08-28T12:47:37Z</time>
      </trkpt>
      <trkpt lat="48.29516" lon="2.59351">
        <ele>69.699997</ele>
        <time>2010-08-28T12:47:42Z</time>
      </trkpt>
      <trkpt lat="48.29516" lon="2.59351">
        <ele>69.699997</ele>
        <time>2010-08-28T12:47:47Z</time>
      </trkpt>
      <trkpt lat="48.29516" lon="2.59351">
        <ele>69.699997</ele>
        <time>2010-08-28T12:47:52Z</time>
      </trkpt>
      <trkpt lat="48.29516" lon="2.59351">
        <ele>69.699997</ele>
        <time>2010-08-28T12:47:57Z</time>
      </trkpt>
      <trkpt lat="48.29516" lon="2.59351">
        <ele>69.699997</ele>
        <time>2010-08-28T12:48:02Z</time>
      </trkpt>
      <trkpt lat="48.29516" lon="2.59351">
        <ele>69.699997</ele>
        <time>2010-08-28T12:48:07Z</time>
      </trkpt>
      <trkpt lat="48.29516" lon="2.59351">
        <ele>69.699997</ele>
        <time>2010-08-28T12:48:12Z</time>
      </trkpt>
      <trkpt lat="48.29516" lon="2.59351">
        <ele>69.699997</ele>
        <time>2010-08-28T12:48:17Z</time>
      </trkpt>
      <trkpt lat="48.29516" lon="2.59351">
        <ele>69.699997</ele>
        <time>2010-08-28T12:48:22Z</time>
      </trkpt>
      <trkpt lat="48.29516" lon="2.59351">
        <ele>69.699997</ele>
        <time>2010-08-28T12:48:27Z</time>
      </trkpt>
      <trkpt lat="48.29516" lon="2.59351">
        <ele>69.699997</ele>
        <time>2010-08-28T12:48:32Z</time>
      </trkpt>
      <trkpt lat="48.29516" lon="2.59351">
        <ele>69.699997</ele>
        <time>2010-08-28T12:48:37Z</time>
      </trkpt>
      <trkpt lat="48.29516" lon="2.59351">
        <ele>69.699997</ele>
        <time>2010-08-28T12:48:41Z</time>
      </trkpt>
      <trkpt lat="48.29516" lon="2.59351">
        <ele>69.699997</ele>
        <time>2010-08-28T12:48:46Z</time>
      </trkpt>
      <trkpt lat="48.29516" lon="2.59351">
        <ele>69.699997</ele>
        <time>2010-08-28T12:48:51Z</time>
      </trkpt>
      <trkpt lat="48.29516" lon="2.59351">
        <ele>69.699997</ele>
        <time>2010-08-28T12:48:56Z</time>
      </trkpt>
      <trkpt lat="48.29516" lon="2.59351">
        <ele>69.699997</ele>
        <time>2010-08-28T12:49:01Z</time>
      </trkpt>
      <trkpt lat="48.29516" lon="2.59351">
        <ele>69.699997</ele>
        <time>2010-08-28T12:49:06Z</time>
      </trkpt>
      <trkpt lat="48.29516" lon="2.59351">
        <ele>69.699997</ele>
        <time>2010-08-28T12:49:11Z</time>
      </trkpt>
      <trkpt lat="48.29516" lon="2.59351">
        <ele>69.699997</ele>
        <time>2010-08-28T12:49:16Z</time>
      </trkpt>
      <trkpt lat="48.29516" lon="2.59351">
        <ele>69.699997</ele>
        <time>2010-08-28T12:49:21Z</time>
      </trkpt>
      <trkpt lat="48.29516" lon="2.59351">
        <ele>69.699997</ele>
        <time>2010-08-28T12:49:26Z</time>
      </trkpt>
      <trkpt lat="48.29516" lon="2.59351">
        <ele>69.699997</ele>
        <time>2010-08-28T12:49:31Z</time>
      </trkpt>
      <trkpt lat="48.29516" lon="2.59351">
        <ele>69.699997</ele>
        <time>2010-08-28T12:49:36Z</time>
      </trkpt>
      <trkpt lat="48.29516" lon="2.59351">
        <ele>69.699997</ele>
        <time>2010-08-28T12:49:41Z</time>
      </trkpt>
      <trkpt lat="48.29552" lon="2.59311">
        <ele>82.949997</ele>
        <time>2010-08-28T12:49:46Z</time>
      </trkpt>
      <trkpt lat="48.29551" lon="2.59311">
        <ele>82.949997</ele>
        <time>2010-08-28T12:49:51Z</time>
      </trkpt>
      <trkpt lat="48.29548" lon="2.59307">
        <ele>81.669998</ele>
        <time>2010-08-28T12:49:56Z</time>
      </trkpt>
      <trkpt lat="48.29548" lon="2.59305">
        <ele>82.009995</ele>
        <time>2010-08-28T12:50:01Z</time>
      </trkpt>
      <trkpt lat="48.29548" lon="2.59305">
        <ele>82.009995</ele>
        <time>2010-08-28T12:50:06Z</time>
      </trkpt>
      <trkpt lat="48.29548" lon="2.59305">
        <ele>82.009995</ele>
        <time>2010-08-28T12:50:11Z</time>
      </trkpt>
      <trkpt lat="48.29548" lon="2.59303">
        <ele>75.150002</ele>
        <time>2010-08-28T12:50:16Z</time>
      </trkpt>
      <trkpt lat="48.29551" lon="2.59298">
        <ele>71.32</ele>
        <time>2010-08-28T12:50:21Z</time>
      </trkpt>
      <trkpt lat="48.29554" lon="2.59296">
        <ele>69.489998</ele>
        <time>2010-08-28T12:50:26Z</time>
      </trkpt>
      <trkpt lat="48.29554" lon="2.59296">
        <ele>69.489998</ele>
        <time>2010-08-28T12:50:31Z</time>
      </trkpt>
      <trkpt lat="48.29554" lon="2.59296">
        <ele>69.489998</ele>
        <time>2010-08-28T12:50:36Z</time>
      </trkpt>
      <trkpt lat="48.29554" lon="2.59296">
        <ele>69.489998</ele>
        <time>2010-08-28T12:50:41Z</time>
      </trkpt>
      <trkpt lat="48.29554" lon="2.59296">
        <ele>69.489998</ele>
        <time>2010-08-28T12:50:46Z</time>
      </trkpt>
      <trkpt lat="48.29554" lon="2.59296">
        <ele>69.489998</ele>
        <time>2010-08-28T12:50:51Z</time>
      </trkpt>
      <trkpt lat="48.29536" lon="2.593">
        <ele>80.330002</ele>
        <time>2010-08-28T12:50:56Z</time>
      </trkpt>
      <trkpt lat="48.29538" lon="2.59296">
        <ele>82.909996</ele>
        <time>2010-08-28T12:51:01Z</time>
      </trkpt>
      <trkpt lat="48.29538" lon="2.59296">
        <ele>82.909996</ele>
        <time>2010-08-28T12:51:06Z</time>
      </trkpt>
      <trkpt lat="48.29532" lon="2.59286">
        <ele>89.579994</ele>
        <time>2010-08-28T12:51:11Z</time>
      </trkpt>
      <trkpt lat="48.29532" lon="2.59284">
        <ele>93.07</ele>
        <time>2010-08-28T12:51:16Z</time>
      </trkpt>
      <trkpt lat="48.29531" lon="2.59278">
        <ele>96.049995</ele>
        <time>2010-08-28T12:51:20Z</time>
      </trkpt>
      <trkpt lat="48.29531" lon="2.59278">
        <ele>96.049995</ele>
        <time>2010-08-28T12:51:25Z</time>
      </trkpt>
      <trkpt lat="48.29531" lon="2.59278">
        <ele>96.049995</ele>
        <time>2010-08-28T12:51:30Z</time>
      </trkpt>
      <trkpt lat="48.29527" lon="2.59264">
        <ele>96.669998</ele>
        <time>2010-08-28T12:51:35Z</time>
      </trkpt>
      <trkpt lat="48.29527" lon="2.5926">
        <ele>96.269997</ele>
        <time>2010-08-28T12:51:40Z</time>
      </trkpt>
      <trkpt lat="48.29527" lon="2.5926">
        <ele>96.269997</ele>
        <time>2010-08-28T12:51:45Z</time>
      </trkpt>
      <trkpt lat="48.29531" lon="2.59248">
        <ele>97.059998</ele>
        <time>2010-08-28T12:51:50Z</time>
      </trkpt>
      <trkpt lat="48.29535" lon="2.59243">
        <ele>97.949997</ele>
        <time>2010-08-28T12:51:55Z</time>
      </trkpt>
      <trkpt lat="48.29535" lon="2.59243">
        <ele>97.949997</ele>
        <time>2010-08-28T12:52:00Z</time>
      </trkpt>
      <trkpt lat="48.29535" lon="2.59243">
        <ele>97.949997</ele>
        <time>2010-08-28T12:52:05Z</time>
      </trkpt>
      <trkpt lat="48.29535" lon="2.59243">
        <ele>97.949997</ele>
        <time>2010-08-28T12:52:10Z</time>
      </trkpt>
      <trkpt lat="48.29535" lon="2.59243">
        <ele>97.949997</ele>
        <time>2010-08-28T12:52:15Z</time>
      </trkpt>
      <trkpt lat="48.29535" lon="2.59243">
        <ele>97.949997</ele>
        <time>2010-08-28T12:52:20Z</time>
      </trkpt>
      <trkpt lat="48.29535" lon="2.59243">
        <ele>97.949997</ele>
        <time>2010-08-28T12:52:25Z</time>
      </trkpt>
      <trkpt lat="48.29535" lon="2.59243">
        <ele>97.949997</ele>
        <time>2010-08-28T12:52:30Z</time>
      </trkpt>
      <trkpt lat="48.29541" lon="2.59214">
        <ele>88.599998</ele>
        <time>2010-08-28T12:52:35Z</time>
      </trkpt>
      <trkpt lat="48.2954" lon="2.59207">
        <ele>89.229996</ele>
        <time>2010-08-28T12:52:40Z</time>
      </trkpt>
      <trkpt lat="48.2954" lon="2.59199">
        <ele>88.599998</ele>
        <time>2010-08-28T12:52:45Z</time>
      </trkpt>
      <trkpt lat="48.2954" lon="2.59198">
        <ele>88.150002</ele>
        <time>2010-08-28T12:52:50Z</time>
      </trkpt>
      <trkpt lat="48.29541" lon="2.59189">
        <ele>86.43</ele>
        <time>2010-08-28T12:52:55Z</time>
      </trkpt>
      <trkpt lat="48.29541" lon="2.59184">
        <ele>85.650002</ele>
        <time>2010-08-28T12:53:00Z</time>
      </trkpt>
      <trkpt lat="48.29541" lon="2.59184">
        <ele>85.650002</ele>
        <time>2010-08-28T12:53:05Z</time>
      </trkpt>
      <trkpt lat="48.29541" lon="2.59184">
        <ele>85.650002</ele>
        <time>2010-08-28T12:53:10Z</time>
      </trkpt>
      <trkpt lat="48.29541" lon="2.59184">
        <ele>85.650002</ele>
        <time>2010-08-28T12:53:15Z</time>
      </trkpt>
      <trkpt lat="48.29541" lon="2.59184">
        <ele>85.650002</ele>
        <time>2010-08-28T12:53:20Z</time>
      </trkpt>
      <trkpt lat="48.29541" lon="2.59184">
        <ele>85.650002</ele>
        <time>2010-08-28T12:53:25Z</time>
      </trkpt>
      <trkpt lat="48.29538" lon="2.59162">
        <ele>84.110001</ele>
        <time>2010-08-28T12:53:30Z</time>
      </trkpt>
      <trkpt lat="48.29536" lon="2.59163">
        <ele>83.849998</ele>
        <time>2010-08-28T12:53:35Z</time>
      </trkpt>
      <trkpt lat="48.29536" lon="2.59163">
        <ele>83.849998</ele>
        <time>2010-08-28T12:53:40Z</time>
      </trkpt>
      <trkpt lat="48.29536" lon="2.59163">
        <ele>83.849998</ele>
        <time>2010-08-28T12:53:45Z</time>
      </trkpt>
      <trkpt lat="48.29528" lon="2.59169">
        <ele>88.799995</ele>
        <time>2010-08-28T12:53:50Z</time>
      </trkpt>
      <trkpt lat="48.29527" lon="2.59162">
        <ele>87.739998</ele>
        <time>2010-08-28T12:53:55Z</time>
      </trkpt>
      <trkpt lat="48.29525" lon="2.59153">
        <ele>88.199997</ele>
        <time>2010-08-28T12:54:00Z</time>
      </trkpt>
      <trkpt lat="48.29525" lon="2.59151">
        <ele>88.779999</ele>
        <time>2010-08-28T12:54:05Z</time>
      </trkpt>
      <trkpt lat="48.29525" lon="2.59151">
        <ele>88.779999</ele>
        <time>2010-08-28T12:54:10Z</time>
      </trkpt>
      <trkpt lat="48.29525" lon="2.59151">
        <ele>88.779999</ele>
        <time>2010-08-28T12:54:15Z</time>
      </trkpt>
      <trkpt lat="48.29516" lon="2.59127">
        <ele>92.759995</ele>
        <time>2010-08-28T12:54:19Z</time>
      </trkpt>
      <trkpt lat="48.29512" lon="2.59123">
        <ele>94.279999</ele>
        <time>2010-08-28T12:54:24Z</time>
      </trkpt>
      <trkpt lat="48.29511" lon="2.59121">
        <ele>94.369995</ele>
        <time>2010-08-28T12:54:30Z</time>
      </trkpt>
      <trkpt lat="48.29504" lon="2.5911">
        <ele>95.349998</ele>
        <time>2010-08-28T12:54:34Z</time>
      </trkpt>
      <trkpt lat="48.29501" lon="2.59102">
        <ele>96.339996</ele>
        <time>2010-08-28T12:54:40Z</time>
      </trkpt>
      <trkpt lat="48.29499" lon="2.59093">
        <ele>95.739998</ele>
        <time>2010-08-28T12:54:44Z</time>
      </trkpt>
      <trkpt lat="48.29499" lon="2.59085">
        <ele>91.919998</ele>
        <time>2010-08-28T12:54:50Z</time>
      </trkpt>
      <trkpt lat="48.29499" lon="2.59084">
        <ele>91.629997</ele>
        <time>2010-08-28T12:54:55Z</time>
      </trkpt>
      <trkpt lat="48.29499" lon="2.59084">
        <ele>91.629997</ele>
        <time>2010-08-28T12:55:00Z</time>
      </trkpt>
      <trkpt lat="48.29501" lon="2.59081">
        <ele>86.939995</ele>
        <time>2010-08-28T12:55:05Z</time>
      </trkpt>
      <trkpt lat="48.29501" lon="2.59081">
        <ele>86.369995</ele>
        <time>2010-08-28T12:55:10Z</time>
      </trkpt>
      <trkpt lat="48.29503" lon="2.59078">
        <ele>84.199997</ele>
        <time>2010-08-28T12:55:14Z</time>
      </trkpt>
      <trkpt lat="48.29503" lon="2.59078">
        <ele>83.509995</ele>
        <time>2010-08-28T12:55:19Z</time>
      </trkpt>
      <trkpt lat="48.29503" lon="2.59078">
        <ele>83.509995</ele>
        <time>2010-08-28T12:55:24Z</time>
      </trkpt>
      <trkpt lat="48.29503" lon="2.59078">
        <ele>83.509995</ele>
        <time>2010-08-28T12:55:29Z</time>
      </trkpt>
      <trkpt lat="48.29503" lon="2.59078">
        <ele>83.509995</ele>
        <time>2010-08-28T12:55:34Z</time>
      </trkpt>
      <trkpt lat="48.29503" lon="2.59078">
        <ele>83.509995</ele>
        <time>2010-08-28T12:55:39Z</time>
      </trkpt>
      <trkpt lat="48.29503" lon="2.59078">
        <ele>83.509995</ele>
        <time>2010-08-28T12:55:44Z</time>
      </trkpt>
      <trkpt lat="48.29503" lon="2.59078">
        <ele>83.509995</ele>
        <time>2010-08-28T12:55:49Z</time>
      </trkpt>
      <trkpt lat="48.29503" lon="2.59078">
        <ele>83.509995</ele>
        <time>2010-08-28T12:55:54Z</time>
      </trkpt>
      <trkpt lat="48.29503" lon="2.59078">
        <ele>83.509995</ele>
        <time>2010-08-28T12:55:59Z</time>
      </trkpt>
      <trkpt lat="48.29496" lon="2.59087">
        <ele>70.379997</ele>
        <time>2010-08-28T12:56:05Z</time>
      </trkpt>
      <trkpt lat="48.29489" lon="2.59094">
        <ele>69.5</ele>
        <time>2010-08-28T12:56:09Z</time>
      </trkpt>
      <trkpt lat="48.29485" lon="2.59101">
        <ele>68.879997</ele>
        <time>2010-08-28T12:56:14Z</time>
      </trkpt>
      <trkpt lat="48.2948" lon="2.59105">
        <ele>67.209999</ele>
        <time>2010-08-28T12:56:19Z</time>
      </trkpt>
      <trkpt lat="48.29473" lon="2.59113">
        <ele>67.619995</ele>
        <time>2010-08-28T12:56:24Z</time>
      </trkpt>
      <trkpt lat="48.29469" lon="2.59118">
        <ele>67.260002</ele>
        <time>2010-08-28T12:56:29Z</time>
      </trkpt>
      <trkpt lat="48.29463" lon="2.59125">
        <ele>69.659996</ele>
        <time>2010-08-28T12:56:34Z</time>
      </trkpt>
      <trkpt lat="48.29458" lon="2.59132">
        <ele>68.189995</ele>
        <time>2010-08-28T12:56:39Z</time>
      </trkpt>
      <trkpt lat="48.29458" lon="2.59132">
        <ele>68.189995</ele>
        <time>2010-08-28T12:56:44Z</time>
      </trkpt>
      <trkpt lat="48.29451" lon="2.59142">
        <ele>66.809998</ele>
        <time>2010-08-28T12:56:49Z</time>
      </trkpt>
      <trkpt lat="48.29451" lon="2.59143">
        <ele>67.529999</ele>
        <time>2010-08-28T12:56:55Z</time>
      </trkpt>
      <trkpt lat="48.29451" lon="2.59143">
        <ele>67.529999</ele>
        <time>2010-08-28T12:57:00Z</time>
      </trkpt>
      <trkpt lat="48.29451" lon="2.59143">
        <ele>67.529999</ele>
        <time>2010-08-28T12:57:05Z</time>
      </trkpt>
      <trkpt lat="48.29451" lon="2.59143">
        <ele>67.529999</ele>
        <time>2010-08-28T12:57:10Z</time>
      </trkpt>
      <trkpt lat="48.29451" lon="2.59143">
        <ele>67.529999</ele>
        <time>2010-08-28T12:57:15Z</time>
      </trkpt>
      <trkpt lat="48.29461" lon="2.59169">
        <ele>96.900002</ele>
        <time>2010-08-28T12:57:20Z</time>
      </trkpt>
      <trkpt lat="48.29457" lon="2.59176">
        <ele>96.229996</ele>
        <time>2010-08-28T12:57:25Z</time>
      </trkpt>
      <trkpt lat="48.29459" lon="2.59183">
        <ele>95.599998</ele>
        <time>2010-08-28T12:57:30Z</time>
      </trkpt>
      <trkpt lat="48.2946" lon="2.5919">
        <ele>95.439995</ele>
        <time>2010-08-28T12:57:35Z</time>
      </trkpt>
      <trkpt lat="48.29458" lon="2.59196">
        <ele>94.619995</ele>
        <time>2010-08-28T12:57:40Z</time>
      </trkpt>
      <trkpt lat="48.29458" lon="2.59197">
        <ele>94.349998</ele>
        <time>2010-08-28T12:57:45Z</time>
      </trkpt>
      <trkpt lat="48.29458" lon="2.59197">
        <ele>94.349998</ele>
        <time>2010-08-28T12:57:50Z</time>
      </trkpt>
      <trkpt lat="48.29458" lon="2.59197">
        <ele>94.349998</ele>
        <time>2010-08-28T12:57:55Z</time>
      </trkpt>
      <trkpt lat="48.29458" lon="2.59197">
        <ele>94.349998</ele>
        <time>2010-08-28T12:58:00Z</time>
      </trkpt>
      <trkpt lat="48.29458" lon="2.59197">
        <ele>94.349998</ele>
        <time>2010-08-28T12:58:05Z</time>
      </trkpt>
      <trkpt lat="48.29458" lon="2.59197">
        <ele>94.349998</ele>
        <time>2010-08-28T12:58:10Z</time>
      </trkpt>
      <trkpt lat="48.29458" lon="2.59197">
        <ele>94.349998</ele>
        <time>2010-08-28T12:58:15Z</time>
      </trkpt>
      <trkpt lat="48.29443" lon="2.59201">
        <ele>89.529999</ele>
        <time>2010-08-28T12:58:20Z</time>
      </trkpt>
      <trkpt lat="48.29437" lon="2.59209">
        <ele>89.709999</ele>
        <time>2010-08-28T12:58:25Z</time>
      </trkpt>
      <trkpt lat="48.29436" lon="2.5921">
        <ele>89.150002</ele>
        <time>2010-08-28T12:58:30Z</time>
      </trkpt>
      <trkpt lat="48.29425" lon="2.59222">
        <ele>90.079994</ele>
        <time>2010-08-28T12:58:35Z</time>
      </trkpt>
      <trkpt lat="48.29421" lon="2.59227">
        <ele>91</ele>
        <time>2010-08-28T12:58:40Z</time>
      </trkpt>
      <trkpt lat="48.29421" lon="2.59227">
        <ele>91</ele>
        <time>2010-08-28T12:58:45Z</time>
      </trkpt>
      <trkpt lat="48.29418" lon="2.59232">
        <ele>89.860001</ele>
        <time>2010-08-28T12:58:50Z</time>
      </trkpt>
      <trkpt lat="48.29417" lon="2.59235">
        <ele>89.579994</ele>
        <time>2010-08-28T12:58:55Z</time>
      </trkpt>
      <trkpt lat="48.29417" lon="2.59235">
        <ele>89.220001</ele>
        <time>2010-08-28T12:59:00Z</time>
      </trkpt>
      <trkpt lat="48.29417" lon="2.59235">
        <ele>89.220001</ele>
        <time>2010-08-28T12:59:05Z</time>
      </trkpt>
      <trkpt lat="48.29417" lon="2.59235">
        <ele>89.220001</ele>
        <time>2010-08-28T12:59:10Z</time>
      </trkpt>
      <trkpt lat="48.29417" lon="2.59235">
        <ele>89.220001</ele>
        <time>2010-08-28T12:59:15Z</time>
      </trkpt>
      <trkpt lat="48.29417" lon="2.59235">
        <ele>89.220001</ele>
        <time>2010-08-28T12:59:20Z</time>
      </trkpt>
      <trkpt lat="48.29417" lon="2.59235">
        <ele>89.220001</ele>
        <time>2010-08-28T12:59:25Z</time>
      </trkpt>
      <trkpt lat="48.29417" lon="2.59235">
        <ele>89.220001</ele>
        <time>2010-08-28T12:59:30Z</time>
      </trkpt>
      <trkpt lat="48.29417" lon="2.59235">
        <ele>89.220001</ele>
        <time>2010-08-28T12:59:35Z</time>
      </trkpt>
      <trkpt lat="48.29417" lon="2.59235">
        <ele>89.220001</ele>
        <time>2010-08-28T12:59:40Z</time>
      </trkpt>
      <trkpt lat="48.29417" lon="2.59235">
        <ele>89.220001</ele>
        <time>2010-08-28T12:59:45Z</time>
      </trkpt>
      <trkpt lat="48.29417" lon="2.59235">
        <ele>89.220001</ele>
        <time>2010-08-28T12:59:50Z</time>
      </trkpt>
      <trkpt lat="48.29417" lon="2.59235">
        <ele>89.220001</ele>
        <time>2010-08-28T12:59:55Z</time>
      </trkpt>
      <trkpt lat="48.29424" lon="2.59269">
        <ele>97.329994</ele>
        <time>2010-08-28T13:00:00Z</time>
      </trkpt>
      <trkpt lat="48.29424" lon="2.59273">
        <ele>100.409996</ele>
        <time>2010-08-28T13:00:05Z</time>
      </trkpt>
      <trkpt lat="48.29426" lon="2.59277">
        <ele>101.25</ele>
        <time>2010-08-28T13:00:10Z</time>
      </trkpt>
      <trkpt lat="48.29426" lon="2.59277">
        <ele>101.25</ele>
        <time>2010-08-28T13:00:15Z</time>
      </trkpt>
      <trkpt lat="48.29421" lon="2.59289">
        <ele>102.009995</ele>
        <time>2010-08-28T13:00:20Z</time>
      </trkpt>
      <trkpt lat="48.29421" lon="2.5929">
        <ele>102.220001</ele>
        <time>2010-08-28T13:00:25Z</time>
      </trkpt>
      <trkpt lat="48.29421" lon="2.5929">
        <ele>102.220001</ele>
        <time>2010-08-28T13:00:30Z</time>
      </trkpt>
      <trkpt lat="48.29421" lon="2.5929">
        <ele>102.220001</ele>
        <time>2010-08-28T13:00:35Z</time>
      </trkpt>
      <trkpt lat="48.29408" lon="2.593">
        <ele>107.110001</ele>
        <time>2010-08-28T13:00:40Z</time>
      </trkpt>
      <trkpt lat="48.29406" lon="2.59301">
        <ele>107.639999</ele>
        <time>2010-08-28T13:00:45Z</time>
      </trkpt>
      <trkpt lat="48.29406" lon="2.59301">
        <ele>107.639999</ele>
        <time>2010-08-28T13:00:50Z</time>
      </trkpt>
      <trkpt lat="48.29406" lon="2.59301">
        <ele>107.639999</ele>
        <time>2010-08-28T13:00:55Z</time>
      </trkpt>
      <trkpt lat="48.29406" lon="2.59301">
        <ele>107.639999</ele>
        <time>2010-08-28T13:01:00Z</time>
      </trkpt>
      <trkpt lat="48.29406" lon="2.59302">
        <ele>105.059998</ele>
        <time>2010-08-28T13:01:05Z</time>
      </trkpt>
      <trkpt lat="48.29406" lon="2.59302">
        <ele>105.659996</ele>
        <time>2010-08-28T13:01:10Z</time>
      </trkpt>
      <trkpt lat="48.29406" lon="2.59302">
        <ele>105.659996</ele>
        <time>2010-08-28T13:01:15Z</time>
      </trkpt>
      <trkpt lat="48.29406" lon="2.59302">
        <ele>105.659996</ele>
        <time>2010-08-28T13:01:20Z</time>
      </trkpt>
      <trkpt lat="48.29406" lon="2.59302">
        <ele>105.659996</ele>
        <time>2010-08-28T13:01:25Z</time>
      </trkpt>
      <trkpt lat="48.29406" lon="2.59302">
        <ele>105.659996</ele>
        <time>2010-08-28T13:01:30Z</time>
      </trkpt>
      <trkpt lat="48.29406" lon="2.59302">
        <ele>105.659996</ele>
        <time>2010-08-28T13:01:35Z</time>
      </trkpt>
      <trkpt lat="48.29406" lon="2.59302">
        <ele>105.659996</ele>
        <time>2010-08-28T13:01:40Z</time>
      </trkpt>
      <trkpt lat="48.29406" lon="2.59302">
        <ele>105.659996</ele>
        <time>2010-08-28T13:01:45Z</time>
      </trkpt>
      <trkpt lat="48.29406" lon="2.59302">
        <ele>105.659996</ele>
        <time>2010-08-28T13:01:50Z</time>
      </trkpt>
      <trkpt lat="48.29406" lon="2.59302">
        <ele>105.659996</ele>
        <time>2010-08-28T13:01:55Z</time>
      </trkpt>
      <trkpt lat="48.29409" lon="2.59301">
        <ele>91.079994</ele>
        <time>2010-08-28T13:02:00Z</time>
      </trkpt>
      <trkpt lat="48.29406" lon="2.59306">
        <ele>89.669998</ele>
        <time>2010-08-28T13:02:04Z</time>
      </trkpt>
      <trkpt lat="48.2941" lon="2.59307">
        <ele>103.610001</ele>
        <time>2010-08-28T13:02:09Z</time>
      </trkpt>
      <trkpt lat="48.29411" lon="2.59304">
        <ele>104.669998</ele>
        <time>2010-08-28T13:02:14Z</time>
      </trkpt>
      <trkpt lat="48.29411" lon="2.59304">
        <ele>104.669998</ele>
        <time>2010-08-28T13:02:19Z</time>
      </trkpt>
      <trkpt lat="48.29404" lon="2.59294">
        <ele>96.579994</ele>
        <time>2010-08-28T13:02:24Z</time>
      </trkpt>
      <trkpt lat="48.29401" lon="2.59294">
        <ele>96.079994</ele>
        <time>2010-08-28T13:02:29Z</time>
      </trkpt>
      <trkpt lat="48.29401" lon="2.59294">
        <ele>96.079994</ele>
        <time>2010-08-28T13:02:34Z</time>
      </trkpt>
      <trkpt lat="48.29401" lon="2.59294">
        <ele>96.079994</ele>
        <time>2010-08-28T13:02:39Z</time>
      </trkpt>
      <trkpt lat="48.29401" lon="2.59294">
        <ele>96.079994</ele>
        <time>2010-08-28T13:02:44Z</time>
      </trkpt>
      <trkpt lat="48.29401" lon="2.59294">
        <ele>96.079994</ele>
        <time>2010-08-28T13:02:49Z</time>
      </trkpt>
      <trkpt lat="48.29401" lon="2.59294">
        <ele>96.079994</ele>
        <time>2010-08-28T13:02:54Z</time>
      </trkpt>
      <trkpt lat="48.29398" lon="2.59265">
        <ele>90.979996</ele>
        <time>2010-08-28T13:02:59Z</time>
      </trkpt>
      <trkpt lat="48.29403" lon="2.59262">
        <ele>90.389999</ele>
        <time>2010-08-28T13:03:04Z</time>
      </trkpt>
      <trkpt lat="48.29404" lon="2.59256">
        <ele>90.269997</ele>
        <time>2010-08-28T13:03:09Z</time>
      </trkpt>
      <trkpt lat="48.29403" lon="2.59248">
        <ele>88.5</ele>
        <time>2010-08-28T13:03:14Z</time>
      </trkpt>
      <trkpt lat="48.29405" lon="2.59237">
        <ele>86.32</ele>
        <time>2010-08-28T13:03:19Z</time>
      </trkpt>
      <trkpt lat="48.29408" lon="2.59229">
        <ele>84.360001</ele>
        <time>2010-08-28T13:03:24Z</time>
      </trkpt>
      <trkpt lat="48.29412" lon="2.59221">
        <ele>81.830002</ele>
        <time>2010-08-28T13:03:29Z</time>
      </trkpt>
      <trkpt lat="48.29411" lon="2.5922">
        <ele>80.799995</ele>
        <time>2010-08-28T13:03:34Z</time>
      </trkpt>
      <trkpt lat="48.29415" lon="2.59214">
        <ele>74.139999</ele>
        <time>2010-08-28T13:03:39Z</time>
      </trkpt>
      <trkpt lat="48.29411" lon="2.59213">
        <ele>77.110001</ele>
        <time>2010-08-28T13:03:44Z</time>
      </trkpt>
      <trkpt lat="48.29411" lon="2.59213">
        <ele>77.110001</ele>
        <time>2010-08-28T13:03:49Z</time>
      </trkpt>
      <trkpt lat="48.29411" lon="2.59213">
        <ele>77.110001</ele>
        <time>2010-08-28T13:03:54Z</time>
      </trkpt>
      <trkpt lat="48.29411" lon="2.59213">
        <ele>77.110001</ele>
        <time>2010-08-28T13:03:59Z</time>
      </trkpt>
      <trkpt lat="48.29411" lon="2.59213">
        <ele>77.110001</ele>
        <time>2010-08-28T13:04:04Z</time>
      </trkpt>
      <trkpt lat="48.29411" lon="2.59213">
        <ele>77.110001</ele>
        <time>2010-08-28T13:04:09Z</time>
      </trkpt>
      <trkpt lat="48.29395" lon="2.59206">
        <ele>83.110001</ele>
        <time>2010-08-28T13:04:14Z</time>
      </trkpt>
      <trkpt lat="48.2939" lon="2.59207">
        <ele>82.330002</ele>
        <time>2010-08-28T13:04:19Z</time>
      </trkpt>
      <trkpt lat="48.29388" lon="2.59206">
        <ele>81.239998</ele>
        <time>2010-08-28T13:04:24Z</time>
      </trkpt>
      <trkpt lat="48.29382" lon="2.59205">
        <ele>79.18</ele>
        <time>2010-08-28T13:04:29Z</time>
      </trkpt>
      <trkpt lat="48.2938" lon="2.59205">
        <ele>77.459999</ele>
        <time>2010-08-28T13:04:34Z</time>
      </trkpt>
      <trkpt lat="48.29373" lon="2.59208">
        <ele>74.900002</ele>
        <time>2010-08-28T13:04:39Z</time>
      </trkpt>
      <trkpt lat="48.2937" lon="2.59207">
        <ele>70.629997</ele>
        <time>2010-08-28T13:04:44Z</time>
      </trkpt>
      <trkpt lat="48.2937" lon="2.59207">
        <ele>70.629997</ele>
        <time>2010-08-28T13:04:49Z</time>
      </trkpt>
      <trkpt lat="48.2937" lon="2.59207">
        <ele>70.629997</ele>
        <time>2010-08-28T13:04:54Z</time>
      </trkpt>
      <trkpt lat="48.2937" lon="2.59207">
        <ele>70.629997</ele>
        <time>2010-08-28T13:04:59Z</time>
      </trkpt>
      <trkpt lat="48.2937" lon="2.59207">
        <ele>70.629997</ele>
        <time>2010-08-28T13:05:04Z</time>
      </trkpt>
      <trkpt lat="48.29368" lon="2.59202">
        <ele>59.439999</ele>
        <time>2010-08-28T13:05:09Z</time>
      </trkpt>
      <trkpt lat="48.29366" lon="2.59207">
        <ele>58.619999</ele>
        <time>2010-08-28T13:05:14Z</time>
      </trkpt>
      <trkpt lat="48.29363" lon="2.5921">
        <ele>60.039997</ele>
        <time>2010-08-28T13:05:19Z</time>
      </trkpt>
      <trkpt lat="48.29363" lon="2.59208">
        <ele>59.529999</ele>
        <time>2010-08-28T13:05:24Z</time>
      </trkpt>
      <trkpt lat="48.29363" lon="2.59208">
        <ele>59.529999</ele>
        <time>2010-08-28T13:05:29Z</time>
      </trkpt>
      <trkpt lat="48.29363" lon="2.59208">
        <ele>59.529999</ele>
        <time>2010-08-28T13:05:34Z</time>
      </trkpt>
      <trkpt lat="48.29363" lon="2.59208">
        <ele>59.529999</ele>
        <time>2010-08-28T13:05:39Z</time>
      </trkpt>
      <trkpt lat="48.29352" lon="2.59215">
        <ele>61.84</ele>
        <time>2010-08-28T13:05:44Z</time>
      </trkpt>
      <trkpt lat="48.2935" lon="2.59216">
        <ele>62.789997</ele>
        <time>2010-08-28T13:05:49Z</time>
      </trkpt>
      <trkpt lat="48.29346" lon="2.59226">
        <ele>62.279999</ele>
        <time>2010-08-28T13:05:54Z</time>
      </trkpt>
      <trkpt lat="48.29347" lon="2.59233">
        <ele>64.909996</ele>
        <time>2010-08-28T13:05:59Z</time>
      </trkpt>
      <trkpt lat="48.29351" lon="2.5924">
        <ele>66.729996</ele>
        <time>2010-08-28T13:06:04Z</time>
      </trkpt>
      <trkpt lat="48.29349" lon="2.59249">
        <ele>65.589996</ele>
        <time>2010-08-28T13:06:09Z</time>
      </trkpt>
      <trkpt lat="48.29346" lon="2.59259">
        <ele>65.580002</ele>
        <time>2010-08-28T13:06:14Z</time>
      </trkpt>
      <trkpt lat="48.29344" lon="2.59268">
        <ele>65.739998</ele>
        <time>2010-08-28T13:06:19Z</time>
      </trkpt>
      <trkpt lat="48.29344" lon="2.59277">
        <ele>66.769997</ele>
        <time>2010-08-28T13:06:24Z</time>
      </trkpt>
      <trkpt lat="48.29345" lon="2.59277">
        <ele>67.75</ele>
        <time>2010-08-28T13:06:29Z</time>
      </trkpt>
      <trkpt lat="48.29345" lon="2.59277">
        <ele>67.75</ele>
        <time>2010-08-28T13:06:34Z</time>
      </trkpt>
      <trkpt lat="48.29345" lon="2.59277">
        <ele>67.75</ele>
        <time>2010-08-28T13:06:39Z</time>
      </trkpt>
      <trkpt lat="48.29347" lon="2.59284">
        <ele>71.209999</ele>
        <time>2010-08-28T13:06:44Z</time>
      </trkpt>
      <trkpt lat="48.29347" lon="2.59298">
        <ele>79.309998</ele>
        <time>2010-08-28T13:06:49Z</time>
      </trkpt>
      <trkpt lat="48.29346" lon="2.59307">
        <ele>78.869995</ele>
        <time>2010-08-28T13:06:54Z</time>
      </trkpt>
      <trkpt lat="48.29346" lon="2.59307">
        <ele>78.869995</ele>
        <time>2010-08-28T13:06:59Z</time>
      </trkpt>
      <trkpt lat="48.29343" lon="2.59323">
        <ele>78.080002</ele>
        <time>2010-08-28T13:07:04Z</time>
      </trkpt>
      <trkpt lat="48.2934" lon="2.5933">
        <ele>77.019997</ele>
        <time>2010-08-28T13:07:09Z</time>
      </trkpt>
      <trkpt lat="48.29338" lon="2.59336">
        <ele>74.989998</ele>
        <time>2010-08-28T13:07:14Z</time>
      </trkpt>
      <trkpt lat="48.29338" lon="2.59336">
        <ele>74.989998</ele>
        <time>2010-08-28T13:07:19Z</time>
      </trkpt>
      <trkpt lat="48.29338" lon="2.59336">
        <ele>74.989998</ele>
        <time>2010-08-28T13:07:24Z</time>
      </trkpt>
      <trkpt lat="48.29335" lon="2.59355">
        <ele>69.139999</ele>
        <time>2010-08-28T13:07:29Z</time>
      </trkpt>
      <trkpt lat="48.29337" lon="2.59357">
        <ele>68.439995</ele>
        <time>2010-08-28T13:07:34Z</time>
      </trkpt>
      <trkpt lat="48.29337" lon="2.59357">
        <ele>68.439995</ele>
        <time>2010-08-28T13:07:39Z</time>
      </trkpt>
      <trkpt lat="48.29337" lon="2.59357">
        <ele>68.439995</ele>
        <time>2010-08-28T13:07:44Z</time>
      </trkpt>
      <trkpt lat="48.29335" lon="2.5936">
        <ele>66.799995</ele>
        <time>2010-08-28T13:07:49Z</time>
      </trkpt>
      <trkpt lat="48.29335" lon="2.59368">
        <ele>67.019997</ele>
        <time>2010-08-28T13:07:54Z</time>
      </trkpt>
      <trkpt lat="48.29337" lon="2.59373">
        <ele>66.199997</ele>
        <time>2010-08-28T13:07:59Z</time>
      </trkpt>
      <trkpt lat="48.2934" lon="2.59378">
        <ele>65.849998</ele>
        <time>2010-08-28T13:08:04Z</time>
      </trkpt>
      <trkpt lat="48.2934" lon="2.59387">
        <ele>67.549995</ele>
        <time>2010-08-28T13:08:09Z</time>
      </trkpt>
      <trkpt lat="48.29337" lon="2.59393">
        <ele>68.869995</ele>
        <time>2010-08-28T13:08:13Z</time>
      </trkpt>
      <trkpt lat="48.29337" lon="2.59393">
        <ele>68.869995</ele>
        <time>2010-08-28T13:08:18Z</time>
      </trkpt>
      <trkpt lat="48.29337" lon="2.59393">
        <ele>68.869995</ele>
        <time>2010-08-28T13:08:23Z</time>
      </trkpt>
      <trkpt lat="48.29358" lon="2.59414">
        <ele>89.799995</ele>
        <time>2010-08-28T13:08:28Z</time>
      </trkpt>
      <trkpt lat="48.29358" lon="2.59414">
        <ele>89.989998</ele>
        <time>2010-08-28T13:08:33Z</time>
      </trkpt>
      <trkpt lat="48.29358" lon="2.59414">
        <ele>89.989998</ele>
        <time>2010-08-28T13:08:38Z</time>
      </trkpt>
      <trkpt lat="48.29358" lon="2.59414">
        <ele>89.989998</ele>
        <time>2010-08-28T13:08:43Z</time>
      </trkpt>
      <trkpt lat="48.29358" lon="2.59414">
        <ele>89.989998</ele>
        <time>2010-08-28T13:08:48Z</time>
      </trkpt>
      <trkpt lat="48.2934" lon="2.59438">
        <ele>85.07</ele>
        <time>2010-08-28T13:08:53Z</time>
      </trkpt>
      <trkpt lat="48.29329" lon="2.59454">
        <ele>78.529999</ele>
        <time>2010-08-28T13:08:58Z</time>
      </trkpt>
      <trkpt lat="48.29327" lon="2.59458">
        <ele>76.220001</ele>
        <time>2010-08-28T13:09:03Z</time>
      </trkpt>
      <trkpt lat="48.29327" lon="2.59458">
        <ele>76.220001</ele>
        <time>2010-08-28T13:09:08Z</time>
      </trkpt>
      <trkpt lat="48.29327" lon="2.59458">
        <ele>76.220001</ele>
        <time>2010-08-28T13:09:13Z</time>
      </trkpt>
      <trkpt lat="48.29327" lon="2.59458">
        <ele>76.220001</ele>
        <time>2010-08-28T13:09:18Z</time>
      </trkpt>
      <trkpt lat="48.29327" lon="2.59458">
        <ele>76.220001</ele>
        <time>2010-08-28T13:09:23Z</time>
      </trkpt>
      <trkpt lat="48.29327" lon="2.59458">
        <ele>76.220001</ele>
        <time>2010-08-28T13:09:28Z</time>
      </trkpt>
      <trkpt lat="48.29327" lon="2.59458">
        <ele>76.220001</ele>
        <time>2010-08-28T13:09:33Z</time>
      </trkpt>
      <trkpt lat="48.2939" lon="2.59414">
        <ele>83.509995</ele>
        <time>2010-08-28T13:09:38Z</time>
      </trkpt>
      <trkpt lat="48.29393" lon="2.59411">
        <ele>82.589996</ele>
        <time>2010-08-28T13:09:43Z</time>
      </trkpt>
      <trkpt lat="48.29393" lon="2.59411">
        <ele>82.589996</ele>
        <time>2010-08-28T13:09:48Z</time>
      </trkpt>
      <trkpt lat="48.29393" lon="2.59411">
        <ele>82.589996</ele>
        <time>2010-08-28T13:09:53Z</time>
      </trkpt>
      <trkpt lat="48.29393" lon="2.59411">
        <ele>82.589996</ele>
        <time>2010-08-28T13:09:58Z</time>
      </trkpt>
      <trkpt lat="48.29393" lon="2.59411">
        <ele>82.589996</ele>
        <time>2010-08-28T13:10:03Z</time>
      </trkpt>
      <trkpt lat="48.29393" lon="2.59411">
        <ele>82.589996</ele>
        <time>2010-08-28T13:10:08Z</time>
      </trkpt>
      <trkpt lat="48.29393" lon="2.59411">
        <ele>82.589996</ele>
        <time>2010-08-28T13:10:13Z</time>
      </trkpt>
      <trkpt lat="48.29393" lon="2.59411">
        <ele>82.589996</ele>
        <time>2010-08-28T13:10:18Z</time>
      </trkpt>
      <trkpt lat="48.29393" lon="2.59411">
        <ele>82.589996</ele>
        <time>2010-08-28T13:10:23Z</time>
      </trkpt>
      <trkpt lat="48.29393" lon="2.59411">
        <ele>82.589996</ele>
        <time>2010-08-28T13:10:28Z</time>
      </trkpt>
      <trkpt lat="48.29393" lon="2.59411">
        <ele>82.589996</ele>
        <time>2010-08-28T13:10:33Z</time>
      </trkpt>
      <trkpt lat="48.29393" lon="2.59411">
        <ele>82.589996</ele>
        <time>2010-08-28T13:10:38Z</time>
      </trkpt>
      <trkpt lat="48.29393" lon="2.59411">
        <ele>82.589996</ele>
        <time>2010-08-28T13:10:43Z</time>
      </trkpt>
      <trkpt lat="48.29393" lon="2.59411">
        <ele>82.589996</ele>
        <time>2010-08-28T13:10:48Z</time>
      </trkpt>
      <trkpt lat="48.29398" lon="2.59426">
        <ele>94.709999</ele>
        <time>2010-08-28T13:10:53Z</time>
      </trkpt>
      <trkpt lat="48.29397" lon="2.59426">
        <ele>94.470001</ele>
        <time>2010-08-28T13:10:58Z</time>
      </trkpt>
      <trkpt lat="48.29397" lon="2.59426">
        <ele>94.470001</ele>
        <time>2010-08-28T13:11:03Z</time>
      </trkpt>
      <trkpt lat="48.29397" lon="2.59426">
        <ele>94.470001</ele>
        <time>2010-08-28T13:11:08Z</time>
      </trkpt>
      <trkpt lat="48.2939" lon="2.59431">
        <ele>93.150002</ele>
        <time>2010-08-28T13:11:13Z</time>
      </trkpt>
      <trkpt lat="48.29391" lon="2.59428">
        <ele>90.889999</ele>
        <time>2010-08-28T13:11:18Z</time>
      </trkpt>
      <trkpt lat="48.29391" lon="2.59428">
        <ele>90.889999</ele>
        <time>2010-08-28T13:11:23Z</time>
      </trkpt>
      <trkpt lat="48.29391" lon="2.59428">
        <ele>90.889999</ele>
        <time>2010-08-28T13:11:28Z</time>
      </trkpt>
      <trkpt lat="48.29391" lon="2.59428">
        <ele>90.889999</ele>
        <time>2010-08-28T13:11:33Z</time>
      </trkpt>
      <trkpt lat="48.29391" lon="2.59428">
        <ele>90.889999</ele>
        <time>2010-08-28T13:11:38Z</time>
      </trkpt>
      <trkpt lat="48.29391" lon="2.59428">
        <ele>90.889999</ele>
        <time>2010-08-28T13:11:43Z</time>
      </trkpt>
      <trkpt lat="48.29391" lon="2.59428">
        <ele>90.889999</ele>
        <time>2010-08-28T13:11:48Z</time>
      </trkpt>
      <trkpt lat="48.29391" lon="2.59428">
        <ele>90.889999</ele>
        <time>2010-08-28T13:11:53Z</time>
      </trkpt>
      <trkpt lat="48.29391" lon="2.59428">
        <ele>90.889999</ele>
        <time>2010-08-28T13:11:58Z</time>
      </trkpt>
      <trkpt lat="48.29391" lon="2.59428">
        <ele>90.889999</ele>
        <time>2010-08-28T13:12:03Z</time>
      </trkpt>
      <trkpt lat="48.29391" lon="2.59428">
        <ele>90.889999</ele>
        <time>2010-08-28T13:12:08Z</time>
      </trkpt>
      <trkpt lat="48.29391" lon="2.59428">
        <ele>90.889999</ele>
        <time>2010-08-28T13:12:13Z</time>
      </trkpt>
      <trkpt lat="48.29391" lon="2.59428">
        <ele>90.889999</ele>
        <time>2010-08-28T13:12:18Z</time>
      </trkpt>
      <trkpt lat="48.29391" lon="2.59428">
        <ele>90.889999</ele>
        <time>2010-08-28T13:12:22Z</time>
      </trkpt>
      <trkpt lat="48.29391" lon="2.59428">
        <ele>90.889999</ele>
        <time>2010-08-28T13:12:27Z</time>
      </trkpt>
      <trkpt lat="48.29391" lon="2.59428">
        <ele>90.889999</ele>
        <time>2010-08-28T13:12:32Z</time>
      </trkpt>
      <trkpt lat="48.29391" lon="2.59428">
        <ele>90.889999</ele>
        <time>2010-08-28T13:12:37Z</time>
      </trkpt>
      <trkpt lat="48.29391" lon="2.59428">
        <ele>90.889999</ele>
        <time>2010-08-28T13:12:42Z</time>
      </trkpt>
      <trkpt lat="48.29391" lon="2.59428">
        <ele>90.889999</ele>
        <time>2010-08-28T13:12:47Z</time>
      </trkpt>
      <trkpt lat="48.29391" lon="2.59428">
        <ele>90.889999</ele>
        <time>2010-08-28T13:12:53Z</time>
      </trkpt>
      <trkpt lat="48.29391" lon="2.59428">
        <ele>90.889999</ele>
        <time>2010-08-28T13:12:58Z</time>
      </trkpt>
      <trkpt lat="48.29391" lon="2.59428">
        <ele>90.889999</ele>
        <time>2010-08-28T13:13:03Z</time>
      </trkpt>
      <trkpt lat="48.29391" lon="2.59428">
        <ele>90.889999</ele>
        <time>2010-08-28T13:13:08Z</time>
      </trkpt>
      <trkpt lat="48.29391" lon="2.59428">
        <ele>90.889999</ele>
        <time>2010-08-28T13:13:13Z</time>
      </trkpt>
      <trkpt lat="48.29391" lon="2.59428">
        <ele>90.889999</ele>
        <time>2010-08-28T13:13:18Z</time>
      </trkpt>
      <trkpt lat="48.29391" lon="2.59428">
        <ele>90.889999</ele>
        <time>2010-08-28T13:13:23Z</time>
      </trkpt>
      <trkpt lat="48.29391" lon="2.59428">
        <ele>90.889999</ele>
        <time>2010-08-28T13:13:28Z</time>
      </trkpt>
      <trkpt lat="48.29391" lon="2.59428">
        <ele>90.889999</ele>
        <time>2010-08-28T13:13:33Z</time>
      </trkpt>
      <trkpt lat="48.29391" lon="2.59428">
        <ele>90.889999</ele>
        <time>2010-08-28T13:13:38Z</time>
      </trkpt>
      <trkpt lat="48.29391" lon="2.59428">
        <ele>90.889999</ele>
        <time>2010-08-28T13:13:43Z</time>
      </trkpt>
      <trkpt lat="48.29391" lon="2.59428">
        <ele>90.889999</ele>
        <time>2010-08-28T13:13:48Z</time>
      </trkpt>
      <trkpt lat="48.29391" lon="2.59428">
        <ele>90.889999</ele>
        <time>2010-08-28T13:13:53Z</time>
      </trkpt>
      <trkpt lat="48.29391" lon="2.59428">
        <ele>90.889999</ele>
        <time>2010-08-28T13:13:58Z</time>
      </trkpt>
      <trkpt lat="48.29391" lon="2.59428">
        <ele>90.889999</ele>
        <time>2010-08-28T13:14:03Z</time>
      </trkpt>
      <trkpt lat="48.29391" lon="2.59428">
        <ele>90.889999</ele>
        <time>2010-08-28T13:14:08Z</time>
      </trkpt>
      <trkpt lat="48.29391" lon="2.59428">
        <ele>90.889999</ele>
        <time>2010-08-28T13:14:13Z</time>
      </trkpt>
      <trkpt lat="48.29391" lon="2.59428">
        <ele>90.889999</ele>
        <time>2010-08-28T13:14:18Z</time>
      </trkpt>
      <trkpt lat="48.29391" lon="2.59428">
        <ele>90.889999</ele>
        <time>2010-08-28T13:14:23Z</time>
      </trkpt>
      <trkpt lat="48.29391" lon="2.59428">
        <ele>90.889999</ele>
        <time>2010-08-28T13:14:28Z</time>
      </trkpt>
      <trkpt lat="48.29391" lon="2.59428">
        <ele>90.889999</ele>
        <time>2010-08-28T13:14:33Z</time>
      </trkpt>
      <trkpt lat="48.29391" lon="2.59428">
        <ele>90.889999</ele>
        <time>2010-08-28T13:14:38Z</time>
      </trkpt>
      <trkpt lat="48.29391" lon="2.59428">
        <ele>90.889999</ele>
        <time>2010-08-28T13:14:43Z</time>
      </trkpt>
      <trkpt lat="48.29391" lon="2.59428">
        <ele>90.889999</ele>
        <time>2010-08-28T13:14:48Z</time>
      </trkpt>
      <trkpt lat="48.29366" lon="2.5943">
        <ele>88.769997</ele>
        <time>2010-08-28T13:14:53Z</time>
      </trkpt>
      <trkpt lat="48.29367" lon="2.5943">
        <ele>88.709999</ele>
        <time>2010-08-28T13:14:58Z</time>
      </trkpt>
      <trkpt lat="48.29367" lon="2.5943">
        <ele>88.709999</ele>
        <time>2010-08-28T13:15:03Z</time>
      </trkpt>
      <trkpt lat="48.29376" lon="2.59424">
        <ele>91.769997</ele>
        <time>2010-08-28T13:15:08Z</time>
      </trkpt>
      <trkpt lat="48.29382" lon="2.59412">
        <ele>93.68</ele>
        <time>2010-08-28T13:15:13Z</time>
      </trkpt>
      <trkpt lat="48.29387" lon="2.59406">
        <ele>93.909996</ele>
        <time>2010-08-28T13:15:18Z</time>
      </trkpt>
      <trkpt lat="48.29387" lon="2.59407">
        <ele>93.790001</ele>
        <time>2010-08-28T13:15:23Z</time>
      </trkpt>
      <trkpt lat="48.29374" lon="2.5942">
        <ele>93.400002</ele>
        <time>2010-08-28T13:15:28Z</time>
      </trkpt>
      <trkpt lat="48.29365" lon="2.59434">
        <ele>94.209999</ele>
        <time>2010-08-28T13:15:33Z</time>
      </trkpt>
      <trkpt lat="48.29364" lon="2.59435">
        <ele>92.799995</ele>
        <time>2010-08-28T13:15:38Z</time>
      </trkpt>
      <trkpt lat="48.29364" lon="2.59435">
        <ele>92.799995</ele>
        <time>2010-08-28T13:15:43Z</time>
      </trkpt>
      <trkpt lat="48.29364" lon="2.59426">
        <ele>77.18</ele>
        <time>2010-08-28T13:15:47Z</time>
      </trkpt>
      <trkpt lat="48.29366" lon="2.59421">
        <ele>76.739998</ele>
        <time>2010-08-28T13:15:52Z</time>
      </trkpt>
      <trkpt lat="48.29366" lon="2.59421">
        <ele>76.739998</ele>
        <time>2010-08-28T13:15:58Z</time>
      </trkpt>
      <trkpt lat="48.29366" lon="2.59421">
        <ele>76.739998</ele>
        <time>2010-08-28T13:16:03Z</time>
      </trkpt>
      <trkpt lat="48.29355" lon="2.59442">
        <ele>78.879997</ele>
        <time>2010-08-28T13:16:08Z</time>
      </trkpt>
      <trkpt lat="48.29345" lon="2.5946">
        <ele>81.689995</ele>
        <time>2010-08-28T13:16:13Z</time>
      </trkpt>
      <trkpt lat="48.2934" lon="2.59468">
        <ele>81.519997</ele>
        <time>2010-08-28T13:16:18Z</time>
      </trkpt>
      <trkpt lat="48.2934" lon="2.59468">
        <ele>81.519997</ele>
        <time>2010-08-28T13:16:23Z</time>
      </trkpt>
      <trkpt lat="48.2934" lon="2.59468">
        <ele>81.519997</ele>
        <time>2010-08-28T13:16:28Z</time>
      </trkpt>
      <trkpt lat="48.2934" lon="2.59468">
        <ele>81.519997</ele>
        <time>2010-08-28T13:16:33Z</time>
      </trkpt>
      <trkpt lat="48.2934" lon="2.59468">
        <ele>81.519997</ele>
        <time>2010-08-28T13:16:38Z</time>
      </trkpt>
      <trkpt lat="48.2934" lon="2.59468">
        <ele>81.519997</ele>
        <time>2010-08-28T13:16:43Z</time>
      </trkpt>
      <trkpt lat="48.2934" lon="2.59468">
        <ele>81.519997</ele>
        <time>2010-08-28T13:16:48Z</time>
      </trkpt>
      <trkpt lat="48.2934" lon="2.59468">
        <ele>81.519997</ele>
        <time>2010-08-28T13:16:53Z</time>
      </trkpt>
      <trkpt lat="48.2934" lon="2.59468">
        <ele>81.519997</ele>
        <time>2010-08-28T13:16:58Z</time>
      </trkpt>
      <trkpt lat="48.2934" lon="2.59468">
        <ele>81.519997</ele>
        <time>2010-08-28T13:17:02Z</time>
      </trkpt>
      <trkpt lat="48.2934" lon="2.59468">
        <ele>81.519997</ele>
        <time>2010-08-28T13:17:07Z</time>
      </trkpt>
      <trkpt lat="48.2934" lon="2.59468">
        <ele>81.519997</ele>
        <time>2010-08-28T13:17:13Z</time>
      </trkpt>
      <trkpt lat="48.2934" lon="2.59468">
        <ele>81.519997</ele>
        <time>2010-08-28T13:17:18Z</time>
      </trkpt>
      <trkpt lat="48.2934" lon="2.59468">
        <ele>81.519997</ele>
        <time>2010-08-28T13:17:23Z</time>
      </trkpt>
      <trkpt lat="48.2934" lon="2.59468">
        <ele>81.519997</ele>
        <time>2010-08-28T13:17:27Z</time>
      </trkpt>
      <trkpt lat="48.2934" lon="2.59468">
        <ele>81.519997</ele>
        <time>2010-08-28T13:17:33Z</time>
      </trkpt>
      <trkpt lat="48.29358" lon="2.59424">
        <ele>75.639999</ele>
        <time>2010-08-28T13:17:38Z</time>
      </trkpt>
      <trkpt lat="48.29359" lon="2.59431">
        <ele>79.93</ele>
        <time>2010-08-28T13:17:43Z</time>
      </trkpt>
      <trkpt lat="48.29359" lon="2.59431">
        <ele>79.93</ele>
        <time>2010-08-28T13:17:48Z</time>
      </trkpt>
      <trkpt lat="48.29359" lon="2.59431">
        <ele>79.93</ele>
        <time>2010-08-28T13:17:53Z</time>
      </trkpt>
      <trkpt lat="48.29363" lon="2.59451">
        <ele>77.339996</ele>
        <time>2010-08-28T13:17:58Z</time>
      </trkpt>
      <trkpt lat="48.29359" lon="2.5946">
        <ele>77.349998</ele>
        <time>2010-08-28T13:18:03Z</time>
      </trkpt>
      <trkpt lat="48.2936" lon="2.59463">
        <ele>77.199997</ele>
        <time>2010-08-28T13:18:08Z</time>
      </trkpt>
      <trkpt lat="48.29367" lon="2.59463">
        <ele>77.07</ele>
        <time>2010-08-28T13:18:12Z</time>
      </trkpt>
      <trkpt lat="48.29363" lon="2.59471">
        <ele>77.519997</ele>
        <time>2010-08-28T13:18:18Z</time>
      </trkpt>
      <trkpt lat="48.29362" lon="2.59473">
        <ele>77.709999</ele>
        <time>2010-08-28T13:18:23Z</time>
      </trkpt>
      <trkpt lat="48.29362" lon="2.59473">
        <ele>77.709999</ele>
        <time>2010-08-28T13:18:28Z</time>
      </trkpt>
      <trkpt lat="48.29362" lon="2.59473">
        <ele>77.709999</ele>
        <time>2010-08-28T13:18:33Z</time>
      </trkpt>
      <trkpt lat="48.29359" lon="2.59479">
        <ele>83.279999</ele>
        <time>2010-08-28T13:18:38Z</time>
      </trkpt>
      <trkpt lat="48.29355" lon="2.59487">
        <ele>81.779999</ele>
        <time>2010-08-28T13:18:43Z</time>
      </trkpt>
      <trkpt lat="48.29356" lon="2.59487">
        <ele>83.439995</ele>
        <time>2010-08-28T13:18:48Z</time>
      </trkpt>
      <trkpt lat="48.29347" lon="2.59501">
        <ele>87.150002</ele>
        <time>2010-08-28T13:18:53Z</time>
      </trkpt>
      <trkpt lat="48.29335" lon="2.59505">
        <ele>85.379997</ele>
        <time>2010-08-28T13:18:58Z</time>
      </trkpt>
      <trkpt lat="48.29331" lon="2.59509">
        <ele>84.189995</ele>
        <time>2010-08-28T13:19:03Z</time>
      </trkpt>
      <trkpt lat="48.29331" lon="2.59509">
        <ele>84.189995</ele>
        <time>2010-08-28T13:19:08Z</time>
      </trkpt>
      <trkpt lat="48.29331" lon="2.59509">
        <ele>84.189995</ele>
        <time>2010-08-28T13:19:13Z</time>
      </trkpt>
      <trkpt lat="48.2932" lon="2.59511">
        <ele>82.909996</ele>
        <time>2010-08-28T13:19:18Z</time>
      </trkpt>
      <trkpt lat="48.29315" lon="2.59514">
        <ele>82.080002</ele>
        <time>2010-08-28T13:19:23Z</time>
      </trkpt>
      <trkpt lat="48.29312" lon="2.5952">
        <ele>79.080002</ele>
        <time>2010-08-28T13:19:28Z</time>
      </trkpt>
      <trkpt lat="48.2931" lon="2.59522">
        <ele>76.659996</ele>
        <time>2010-08-28T13:19:33Z</time>
      </trkpt>
      <trkpt lat="48.29311" lon="2.59526">
        <ele>74.619995</ele>
        <time>2010-08-28T13:19:38Z</time>
      </trkpt>
      <trkpt lat="48.29311" lon="2.59526">
        <ele>74.619995</ele>
        <time>2010-08-28T13:19:43Z</time>
      </trkpt>
      <trkpt lat="48.29305" lon="2.59535">
        <ele>69.220001</ele>
        <time>2010-08-28T13:19:48Z</time>
      </trkpt>
      <trkpt lat="48.29301" lon="2.59539">
        <ele>69.080002</ele>
        <time>2010-08-28T13:19:53Z</time>
      </trkpt>
      <trkpt lat="48.29297" lon="2.59546">
        <ele>68.610001</ele>
        <time>2010-08-28T13:19:58Z</time>
      </trkpt>
      <trkpt lat="48.29293" lon="2.59558">
        <ele>68.760002</ele>
        <time>2010-08-28T13:20:03Z</time>
      </trkpt>
      <trkpt lat="48.2929" lon="2.59564">
        <ele>71.519997</ele>
        <time>2010-08-28T13:20:08Z</time>
      </trkpt>
      <trkpt lat="48.2929" lon="2.59564">
        <ele>71.519997</ele>
        <time>2010-08-28T13:20:12Z</time>
      </trkpt>
      <trkpt lat="48.29291" lon="2.59556">
        <ele>69.779999</ele>
        <time>2010-08-28T13:20:18Z</time>
      </trkpt>
      <trkpt lat="48.29295" lon="2.59548">
        <ele>68.199997</ele>
        <time>2010-08-28T13:20:23Z</time>
      </trkpt>
      <trkpt lat="48.2929" lon="2.59545">
        <ele>67.860001</ele>
        <time>2010-08-28T13:20:28Z</time>
      </trkpt>
      <trkpt lat="48.29289" lon="2.59541">
        <ele>67.879997</ele>
        <time>2010-08-28T13:20:33Z</time>
      </trkpt>
      <trkpt lat="48.29283" lon="2.59532">
        <ele>65.169998</ele>
        <time>2010-08-28T13:20:38Z</time>
      </trkpt>
      <trkpt lat="48.2928" lon="2.59526">
        <ele>65.669998</ele>
        <time>2010-08-28T13:20:43Z</time>
      </trkpt>
      <trkpt lat="48.29271" lon="2.59526">
        <ele>63.489998</ele>
        <time>2010-08-28T13:20:48Z</time>
      </trkpt>
      <trkpt lat="48.29269" lon="2.59527">
        <ele>64.439995</ele>
        <time>2010-08-28T13:20:53Z</time>
      </trkpt>
      <trkpt lat="48.29269" lon="2.59527">
        <ele>64.439995</ele>
        <time>2010-08-28T13:20:58Z</time>
      </trkpt>
      <trkpt lat="48.29269" lon="2.59527">
        <ele>64.439995</ele>
        <time>2010-08-28T13:21:03Z</time>
      </trkpt>
      <trkpt lat="48.2926" lon="2.59526">
        <ele>62.039997</ele>
        <time>2010-08-28T13:21:08Z</time>
      </trkpt>
      <trkpt lat="48.29254" lon="2.59529">
        <ele>62.129997</ele>
        <time>2010-08-28T13:21:13Z</time>
      </trkpt>
      <trkpt lat="48.29249" lon="2.59526">
        <ele>59.439999</ele>
        <time>2010-08-28T13:21:18Z</time>
      </trkpt>
      <trkpt lat="48.29254" lon="2.59519">
        <ele>65.279999</ele>
        <time>2010-08-28T13:21:23Z</time>
      </trkpt>
      <trkpt lat="48.29255" lon="2.59524">
        <ele>76.229996</ele>
        <time>2010-08-28T13:21:28Z</time>
      </trkpt>
      <trkpt lat="48.29252" lon="2.59527">
        <ele>81.07</ele>
        <time>2010-08-28T13:21:33Z</time>
      </trkpt>
      <trkpt lat="48.29252" lon="2.59527">
        <ele>81.07</ele>
        <time>2010-08-28T13:21:38Z</time>
      </trkpt>
      <trkpt lat="48.29252" lon="2.59527">
        <ele>81.07</ele>
        <time>2010-08-28T13:21:43Z</time>
      </trkpt>
      <trkpt lat="48.29245" lon="2.59518">
        <ele>83.059998</ele>
        <time>2010-08-28T13:21:48Z</time>
      </trkpt>
      <trkpt lat="48.29237" lon="2.59515">
        <ele>82.970001</ele>
        <time>2010-08-28T13:21:53Z</time>
      </trkpt>
      <trkpt lat="48.2923" lon="2.59521">
        <ele>82.369995</ele>
        <time>2010-08-28T13:21:58Z</time>
      </trkpt>
      <trkpt lat="48.29224" lon="2.59526">
        <ele>81.769997</ele>
        <time>2010-08-28T13:22:03Z</time>
      </trkpt>
      <trkpt lat="48.29216" lon="2.59518">
        <ele>73.729996</ele>
        <time>2010-08-28T13:22:08Z</time>
      </trkpt>
      <trkpt lat="48.29213" lon="2.59522">
        <ele>74.949997</ele>
        <time>2010-08-28T13:22:13Z</time>
      </trkpt>
      <trkpt lat="48.29213" lon="2.59522">
        <ele>74.949997</ele>
        <time>2010-08-28T13:22:18Z</time>
      </trkpt>
      <trkpt lat="48.29213" lon="2.59522">
        <ele>74.949997</ele>
        <time>2010-08-28T13:22:23Z</time>
      </trkpt>
      <trkpt lat="48.29224" lon="2.59516">
        <ele>90.259995</ele>
        <time>2010-08-28T13:22:28Z</time>
      </trkpt>
      <trkpt lat="48.29223" lon="2.59519">
        <ele>90.040001</ele>
        <time>2010-08-28T13:22:33Z</time>
      </trkpt>
      <trkpt lat="48.29223" lon="2.59519">
        <ele>90.040001</ele>
        <time>2010-08-28T13:22:38Z</time>
      </trkpt>
      <trkpt lat="48.29213" lon="2.59528">
        <ele>99.989998</ele>
        <time>2010-08-28T13:22:43Z</time>
      </trkpt>
      <trkpt lat="48.2921" lon="2.59527">
        <ele>101.360001</ele>
        <time>2010-08-28T13:22:47Z</time>
      </trkpt>
      <trkpt lat="48.29197" lon="2.59526">
        <ele>97.689995</ele>
        <time>2010-08-28T13:22:52Z</time>
      </trkpt>
      <trkpt lat="48.29194" lon="2.5953">
        <ele>99.400002</ele>
        <time>2010-08-28T13:22:57Z</time>
      </trkpt>
      <trkpt lat="48.29194" lon="2.5953">
        <ele>99.400002</ele>
        <time>2010-08-28T13:23:02Z</time>
      </trkpt>
      <trkpt lat="48.29182" lon="2.59519">
        <ele>92.329994</ele>
        <time>2010-08-28T13:23:07Z</time>
      </trkpt>
      <trkpt lat="48.29177" lon="2.59514">
        <ele>91.629997</ele>
        <time>2010-08-28T13:23:12Z</time>
      </trkpt>
      <trkpt lat="48.29173" lon="2.59513">
        <ele>90.269997</ele>
        <time>2010-08-28T13:23:17Z</time>
      </trkpt>
      <trkpt lat="48.29168" lon="2.59511">
        <ele>88.049995</ele>
        <time>2010-08-28T13:23:22Z</time>
      </trkpt>
      <trkpt lat="48.29168" lon="2.59508">
        <ele>94.279999</ele>
        <time>2010-08-28T13:23:27Z</time>
      </trkpt>
      <trkpt lat="48.29168" lon="2.59508">
        <ele>94.279999</ele>
        <time>2010-08-28T13:23:32Z</time>
      </trkpt>
      <trkpt lat="48.29168" lon="2.59508">
        <ele>94.279999</ele>
        <time>2010-08-28T13:23:37Z</time>
      </trkpt>
      <trkpt lat="48.29168" lon="2.59508">
        <ele>94.279999</ele>
        <time>2010-08-28T13:23:42Z</time>
      </trkpt>
      <trkpt lat="48.29168" lon="2.59508">
        <ele>94.279999</ele>
        <time>2010-08-28T13:23:47Z</time>
      </trkpt>
      <trkpt lat="48.29168" lon="2.59508">
        <ele>94.279999</ele>
        <time>2010-08-28T13:23:52Z</time>
      </trkpt>
      <trkpt lat="48.29168" lon="2.59508">
        <ele>94.279999</ele>
        <time>2010-08-28T13:23:57Z</time>
      </trkpt>
      <trkpt lat="48.29168" lon="2.59508">
        <ele>94.279999</ele>
        <time>2010-08-28T13:24:02Z</time>
      </trkpt>
      <trkpt lat="48.29168" lon="2.59508">
        <ele>94.279999</ele>
        <time>2010-08-28T13:24:07Z</time>
      </trkpt>
      <trkpt lat="48.29168" lon="2.59508">
        <ele>94.279999</ele>
        <time>2010-08-28T13:24:12Z</time>
      </trkpt>
      <trkpt lat="48.29168" lon="2.59508">
        <ele>94.279999</ele>
        <time>2010-08-28T13:24:17Z</time>
      </trkpt>
      <trkpt lat="48.29168" lon="2.59508">
        <ele>94.279999</ele>
        <time>2010-08-28T13:24:22Z</time>
      </trkpt>
      <trkpt lat="48.29168" lon="2.59508">
        <ele>94.279999</ele>
        <time>2010-08-28T13:24:27Z</time>
      </trkpt>
      <trkpt lat="48.29168" lon="2.59508">
        <ele>94.279999</ele>
        <time>2010-08-28T13:24:32Z</time>
      </trkpt>
      <trkpt lat="48.29168" lon="2.59508">
        <ele>94.279999</ele>
        <time>2010-08-28T13:24:37Z</time>
      </trkpt>
      <trkpt lat="48.29135" lon="2.59463">
        <ele>107.139999</ele>
        <time>2010-08-28T13:24:42Z</time>
      </trkpt>
      <trkpt lat="48.29131" lon="2.59461">
        <ele>107.689995</ele>
        <time>2010-08-28T13:24:47Z</time>
      </trkpt>
      <trkpt lat="48.29126" lon="2.5946">
        <ele>108.009995</ele>
        <time>2010-08-28T13:24:51Z</time>
      </trkpt>
      <trkpt lat="48.29124" lon="2.59456">
        <ele>108.009995</ele>
        <time>2010-08-28T13:24:57Z</time>
      </trkpt>
      <trkpt lat="48.29121" lon="2.59454">
        <ele>106.829994</ele>
        <time>2010-08-28T13:25:02Z</time>
      </trkpt>
      <trkpt lat="48.29119" lon="2.59442">
        <ele>105.549995</ele>
        <time>2010-08-28T13:25:07Z</time>
      </trkpt>
      <trkpt lat="48.29118" lon="2.59439">
        <ele>105.739998</ele>
        <time>2010-08-28T13:25:12Z</time>
      </trkpt>
      <trkpt lat="48.29118" lon="2.59439">
        <ele>105.739998</ele>
        <time>2010-08-28T13:25:17Z</time>
      </trkpt>
      <trkpt lat="48.29118" lon="2.59439">
        <ele>105.739998</ele>
        <time>2010-08-28T13:25:22Z</time>
      </trkpt>
      <trkpt lat="48.29118" lon="2.59439">
        <ele>105.739998</ele>
        <time>2010-08-28T13:25:27Z</time>
      </trkpt>
      <trkpt lat="48.29102" lon="2.59427">
        <ele>119.369995</ele>
        <time>2010-08-28T13:25:32Z</time>
      </trkpt>
      <trkpt lat="48.29099" lon="2.59427">
        <ele>121.459999</ele>
        <time>2010-08-28T13:25:37Z</time>
      </trkpt>
      <trkpt lat="48.29093" lon="2.59425">
        <ele>119.989998</ele>
        <time>2010-08-28T13:25:42Z</time>
      </trkpt>
      <trkpt lat="48.29089" lon="2.59416">
        <ele>120.489998</ele>
        <time>2010-08-28T13:25:47Z</time>
      </trkpt>
      <trkpt lat="48.29084" lon="2.59397">
        <ele>108.93</ele>
        <time>2010-08-28T13:25:52Z</time>
      </trkpt>
      <trkpt lat="48.29084" lon="2.59395">
        <ele>110.269997</ele>
        <time>2010-08-28T13:25:57Z</time>
      </trkpt>
      <trkpt lat="48.29084" lon="2.59395">
        <ele>110.269997</ele>
        <time>2010-08-28T13:26:02Z</time>
      </trkpt>
      <trkpt lat="48.29084" lon="2.59395">
        <ele>110.269997</ele>
        <time>2010-08-28T13:26:07Z</time>
      </trkpt>
      <trkpt lat="48.29072" lon="2.59381">
        <ele>116.219994</ele>
        <time>2010-08-28T13:26:12Z</time>
      </trkpt>
      <trkpt lat="48.2907" lon="2.59374">
        <ele>117.599998</ele>
        <time>2010-08-28T13:26:17Z</time>
      </trkpt>
      <trkpt lat="48.29068" lon="2.59367">
        <ele>118.540001</ele>
        <time>2010-08-28T13:26:22Z</time>
      </trkpt>
      <trkpt lat="48.29067" lon="2.59364">
        <ele>118.689995</ele>
        <time>2010-08-28T13:26:26Z</time>
      </trkpt>
      <trkpt lat="48.29067" lon="2.59364">
        <ele>118.689995</ele>
        <time>2010-08-28T13:26:32Z</time>
      </trkpt>
      <trkpt lat="48.29067" lon="2.59364">
        <ele>118.689995</ele>
        <time>2010-08-28T13:26:37Z</time>
      </trkpt>
      <trkpt lat="48.29067" lon="2.59364">
        <ele>118.689995</ele>
        <time>2010-08-28T13:26:42Z</time>
      </trkpt>
      <trkpt lat="48.29062" lon="2.5932">
        <ele>113.040001</ele>
        <time>2010-08-28T13:26:47Z</time>
      </trkpt>
      <trkpt lat="48.29059" lon="2.59313">
        <ele>113.099998</ele>
        <time>2010-08-28T13:26:52Z</time>
      </trkpt>
      <trkpt lat="48.29057" lon="2.59308">
        <ele>111.769997</ele>
        <time>2010-08-28T13:26:56Z</time>
      </trkpt>
      <trkpt lat="48.29053" lon="2.59305">
        <ele>111.729996</ele>
        <time>2010-08-28T13:27:02Z</time>
      </trkpt>
      <trkpt lat="48.2905" lon="2.59301">
        <ele>110.75</ele>
        <time>2010-08-28T13:27:07Z</time>
      </trkpt>
      <trkpt lat="48.29048" lon="2.59298">
        <ele>112.979996</ele>
        <time>2010-08-28T13:27:12Z</time>
      </trkpt>
      <trkpt lat="48.29046" lon="2.59299">
        <ele>113.869995</ele>
        <time>2010-08-28T13:27:17Z</time>
      </trkpt>
      <trkpt lat="48.29046" lon="2.59299">
        <ele>113.869995</ele>
        <time>2010-08-28T13:27:22Z</time>
      </trkpt>
      <trkpt lat="48.29046" lon="2.59299">
        <ele>113.869995</ele>
        <time>2010-08-28T13:27:27Z</time>
      </trkpt>
      <trkpt lat="48.29046" lon="2.59299">
        <ele>113.869995</ele>
        <time>2010-08-28T13:27:32Z</time>
      </trkpt>
      <trkpt lat="48.29034" lon="2.59277">
        <ele>118.779999</ele>
        <time>2010-08-28T13:27:37Z</time>
      </trkpt>
      <trkpt lat="48.29039" lon="2.59272">
        <ele>119.089996</ele>
        <time>2010-08-28T13:27:42Z</time>
      </trkpt>
      <trkpt lat="48.29039" lon="2.59272">
        <ele>119.379997</ele>
        <time>2010-08-28T13:27:47Z</time>
      </trkpt>
      <trkpt lat="48.29039" lon="2.59272">
        <ele>119.379997</ele>
        <time>2010-08-28T13:27:52Z</time>
      </trkpt>
      <trkpt lat="48.29039" lon="2.59272">
        <ele>119.379997</ele>
        <time>2010-08-28T13:27:56Z</time>
      </trkpt>
      <trkpt lat="48.29039" lon="2.59272">
        <ele>119.379997</ele>
        <time>2010-08-28T13:28:01Z</time>
      </trkpt>
      <trkpt lat="48.29039" lon="2.59272">
        <ele>119.379997</ele>
        <time>2010-08-28T13:28:06Z</time>
      </trkpt>
      <trkpt lat="48.29017" lon="2.59268">
        <ele>116.159996</ele>
        <time>2010-08-28T13:28:11Z</time>
      </trkpt>
      <trkpt lat="48.29011" lon="2.59261">
        <ele>114.339996</ele>
        <time>2010-08-28T13:28:16Z</time>
      </trkpt>
      <trkpt lat="48.29008" lon="2.59256">
        <ele>112.610001</ele>
        <time>2010-08-28T13:28:21Z</time>
      </trkpt>
      <trkpt lat="48.29003" lon="2.59251">
        <ele>111.43</ele>
        <time>2010-08-28T13:28:26Z</time>
      </trkpt>
      <trkpt lat="48.29" lon="2.59243">
        <ele>110.049995</ele>
        <time>2010-08-28T13:28:31Z</time>
      </trkpt>
      <trkpt lat="48.28999" lon="2.59236">
        <ele>110.610001</ele>
        <time>2010-08-28T13:28:36Z</time>
      </trkpt>
      <trkpt lat="48.29001" lon="2.59228">
        <ele>113.709999</ele>
        <time>2010-08-28T13:28:41Z</time>
      </trkpt>
      <trkpt lat="48.29002" lon="2.59219">
        <ele>115.439995</ele>
        <time>2010-08-28T13:28:46Z</time>
      </trkpt>
      <trkpt lat="48.29002" lon="2.5921">
        <ele>116.389999</ele>
        <time>2010-08-28T13:28:51Z</time>
      </trkpt>
      <trkpt lat="48.28999" lon="2.59203">
        <ele>117.019997</ele>
        <time>2010-08-28T13:28:56Z</time>
      </trkpt>
      <trkpt lat="48.28999" lon="2.59195">
        <ele>118.040001</ele>
        <time>2010-08-28T13:29:01Z</time>
      </trkpt>
      <trkpt lat="48.28999" lon="2.59186">
        <ele>118.189995</ele>
        <time>2010-08-28T13:29:06Z</time>
      </trkpt>
      <trkpt lat="48.28998" lon="2.59178">
        <ele>118.199997</ele>
        <time>2010-08-28T13:29:11Z</time>
      </trkpt>
      <trkpt lat="48.28996" lon="2.59167">
        <ele>116.479996</ele>
        <time>2010-08-28T13:29:16Z</time>
      </trkpt>
      <trkpt lat="48.28996" lon="2.59159">
        <ele>115.68</ele>
        <time>2010-08-28T13:29:21Z</time>
      </trkpt>
      <trkpt lat="48.28995" lon="2.59155">
        <ele>115.93</ele>
        <time>2010-08-28T13:29:26Z</time>
      </trkpt>
      <trkpt lat="48.28987" lon="2.59146">
        <ele>117.949997</ele>
        <time>2010-08-28T13:29:31Z</time>
      </trkpt>
      <trkpt lat="48.28983" lon="2.59139">
        <ele>119.919998</ele>
        <time>2010-08-28T13:29:36Z</time>
      </trkpt>
      <trkpt lat="48.2898" lon="2.59133">
        <ele>120.159996</ele>
        <time>2010-08-28T13:29:41Z</time>
      </trkpt>
      <trkpt lat="48.28975" lon="2.59128">
        <ele>121.519997</ele>
        <time>2010-08-28T13:29:46Z</time>
      </trkpt>
      <trkpt lat="48.2897" lon="2.59121">
        <ele>121.269997</ele>
        <time>2010-08-28T13:29:51Z</time>
      </trkpt>
      <trkpt lat="48.28964" lon="2.59113">
        <ele>120.149994</ele>
        <time>2010-08-28T13:29:56Z</time>
      </trkpt>
      <trkpt lat="48.28959" lon="2.59111">
        <ele>119.119995</ele>
        <time>2010-08-28T13:30:01Z</time>
      </trkpt>
      <trkpt lat="48.28955" lon="2.59114">
        <ele>115.809998</ele>
        <time>2010-08-28T13:30:06Z</time>
      </trkpt>
      <trkpt lat="48.28952" lon="2.59123">
        <ele>115</ele>
        <time>2010-08-28T13:30:11Z</time>
      </trkpt>
      <trkpt lat="48.28954" lon="2.59129">
        <ele>114.839996</ele>
        <time>2010-08-28T13:30:16Z</time>
      </trkpt>
      <trkpt lat="48.28952" lon="2.59137">
        <ele>113.889999</ele>
        <time>2010-08-28T13:30:21Z</time>
      </trkpt>
      <trkpt lat="48.28952" lon="2.59145">
        <ele>112.629997</ele>
        <time>2010-08-28T13:30:26Z</time>
      </trkpt>
      <trkpt lat="48.28949" lon="2.59153">
        <ele>111.829994</ele>
        <time>2010-08-28T13:30:31Z</time>
      </trkpt>
      <trkpt lat="48.28948" lon="2.59163">
        <ele>114.139999</ele>
        <time>2010-08-28T13:30:36Z</time>
      </trkpt>
      <trkpt lat="48.28946" lon="2.59169">
        <ele>113.439995</ele>
        <time>2010-08-28T13:30:41Z</time>
      </trkpt>
      <trkpt lat="48.28943" lon="2.59177">
        <ele>113.339996</ele>
        <time>2010-08-28T13:30:46Z</time>
      </trkpt>
      <trkpt lat="48.2894" lon="2.59185">
        <ele>113.589996</ele>
        <time>2010-08-28T13:30:51Z</time>
      </trkpt>
      <trkpt lat="48.28939" lon="2.59192">
        <ele>114.759995</ele>
        <time>2010-08-28T13:30:56Z</time>
      </trkpt>
      <trkpt lat="48.2894" lon="2.59193">
        <ele>115.019997</ele>
        <time>2010-08-28T13:31:00Z</time>
      </trkpt>
      <trkpt lat="48.28932" lon="2.59203">
        <ele>110.029999</ele>
        <time>2010-08-28T13:31:05Z</time>
      </trkpt>
      <trkpt lat="48.28922" lon="2.59212">
        <ele>105.959999</ele>
        <time>2010-08-28T13:31:11Z</time>
      </trkpt>
      <trkpt lat="48.28917" lon="2.5922">
        <ele>104.509995</ele>
        <time>2010-08-28T13:31:16Z</time>
      </trkpt>
      <trkpt lat="48.28915" lon="2.59228">
        <ele>106.419998</ele>
        <time>2010-08-28T13:31:20Z</time>
      </trkpt>
      <trkpt lat="48.28909" lon="2.59236">
        <ele>106.439995</ele>
        <time>2010-08-28T13:31:26Z</time>
      </trkpt>
      <trkpt lat="48.28907" lon="2.59245">
        <ele>105.009995</ele>
        <time>2010-08-28T13:31:31Z</time>
      </trkpt>
      <trkpt lat="48.28904" lon="2.59254">
        <ele>102.540001</ele>
        <time>2010-08-28T13:31:35Z</time>
      </trkpt>
      <trkpt lat="48.28905" lon="2.59264">
        <ele>102.309998</ele>
        <time>2010-08-28T13:31:40Z</time>
      </trkpt>
      <trkpt lat="48.28907" lon="2.59275">
        <ele>101.629997</ele>
        <time>2010-08-28T13:31:45Z</time>
      </trkpt>
      <trkpt lat="48.28903" lon="2.59283">
        <ele>101.059998</ele>
        <time>2010-08-28T13:31:51Z</time>
      </trkpt>
      <trkpt lat="48.28904" lon="2.5929">
        <ele>102.159996</ele>
        <time>2010-08-28T13:31:56Z</time>
      </trkpt>
      <trkpt lat="48.28903" lon="2.59291">
        <ele>102.709999</ele>
        <time>2010-08-28T13:32:00Z</time>
      </trkpt>
      <trkpt lat="48.28903" lon="2.59291">
        <ele>102.709999</ele>
        <time>2010-08-28T13:32:06Z</time>
      </trkpt>
      <trkpt lat="48.28893" lon="2.59305">
        <ele>92.729996</ele>
        <time>2010-08-28T13:32:10Z</time>
      </trkpt>
      <trkpt lat="48.28892" lon="2.59309">
        <ele>91.449997</ele>
        <time>2010-08-28T13:32:16Z</time>
      </trkpt>
      <trkpt lat="48.28892" lon="2.59309">
        <ele>91.449997</ele>
        <time>2010-08-28T13:32:20Z</time>
      </trkpt>
      <trkpt lat="48.28892" lon="2.59309">
        <ele>91.449997</ele>
        <time>2010-08-28T13:32:26Z</time>
      </trkpt>
      <trkpt lat="48.28894" lon="2.59313">
        <ele>86.830002</ele>
        <time>2010-08-28T13:32:31Z</time>
      </trkpt>
      <trkpt lat="48.28896" lon="2.59314">
        <ele>88.489998</ele>
        <time>2010-08-28T13:32:36Z</time>
      </trkpt>
      <trkpt lat="48.28896" lon="2.59314">
        <ele>88.489998</ele>
        <time>2010-08-28T13:32:41Z</time>
      </trkpt>
      <trkpt lat="48.28896" lon="2.59314">
        <ele>88.489998</ele>
        <time>2010-08-28T13:32:46Z</time>
      </trkpt>
      <trkpt lat="48.28892" lon="2.5932">
        <ele>86.299995</ele>
        <time>2010-08-28T13:32:51Z</time>
      </trkpt>
      <trkpt lat="48.28891" lon="2.59321">
        <ele>85.879997</ele>
        <time>2010-08-28T13:32:56Z</time>
      </trkpt>
      <trkpt lat="48.28891" lon="2.59321">
        <ele>85.879997</ele>
        <time>2010-08-28T13:33:01Z</time>
      </trkpt>
      <trkpt lat="48.28891" lon="2.59321">
        <ele>85.879997</ele>
        <time>2010-08-28T13:33:06Z</time>
      </trkpt>
      <trkpt lat="48.28891" lon="2.59321">
        <ele>85.879997</ele>
        <time>2010-08-28T13:33:11Z</time>
      </trkpt>
      <trkpt lat="48.28891" lon="2.59321">
        <ele>85.879997</ele>
        <time>2010-08-28T13:33:15Z</time>
      </trkpt>
      <trkpt lat="48.28891" lon="2.59321">
        <ele>85.879997</ele>
        <time>2010-08-28T13:33:21Z</time>
      </trkpt>
      <trkpt lat="48.28891" lon="2.59321">
        <ele>85.879997</ele>
        <time>2010-08-28T13:33:26Z</time>
      </trkpt>
      <trkpt lat="48.28886" lon="2.59333">
        <ele>93.619995</ele>
        <time>2010-08-28T13:33:31Z</time>
      </trkpt>
      <trkpt lat="48.28886" lon="2.59334">
        <ele>92.629997</ele>
        <time>2010-08-28T13:33:35Z</time>
      </trkpt>
      <trkpt lat="48.28886" lon="2.59334">
        <ele>92.629997</ele>
        <time>2010-08-28T13:33:40Z</time>
      </trkpt>
      <trkpt lat="48.28886" lon="2.59334">
        <ele>92.629997</ele>
        <time>2010-08-28T13:33:45Z</time>
      </trkpt>
      <trkpt lat="48.28886" lon="2.59334">
        <ele>92.629997</ele>
        <time>2010-08-28T13:33:50Z</time>
      </trkpt>
      <trkpt lat="48.28886" lon="2.59334">
        <ele>92.629997</ele>
        <time>2010-08-28T13:33:54Z</time>
      </trkpt>
      <trkpt lat="48.28886" lon="2.59334">
        <ele>92.629997</ele>
        <time>2010-08-28T13:34:00Z</time>
      </trkpt>
      <trkpt lat="48.28886" lon="2.59334">
        <ele>92.629997</ele>
        <time>2010-08-28T13:34:05Z</time>
      </trkpt>
      <trkpt lat="48.28886" lon="2.59334">
        <ele>92.629997</ele>
        <time>2010-08-28T13:34:10Z</time>
      </trkpt>
      <trkpt lat="48.28886" lon="2.59334">
        <ele>92.629997</ele>
        <time>2010-08-28T13:34:15Z</time>
      </trkpt>
      <trkpt lat="48.28886" lon="2.59334">
        <ele>92.629997</ele>
        <time>2010-08-28T13:34:20Z</time>
      </trkpt>
      <trkpt lat="48.28886" lon="2.59334">
        <ele>92.629997</ele>
        <time>2010-08-28T13:34:25Z</time>
      </trkpt>
      <trkpt lat="48.28886" lon="2.59334">
        <ele>92.629997</ele>
        <time>2010-08-28T13:34:30Z</time>
      </trkpt>
      <trkpt lat="48.28886" lon="2.59334">
        <ele>92.629997</ele>
        <time>2010-08-28T13:34:34Z</time>
      </trkpt>
      <trkpt lat="48.28886" lon="2.59334">
        <ele>92.629997</ele>
        <time>2010-08-28T13:34:39Z</time>
      </trkpt>
      <trkpt lat="48.28886" lon="2.59334">
        <ele>92.629997</ele>
        <time>2010-08-28T13:34:45Z</time>
      </trkpt>
      <trkpt lat="48.28886" lon="2.59334">
        <ele>92.629997</ele>
        <time>2010-08-28T13:34:50Z</time>
      </trkpt>
      <trkpt lat="48.28886" lon="2.59334">
        <ele>92.629997</ele>
        <time>2010-08-28T13:34:55Z</time>
      </trkpt>
      <trkpt lat="48.28886" lon="2.59334">
        <ele>92.629997</ele>
        <time>2010-08-28T13:35:00Z</time>
      </trkpt>
      <trkpt lat="48.28886" lon="2.59334">
        <ele>92.629997</ele>
        <time>2010-08-28T13:35:05Z</time>
      </trkpt>
      <trkpt lat="48.28888" lon="2.59303">
        <ele>95.519997</ele>
        <time>2010-08-28T13:35:10Z</time>
      </trkpt>
      <trkpt lat="48.28885" lon="2.59295">
        <ele>94.199997</ele>
        <time>2010-08-28T13:35:15Z</time>
      </trkpt>
      <trkpt lat="48.28882" lon="2.59289">
        <ele>92.5</ele>
        <time>2010-08-28T13:35:20Z</time>
      </trkpt>
      <trkpt lat="48.28882" lon="2.59289">
        <ele>92.5</ele>
        <time>2010-08-28T13:35:25Z</time>
      </trkpt>
      <trkpt lat="48.28882" lon="2.59289">
        <ele>92.5</ele>
        <time>2010-08-28T13:35:30Z</time>
      </trkpt>
      <trkpt lat="48.28882" lon="2.59289">
        <ele>92.5</ele>
        <time>2010-08-28T13:35:35Z</time>
      </trkpt>
      <trkpt lat="48.28882" lon="2.59289">
        <ele>92.5</ele>
        <time>2010-08-28T13:35:40Z</time>
      </trkpt>
      <trkpt lat="48.2888" lon="2.59271">
        <ele>91.129997</ele>
        <time>2010-08-28T13:35:45Z</time>
      </trkpt>
      <trkpt lat="48.2888" lon="2.59271">
        <ele>91.129997</ele>
        <time>2010-08-28T13:35:50Z</time>
      </trkpt>
      <trkpt lat="48.2888" lon="2.59271">
        <ele>91.129997</ele>
        <time>2010-08-28T13:35:55Z</time>
      </trkpt>
      <trkpt lat="48.2888" lon="2.59271">
        <ele>91.129997</ele>
        <time>2010-08-28T13:36:00Z</time>
      </trkpt>
      <trkpt lat="48.28893" lon="2.59263">
        <ele>89.089996</ele>
        <time>2010-08-28T13:36:05Z</time>
      </trkpt>
      <trkpt lat="48.28893" lon="2.59262">
        <ele>88.470001</ele>
        <time>2010-08-28T13:36:10Z</time>
      </trkpt>
      <trkpt lat="48.28893" lon="2.59262">
        <ele>88.470001</ele>
        <time>2010-08-28T13:36:15Z</time>
      </trkpt>
      <trkpt lat="48.28893" lon="2.59262">
        <ele>88.470001</ele>
        <time>2010-08-28T13:36:20Z</time>
      </trkpt>
      <trkpt lat="48.28893" lon="2.59262">
        <ele>88.470001</ele>
        <time>2010-08-28T13:36:25Z</time>
      </trkpt>
      <trkpt lat="48.28893" lon="2.59262">
        <ele>88.470001</ele>
        <time>2010-08-28T13:36:30Z</time>
      </trkpt>
      <trkpt lat="48.28893" lon="2.59262">
        <ele>88.470001</ele>
        <time>2010-08-28T13:36:35Z</time>
      </trkpt>
      <trkpt lat="48.28893" lon="2.59262">
        <ele>88.470001</ele>
        <time>2010-08-28T13:36:40Z</time>
      </trkpt>
      <trkpt lat="48.28893" lon="2.59262">
        <ele>88.470001</ele>
        <time>2010-08-28T13:36:45Z</time>
      </trkpt>
      <trkpt lat="48.28895" lon="2.59242">
        <ele>80.18</ele>
        <time>2010-08-28T13:36:50Z</time>
      </trkpt>
      <trkpt lat="48.28897" lon="2.59239">
        <ele>80.900002</ele>
        <time>2010-08-28T13:36:55Z</time>
      </trkpt>
      <trkpt lat="48.28897" lon="2.59239">
        <ele>80.900002</ele>
        <time>2010-08-28T13:36:59Z</time>
      </trkpt>
      <trkpt lat="48.289" lon="2.59226">
        <ele>84.689995</ele>
        <time>2010-08-28T13:37:04Z</time>
      </trkpt>
      <trkpt lat="48.28904" lon="2.59227">
        <ele>87.049995</ele>
        <time>2010-08-28T13:37:10Z</time>
      </trkpt>
      <trkpt lat="48.28905" lon="2.59227">
        <ele>87.869995</ele>
        <time>2010-08-28T13:37:15Z</time>
      </trkpt>
      <trkpt lat="48.28905" lon="2.59227">
        <ele>87.869995</ele>
        <time>2010-08-28T13:37:20Z</time>
      </trkpt>
      <trkpt lat="48.28905" lon="2.59227">
        <ele>87.869995</ele>
        <time>2010-08-28T13:37:25Z</time>
      </trkpt>
      <trkpt lat="48.28905" lon="2.59219">
        <ele>87.439995</ele>
        <time>2010-08-28T13:37:29Z</time>
      </trkpt>
      <trkpt lat="48.28906" lon="2.59215">
        <ele>87.229996</ele>
        <time>2010-08-28T13:37:34Z</time>
      </trkpt>
      <trkpt lat="48.28909" lon="2.59205">
        <ele>88.449997</ele>
        <time>2010-08-28T13:37:39Z</time>
      </trkpt>
      <trkpt lat="48.28909" lon="2.59204">
        <ele>88.239998</ele>
        <time>2010-08-28T13:37:44Z</time>
      </trkpt>
      <trkpt lat="48.28917" lon="2.59189">
        <ele>87.919998</ele>
        <time>2010-08-28T13:37:49Z</time>
      </trkpt>
      <trkpt lat="48.28918" lon="2.59179">
        <ele>88.290001</ele>
        <time>2010-08-28T13:37:54Z</time>
      </trkpt>
      <trkpt lat="48.28922" lon="2.59172">
        <ele>89.279999</ele>
        <time>2010-08-28T13:38:00Z</time>
      </trkpt>
      <trkpt lat="48.28924" lon="2.59162">
        <ele>88.619995</ele>
        <time>2010-08-28T13:38:04Z</time>
      </trkpt>
      <trkpt lat="48.28925" lon="2.59152">
        <ele>88.150002</ele>
        <time>2010-08-28T13:38:09Z</time>
      </trkpt>
      <trkpt lat="48.2893" lon="2.59144">
        <ele>89.729996</ele>
        <time>2010-08-28T13:38:14Z</time>
      </trkpt>
      <trkpt lat="48.28932" lon="2.59135">
        <ele>89.239998</ele>
        <time>2010-08-28T13:38:20Z</time>
      </trkpt>
      <trkpt lat="48.28934" lon="2.59125">
        <ele>89.309998</ele>
        <time>2010-08-28T13:38:24Z</time>
      </trkpt>
      <trkpt lat="48.28936" lon="2.59116">
        <ele>89.589996</ele>
        <time>2010-08-28T13:38:29Z</time>
      </trkpt>
      <trkpt lat="48.28936" lon="2.59107">
        <ele>88.93</ele>
        <time>2010-08-28T13:38:34Z</time>
      </trkpt>
      <trkpt lat="48.28938" lon="2.59101">
        <ele>88.939995</ele>
        <time>2010-08-28T13:38:40Z</time>
      </trkpt>
      <trkpt lat="48.2894" lon="2.59095">
        <ele>91.459999</ele>
        <time>2010-08-28T13:38:44Z</time>
      </trkpt>
      <trkpt lat="48.28943" lon="2.59092">
        <ele>93.699997</ele>
        <time>2010-08-28T13:38:49Z</time>
      </trkpt>
      <trkpt lat="48.28948" lon="2.59086">
        <ele>94.659996</ele>
        <time>2010-08-28T13:38:54Z</time>
      </trkpt>
      <trkpt lat="48.28955" lon="2.5908">
        <ele>97.290001</ele>
        <time>2010-08-28T13:39:00Z</time>
      </trkpt>
      <trkpt lat="48.28957" lon="2.59073">
        <ele>97.029999</ele>
        <time>2010-08-28T13:39:04Z</time>
      </trkpt>
      <trkpt lat="48.28959" lon="2.59062">
        <ele>95.360001</ele>
        <time>2010-08-28T13:39:09Z</time>
      </trkpt>
      <trkpt lat="48.28959" lon="2.59053">
        <ele>96.299995</ele>
        <time>2010-08-28T13:39:14Z</time>
      </trkpt>
      <trkpt lat="48.28957" lon="2.59042">
        <ele>94.150002</ele>
        <time>2010-08-28T13:39:20Z</time>
      </trkpt>
      <trkpt lat="48.28955" lon="2.59033">
        <ele>92.659996</ele>
        <time>2010-08-28T13:39:25Z</time>
      </trkpt>
      <trkpt lat="48.28952" lon="2.59028">
        <ele>91.049995</ele>
        <time>2010-08-28T13:39:30Z</time>
      </trkpt>
      <trkpt lat="48.28952" lon="2.59028">
        <ele>91.049995</ele>
        <time>2010-08-28T13:39:35Z</time>
      </trkpt>
      <trkpt lat="48.28956" lon="2.59017">
        <ele>90.339996</ele>
        <time>2010-08-28T13:39:40Z</time>
      </trkpt>
      <trkpt lat="48.28958" lon="2.59015">
        <ele>90.099998</ele>
        <time>2010-08-28T13:39:45Z</time>
      </trkpt>
      <trkpt lat="48.28958" lon="2.59015">
        <ele>90.099998</ele>
        <time>2010-08-28T13:39:50Z</time>
      </trkpt>
      <trkpt lat="48.28958" lon="2.59015">
        <ele>90.099998</ele>
        <time>2010-08-28T13:39:55Z</time>
      </trkpt>
      <trkpt lat="48.28958" lon="2.59015">
        <ele>90.099998</ele>
        <time>2010-08-28T13:40:00Z</time>
      </trkpt>
      <trkpt lat="48.28958" lon="2.59015">
        <ele>90.099998</ele>
        <time>2010-08-28T13:40:05Z</time>
      </trkpt>
      <trkpt lat="48.28961" lon="2.59009">
        <ele>87.089996</ele>
        <time>2010-08-28T13:40:10Z</time>
      </trkpt>
      <trkpt lat="48.28963" lon="2.59001">
        <ele>86.419998</ele>
        <time>2010-08-28T13:40:15Z</time>
      </trkpt>
      <trkpt lat="48.28965" lon="2.58999">
        <ele>87.610001</ele>
        <time>2010-08-28T13:40:20Z</time>
      </trkpt>
      <trkpt lat="48.28965" lon="2.58999">
        <ele>87.610001</ele>
        <time>2010-08-28T13:40:25Z</time>
      </trkpt>
      <trkpt lat="48.28965" lon="2.58999">
        <ele>87.610001</ele>
        <time>2010-08-28T13:40:30Z</time>
      </trkpt>
      <trkpt lat="48.28977" lon="2.58994">
        <ele>92.579994</ele>
        <time>2010-08-28T13:40:35Z</time>
      </trkpt>
      <trkpt lat="48.2898" lon="2.5899">
        <ele>91.599998</ele>
        <time>2010-08-28T13:40:40Z</time>
      </trkpt>
      <trkpt lat="48.28984" lon="2.58984">
        <ele>90.07</ele>
        <time>2010-08-28T13:40:45Z</time>
      </trkpt>
      <trkpt lat="48.28989" lon="2.58979">
        <ele>92.029999</ele>
        <time>2010-08-28T13:40:50Z</time>
      </trkpt>
      <trkpt lat="48.28996" lon="2.58974">
        <ele>94.769997</ele>
        <time>2010-08-28T13:40:55Z</time>
      </trkpt>
      <trkpt lat="48.29001" lon="2.58963">
        <ele>95.470001</ele>
        <time>2010-08-28T13:41:00Z</time>
      </trkpt>
      <trkpt lat="48.28997" lon="2.58954">
        <ele>95.559998</ele>
        <time>2010-08-28T13:41:05Z</time>
      </trkpt>
      <trkpt lat="48.28997" lon="2.58947">
        <ele>97.079994</ele>
        <time>2010-08-28T13:41:10Z</time>
      </trkpt>
      <trkpt lat="48.28997" lon="2.58947">
        <ele>97.079994</ele>
        <time>2010-08-28T13:41:15Z</time>
      </trkpt>
      <trkpt lat="48.2901" lon="2.58946">
        <ele>99.699997</ele>
        <time>2010-08-28T13:41:20Z</time>
      </trkpt>
      <trkpt lat="48.29015" lon="2.5895">
        <ele>101.909996</ele>
        <time>2010-08-28T13:41:25Z</time>
      </trkpt>
      <trkpt lat="48.29019" lon="2.58953">
        <ele>105.379997</ele>
        <time>2010-08-28T13:41:30Z</time>
      </trkpt>
      <trkpt lat="48.29024" lon="2.5896">
        <ele>103.979996</ele>
        <time>2010-08-28T13:41:35Z</time>
      </trkpt>
      <trkpt lat="48.29026" lon="2.58963">
        <ele>100.93</ele>
        <time>2010-08-28T13:41:40Z</time>
      </trkpt>
      <trkpt lat="48.2903" lon="2.5896">
        <ele>99.209999</ele>
        <time>2010-08-28T13:41:45Z</time>
      </trkpt>
      <trkpt lat="48.2903" lon="2.5896">
        <ele>98.909996</ele>
        <time>2010-08-28T13:41:50Z</time>
      </trkpt>
      <trkpt lat="48.29033" lon="2.58965">
        <ele>100.32</ele>
        <time>2010-08-28T13:41:55Z</time>
      </trkpt>
      <trkpt lat="48.29045" lon="2.58961">
        <ele>103.379997</ele>
        <time>2010-08-28T13:42:00Z</time>
      </trkpt>
      <trkpt lat="48.29057" lon="2.58961">
        <ele>102.589996</ele>
        <time>2010-08-28T13:42:05Z</time>
      </trkpt>
      <trkpt lat="48.29064" lon="2.58962">
        <ele>105.199997</ele>
        <time>2010-08-28T13:42:10Z</time>
      </trkpt>
      <trkpt lat="48.29068" lon="2.58964">
        <ele>103.239998</ele>
        <time>2010-08-28T13:42:15Z</time>
      </trkpt>
      <trkpt lat="48.2907" lon="2.58963">
        <ele>104.009995</ele>
        <time>2010-08-28T13:42:20Z</time>
      </trkpt>
      <trkpt lat="48.29071" lon="2.58958">
        <ele>103.809998</ele>
        <time>2010-08-28T13:42:25Z</time>
      </trkpt>
      <trkpt lat="48.29076" lon="2.58958">
        <ele>104.729996</ele>
        <time>2010-08-28T13:42:30Z</time>
      </trkpt>
      <trkpt lat="48.29079" lon="2.58956">
        <ele>103.879997</ele>
        <time>2010-08-28T13:42:35Z</time>
      </trkpt>
      <trkpt lat="48.29086" lon="2.58952">
        <ele>103.769997</ele>
        <time>2010-08-28T13:42:40Z</time>
      </trkpt>
      <trkpt lat="48.29091" lon="2.58953">
        <ele>103.239998</ele>
        <time>2010-08-28T13:42:45Z</time>
      </trkpt>
      <trkpt lat="48.29093" lon="2.58951">
        <ele>103.759995</ele>
        <time>2010-08-28T13:42:50Z</time>
      </trkpt>
      <trkpt lat="48.29096" lon="2.5895">
        <ele>101.869995</ele>
        <time>2010-08-28T13:42:54Z</time>
      </trkpt>
      <trkpt lat="48.29095" lon="2.5895">
        <ele>102.119995</ele>
        <time>2010-08-28T13:42:59Z</time>
      </trkpt>
      <trkpt lat="48.29095" lon="2.5895">
        <ele>102.119995</ele>
        <time>2010-08-28T13:43:04Z</time>
      </trkpt>
      <trkpt lat="48.29095" lon="2.5895">
        <ele>102.119995</ele>
        <time>2010-08-28T13:43:09Z</time>
      </trkpt>
      <trkpt lat="48.29108" lon="2.58958">
        <ele>96.389999</ele>
        <time>2010-08-28T13:43:13Z</time>
      </trkpt>
      <trkpt lat="48.29113" lon="2.58961">
        <ele>93.239998</ele>
        <time>2010-08-28T13:43:18Z</time>
      </trkpt>
      <trkpt lat="48.29113" lon="2.58961">
        <ele>93.239998</ele>
        <time>2010-08-28T13:43:23Z</time>
      </trkpt>
      <trkpt lat="48.29113" lon="2.58961">
        <ele>93.239998</ele>
        <time>2010-08-28T13:43:28Z</time>
      </trkpt>
      <trkpt lat="48.29129" lon="2.58964">
        <ele>95.529999</ele>
        <time>2010-08-28T13:43:33Z</time>
      </trkpt>
      <trkpt lat="48.2913" lon="2.58969">
        <ele>102.309998</ele>
        <time>2010-08-28T13:43:38Z</time>
      </trkpt>
      <trkpt lat="48.29143" lon="2.58967">
        <ele>102.739998</ele>
        <time>2010-08-28T13:43:43Z</time>
      </trkpt>
      <trkpt lat="48.29146" lon="2.58969">
        <ele>99.309998</ele>
        <time>2010-08-28T13:43:48Z</time>
      </trkpt>
      <trkpt lat="48.29146" lon="2.58969">
        <ele>99.309998</ele>
        <time>2010-08-28T13:43:53Z</time>
      </trkpt>
      <trkpt lat="48.29149" lon="2.5896">
        <ele>94.290001</ele>
        <time>2010-08-28T13:43:58Z</time>
      </trkpt>
      <trkpt lat="48.29147" lon="2.5896">
        <ele>95.669998</ele>
        <time>2010-08-28T13:44:03Z</time>
      </trkpt>
      <trkpt lat="48.29147" lon="2.5896">
        <ele>95.669998</ele>
        <time>2010-08-28T13:44:08Z</time>
      </trkpt>
      <trkpt lat="48.29147" lon="2.5896">
        <ele>95.669998</ele>
        <time>2010-08-28T13:44:13Z</time>
      </trkpt>
      <trkpt lat="48.29147" lon="2.5896">
        <ele>95.669998</ele>
        <time>2010-08-28T13:44:18Z</time>
      </trkpt>
      <trkpt lat="48.29147" lon="2.5896">
        <ele>95.669998</ele>
        <time>2010-08-28T13:44:23Z</time>
      </trkpt>
      <trkpt lat="48.29147" lon="2.5896">
        <ele>95.669998</ele>
        <time>2010-08-28T13:44:28Z</time>
      </trkpt>
      <trkpt lat="48.29181" lon="2.58958">
        <ele>98.889999</ele>
        <time>2010-08-28T13:44:33Z</time>
      </trkpt>
      <trkpt lat="48.29183" lon="2.58956">
        <ele>98.82</ele>
        <time>2010-08-28T13:44:38Z</time>
      </trkpt>
      <trkpt lat="48.29183" lon="2.58948">
        <ele>95.659996</ele>
        <time>2010-08-28T13:44:43Z</time>
      </trkpt>
      <trkpt lat="48.29185" lon="2.58938">
        <ele>94.759995</ele>
        <time>2010-08-28T13:44:48Z</time>
      </trkpt>
      <trkpt lat="48.29186" lon="2.58931">
        <ele>94.589996</ele>
        <time>2010-08-28T13:44:53Z</time>
      </trkpt>
      <trkpt lat="48.29183" lon="2.58928">
        <ele>95.650002</ele>
        <time>2010-08-28T13:44:58Z</time>
      </trkpt>
      <trkpt lat="48.29178" lon="2.5892">
        <ele>94.619995</ele>
        <time>2010-08-28T13:45:03Z</time>
      </trkpt>
      <trkpt lat="48.29171" lon="2.58914">
        <ele>92.650002</ele>
        <time>2010-08-28T13:45:08Z</time>
      </trkpt>
      <trkpt lat="48.29166" lon="2.58908">
        <ele>90.779999</ele>
        <time>2010-08-28T13:45:13Z</time>
      </trkpt>
      <trkpt lat="48.29166" lon="2.58908">
        <ele>90.779999</ele>
        <time>2010-08-28T13:45:18Z</time>
      </trkpt>
      <trkpt lat="48.29163" lon="2.58895">
        <ele>86.589996</ele>
        <time>2010-08-28T13:45:23Z</time>
      </trkpt>
      <trkpt lat="48.29165" lon="2.58886">
        <ele>87.290001</ele>
        <time>2010-08-28T13:45:28Z</time>
      </trkpt>
      <trkpt lat="48.29164" lon="2.58879">
        <ele>86.720001</ele>
        <time>2010-08-28T13:45:33Z</time>
      </trkpt>
      <trkpt lat="48.29164" lon="2.58879">
        <ele>86.720001</ele>
        <time>2010-08-28T13:45:38Z</time>
      </trkpt>
      <trkpt lat="48.29164" lon="2.58879">
        <ele>86.720001</ele>
        <time>2010-08-28T13:45:43Z</time>
      </trkpt>
      <trkpt lat="48.29163" lon="2.58859">
        <ele>83.110001</ele>
        <time>2010-08-28T13:45:48Z</time>
      </trkpt>
      <trkpt lat="48.29162" lon="2.58846">
        <ele>80.150002</ele>
        <time>2010-08-28T13:45:53Z</time>
      </trkpt>
      <trkpt lat="48.29159" lon="2.5884">
        <ele>77.729996</ele>
        <time>2010-08-28T13:45:58Z</time>
      </trkpt>
      <trkpt lat="48.29159" lon="2.58834">
        <ele>76.610001</ele>
        <time>2010-08-28T13:46:02Z</time>
      </trkpt>
      <trkpt lat="48.29158" lon="2.5883">
        <ele>75.419998</ele>
        <time>2010-08-28T13:46:08Z</time>
      </trkpt>
      <trkpt lat="48.29158" lon="2.5883">
        <ele>75.419998</ele>
        <time>2010-08-28T13:46:13Z</time>
      </trkpt>
      <trkpt lat="48.29158" lon="2.5883">
        <ele>75.419998</ele>
        <time>2010-08-28T13:46:18Z</time>
      </trkpt>
      <trkpt lat="48.29158" lon="2.5883">
        <ele>75.419998</ele>
        <time>2010-08-28T13:46:23Z</time>
      </trkpt>
      <trkpt lat="48.29158" lon="2.5883">
        <ele>75.419998</ele>
        <time>2010-08-28T13:46:28Z</time>
      </trkpt>
      <trkpt lat="48.29158" lon="2.5883">
        <ele>75.419998</ele>
        <time>2010-08-28T13:46:33Z</time>
      </trkpt>
      <trkpt lat="48.29158" lon="2.5883">
        <ele>75.419998</ele>
        <time>2010-08-28T13:46:38Z</time>
      </trkpt>
      <trkpt lat="48.29136" lon="2.58824">
        <ele>86.519997</ele>
        <time>2010-08-28T13:46:43Z</time>
      </trkpt>
      <trkpt lat="48.29134" lon="2.5882">
        <ele>86.199997</ele>
        <time>2010-08-28T13:46:48Z</time>
      </trkpt>
      <trkpt lat="48.29131" lon="2.58811">
        <ele>84.619995</ele>
        <time>2010-08-28T13:46:53Z</time>
      </trkpt>
      <trkpt lat="48.29132" lon="2.58807">
        <ele>85.089996</ele>
        <time>2010-08-28T13:46:58Z</time>
      </trkpt>
      <trkpt lat="48.29132" lon="2.58807">
        <ele>85.089996</ele>
        <time>2010-08-28T13:47:03Z</time>
      </trkpt>
      <trkpt lat="48.29124" lon="2.58797">
        <ele>81.309998</ele>
        <time>2010-08-28T13:47:08Z</time>
      </trkpt>
      <trkpt lat="48.29121" lon="2.58794">
        <ele>78.970001</ele>
        <time>2010-08-28T13:47:13Z</time>
      </trkpt>
      <trkpt lat="48.29121" lon="2.58794">
        <ele>78.970001</ele>
        <time>2010-08-28T13:47:18Z</time>
      </trkpt>
      <trkpt lat="48.29121" lon="2.58794">
        <ele>78.970001</ele>
        <time>2010-08-28T13:47:23Z</time>
      </trkpt>
      <trkpt lat="48.29136" lon="2.58797">
        <ele>121.729996</ele>
        <time>2010-08-28T13:47:28Z</time>
      </trkpt>
      <trkpt lat="48.29137" lon="2.58796">
        <ele>124.649994</ele>
        <time>2010-08-28T13:47:33Z</time>
      </trkpt>
      <trkpt lat="48.29137" lon="2.58796">
        <ele>124.649994</ele>
        <time>2010-08-28T13:47:38Z</time>
      </trkpt>
      <trkpt lat="48.29137" lon="2.58796">
        <ele>124.649994</ele>
        <time>2010-08-28T13:47:43Z</time>
      </trkpt>
      <trkpt lat="48.29137" lon="2.58796">
        <ele>124.649994</ele>
        <time>2010-08-28T13:47:48Z</time>
      </trkpt>
      <trkpt lat="48.29137" lon="2.58796">
        <ele>124.649994</ele>
        <time>2010-08-28T13:47:53Z</time>
      </trkpt>
      <trkpt lat="48.29137" lon="2.58796">
        <ele>124.649994</ele>
        <time>2010-08-28T13:47:58Z</time>
      </trkpt>
      <trkpt lat="48.2913" lon="2.58787">
        <ele>126.07</ele>
        <time>2010-08-28T13:48:03Z</time>
      </trkpt>
      <trkpt lat="48.2913" lon="2.58788">
        <ele>125.909996</ele>
        <time>2010-08-28T13:48:08Z</time>
      </trkpt>
      <trkpt lat="48.2913" lon="2.58788">
        <ele>125.909996</ele>
        <time>2010-08-28T13:48:13Z</time>
      </trkpt>
      <trkpt lat="48.2913" lon="2.58788">
        <ele>125.909996</ele>
        <time>2010-08-28T13:48:18Z</time>
      </trkpt>
      <trkpt lat="48.2913" lon="2.58788">
        <ele>125.909996</ele>
        <time>2010-08-28T13:48:23Z</time>
      </trkpt>
      <trkpt lat="48.2913" lon="2.58788">
        <ele>125.909996</ele>
        <time>2010-08-28T13:48:28Z</time>
      </trkpt>
      <trkpt lat="48.2913" lon="2.58788">
        <ele>125.909996</ele>
        <time>2010-08-28T13:48:33Z</time>
      </trkpt>
      <trkpt lat="48.2913" lon="2.58788">
        <ele>125.909996</ele>
        <time>2010-08-28T13:48:38Z</time>
      </trkpt>
      <trkpt lat="48.2913" lon="2.58788">
        <ele>125.909996</ele>
        <time>2010-08-28T13:48:43Z</time>
      </trkpt>
      <trkpt lat="48.2913" lon="2.58788">
        <ele>125.909996</ele>
        <time>2010-08-28T13:48:48Z</time>
      </trkpt>
      <trkpt lat="48.29115" lon="2.5876">
        <ele>86.589996</ele>
        <time>2010-08-28T13:48:53Z</time>
      </trkpt>
      <trkpt lat="48.29118" lon="2.58756">
        <ele>85.259995</ele>
        <time>2010-08-28T13:48:58Z</time>
      </trkpt>
      <trkpt lat="48.29118" lon="2.58756">
        <ele>85.259995</ele>
        <time>2010-08-28T13:49:03Z</time>
      </trkpt>
      <trkpt lat="48.29111" lon="2.58752">
        <ele>80.009995</ele>
        <time>2010-08-28T13:49:08Z</time>
      </trkpt>
      <trkpt lat="48.29111" lon="2.58752">
        <ele>80.009995</ele>
        <time>2010-08-28T13:49:13Z</time>
      </trkpt>
      <trkpt lat="48.29116" lon="2.58753">
        <ele>79.790001</ele>
        <time>2010-08-28T13:49:18Z</time>
      </trkpt>
      <trkpt lat="48.29118" lon="2.58746">
        <ele>77.650002</ele>
        <time>2010-08-28T13:49:23Z</time>
      </trkpt>
      <trkpt lat="48.29118" lon="2.58745">
        <ele>77.479996</ele>
        <time>2010-08-28T13:49:28Z</time>
      </trkpt>
      <trkpt lat="48.29117" lon="2.58735">
        <ele>76.82</ele>
        <time>2010-08-28T13:49:33Z</time>
      </trkpt>
      <trkpt lat="48.29117" lon="2.58735">
        <ele>76.82</ele>
        <time>2010-08-28T13:49:38Z</time>
      </trkpt>
      <trkpt lat="48.29117" lon="2.58735">
        <ele>76.82</ele>
        <time>2010-08-28T13:49:43Z</time>
      </trkpt>
      <trkpt lat="48.29119" lon="2.58728">
        <ele>103.649994</ele>
        <time>2010-08-28T13:49:48Z</time>
      </trkpt>
      <trkpt lat="48.29116" lon="2.58722">
        <ele>103.389999</ele>
        <time>2010-08-28T13:49:53Z</time>
      </trkpt>
      <trkpt lat="48.29113" lon="2.58717">
        <ele>103.110001</ele>
        <time>2010-08-28T13:49:58Z</time>
      </trkpt>
      <trkpt lat="48.29108" lon="2.58712">
        <ele>102.360001</ele>
        <time>2010-08-28T13:50:03Z</time>
      </trkpt>
      <trkpt lat="48.29104" lon="2.58708">
        <ele>102.689995</ele>
        <time>2010-08-28T13:50:08Z</time>
      </trkpt>
      <trkpt lat="48.29103" lon="2.58705">
        <ele>102.040001</ele>
        <time>2010-08-28T13:50:13Z</time>
      </trkpt>
      <trkpt lat="48.29103" lon="2.58705">
        <ele>102.040001</ele>
        <time>2010-08-28T13:50:18Z</time>
      </trkpt>
      <trkpt lat="48.29107" lon="2.58689">
        <ele>104.119995</ele>
        <time>2010-08-28T13:50:23Z</time>
      </trkpt>
      <trkpt lat="48.29109" lon="2.58681">
        <ele>103.799995</ele>
        <time>2010-08-28T13:50:28Z</time>
      </trkpt>
      <trkpt lat="48.29109" lon="2.5868">
        <ele>103.989998</ele>
        <time>2010-08-28T13:50:33Z</time>
      </trkpt>
      <trkpt lat="48.29109" lon="2.5868">
        <ele>103.989998</ele>
        <time>2010-08-28T13:50:38Z</time>
      </trkpt>
      <trkpt lat="48.29109" lon="2.5868">
        <ele>103.989998</ele>
        <time>2010-08-28T13:50:43Z</time>
      </trkpt>
      <trkpt lat="48.29109" lon="2.5868">
        <ele>103.989998</ele>
        <time>2010-08-28T13:50:48Z</time>
      </trkpt>
      <trkpt lat="48.29109" lon="2.5868">
        <ele>103.989998</ele>
        <time>2010-08-28T13:50:53Z</time>
      </trkpt>
      <trkpt lat="48.29109" lon="2.5868">
        <ele>103.989998</ele>
        <time>2010-08-28T13:50:58Z</time>
      </trkpt>
      <trkpt lat="48.29109" lon="2.5868">
        <ele>103.989998</ele>
        <time>2010-08-28T13:51:03Z</time>
      </trkpt>
      <trkpt lat="48.29109" lon="2.5868">
        <ele>103.989998</ele>
        <time>2010-08-28T13:51:08Z</time>
      </trkpt>
      <trkpt lat="48.29115" lon="2.5866">
        <ele>98.860001</ele>
        <time>2010-08-28T13:51:13Z</time>
      </trkpt>
      <trkpt lat="48.2911" lon="2.58654">
        <ele>97.849998</ele>
        <time>2010-08-28T13:51:18Z</time>
      </trkpt>
      <trkpt lat="48.29109" lon="2.58647">
        <ele>97.189995</ele>
        <time>2010-08-28T13:51:23Z</time>
      </trkpt>
      <trkpt lat="48.29107" lon="2.58637">
        <ele>95.769997</ele>
        <time>2010-08-28T13:51:28Z</time>
      </trkpt>
      <trkpt lat="48.29108" lon="2.58629">
        <ele>94.369995</ele>
        <time>2010-08-28T13:51:33Z</time>
      </trkpt>
      <trkpt lat="48.29108" lon="2.58629">
        <ele>94.369995</ele>
        <time>2010-08-28T13:51:38Z</time>
      </trkpt>
      <trkpt lat="48.29108" lon="2.58629">
        <ele>94.369995</ele>
        <time>2010-08-28T13:51:43Z</time>
      </trkpt>
      <trkpt lat="48.29108" lon="2.58629">
        <ele>94.369995</ele>
        <time>2010-08-28T13:51:48Z</time>
      </trkpt>
      <trkpt lat="48.29114" lon="2.58627">
        <ele>112.189995</ele>
        <time>2010-08-28T13:51:53Z</time>
      </trkpt>
      <trkpt lat="48.2912" lon="2.58624">
        <ele>111.799995</ele>
        <time>2010-08-28T13:51:58Z</time>
      </trkpt>
      <trkpt lat="48.29122" lon="2.58619">
        <ele>112.409996</ele>
        <time>2010-08-28T13:52:03Z</time>
      </trkpt>
      <trkpt lat="48.29122" lon="2.58619">
        <ele>112.409996</ele>
        <time>2010-08-28T13:52:08Z</time>
      </trkpt>
      <trkpt lat="48.29122" lon="2.58619">
        <ele>112.409996</ele>
        <time>2010-08-28T13:52:13Z</time>
      </trkpt>
      <trkpt lat="48.29122" lon="2.58609">
        <ele>109.5</ele>
        <time>2010-08-28T13:52:18Z</time>
      </trkpt>
      <trkpt lat="48.29116" lon="2.58608">
        <ele>109.419998</ele>
        <time>2010-08-28T13:52:23Z</time>
      </trkpt>
      <trkpt lat="48.29116" lon="2.58602">
        <ele>107.790001</ele>
        <time>2010-08-28T13:52:28Z</time>
      </trkpt>
      <trkpt lat="48.29118" lon="2.58596">
        <ele>105.669998</ele>
        <time>2010-08-28T13:52:33Z</time>
      </trkpt>
      <trkpt lat="48.2912" lon="2.58586">
        <ele>103.18</ele>
        <time>2010-08-28T13:52:38Z</time>
      </trkpt>
      <trkpt lat="48.29126" lon="2.58581">
        <ele>101.889999</ele>
        <time>2010-08-28T13:52:43Z</time>
      </trkpt>
      <trkpt lat="48.29126" lon="2.5858">
        <ele>101.659996</ele>
        <time>2010-08-28T13:52:48Z</time>
      </trkpt>
      <trkpt lat="48.29126" lon="2.5858">
        <ele>101.659996</ele>
        <time>2010-08-28T13:52:53Z</time>
      </trkpt>
      <trkpt lat="48.29125" lon="2.58568">
        <ele>95.189995</ele>
        <time>2010-08-28T13:52:58Z</time>
      </trkpt>
      <trkpt lat="48.29126" lon="2.58561">
        <ele>91.269997</ele>
        <time>2010-08-28T13:53:03Z</time>
      </trkpt>
      <trkpt lat="48.29129" lon="2.58553">
        <ele>91.07</ele>
        <time>2010-08-28T13:53:08Z</time>
      </trkpt>
      <trkpt lat="48.29129" lon="2.58543">
        <ele>89.729996</ele>
        <time>2010-08-28T13:53:13Z</time>
      </trkpt>
      <trkpt lat="48.29129" lon="2.5854">
        <ele>88.720001</ele>
        <time>2010-08-28T13:53:18Z</time>
      </trkpt>
      <trkpt lat="48.29129" lon="2.5854">
        <ele>88.720001</ele>
        <time>2010-08-28T13:53:23Z</time>
      </trkpt>
      <trkpt lat="48.29129" lon="2.5854">
        <ele>88.720001</ele>
        <time>2010-08-28T13:53:28Z</time>
      </trkpt>
      <trkpt lat="48.29152" lon="2.58549">
        <ele>100.829994</ele>
        <time>2010-08-28T13:53:33Z</time>
      </trkpt>
      <trkpt lat="48.29154" lon="2.58552">
        <ele>100.959999</ele>
        <time>2010-08-28T13:53:38Z</time>
      </trkpt>
      <trkpt lat="48.29154" lon="2.58552">
        <ele>100.959999</ele>
        <time>2010-08-28T13:53:43Z</time>
      </trkpt>
      <trkpt lat="48.29154" lon="2.58552">
        <ele>100.959999</ele>
        <time>2010-08-28T13:53:48Z</time>
      </trkpt>
      <trkpt lat="48.29154" lon="2.58552">
        <ele>100.959999</ele>
        <time>2010-08-28T13:53:53Z</time>
      </trkpt>
      <trkpt lat="48.29154" lon="2.58552">
        <ele>100.959999</ele>
        <time>2010-08-28T13:53:58Z</time>
      </trkpt>
      <trkpt lat="48.29154" lon="2.58552">
        <ele>100.959999</ele>
        <time>2010-08-28T13:54:03Z</time>
      </trkpt>
      <trkpt lat="48.29154" lon="2.58552">
        <ele>100.959999</ele>
        <time>2010-08-28T13:54:08Z</time>
      </trkpt>
      <trkpt lat="48.29154" lon="2.58552">
        <ele>100.959999</ele>
        <time>2010-08-28T13:54:13Z</time>
      </trkpt>
      <trkpt lat="48.29154" lon="2.58552">
        <ele>100.959999</ele>
        <time>2010-08-28T13:54:18Z</time>
      </trkpt>
      <trkpt lat="48.29154" lon="2.58552">
        <ele>100.959999</ele>
        <time>2010-08-28T13:54:23Z</time>
      </trkpt>
      <trkpt lat="48.2917" lon="2.58529">
        <ele>98.959999</ele>
        <time>2010-08-28T13:54:28Z</time>
      </trkpt>
      <trkpt lat="48.2917" lon="2.58518">
        <ele>94.400002</ele>
        <time>2010-08-28T13:54:33Z</time>
      </trkpt>
      <trkpt lat="48.29168" lon="2.5851">
        <ele>91.479996</ele>
        <time>2010-08-28T13:54:38Z</time>
      </trkpt>
      <trkpt lat="48.29171" lon="2.58502">
        <ele>90.229996</ele>
        <time>2010-08-28T13:54:43Z</time>
      </trkpt>
      <trkpt lat="48.29168" lon="2.58494">
        <ele>87.830002</ele>
        <time>2010-08-28T13:54:48Z</time>
      </trkpt>
      <trkpt lat="48.29164" lon="2.58486">
        <ele>84.729996</ele>
        <time>2010-08-28T13:54:53Z</time>
      </trkpt>
      <trkpt lat="48.29163" lon="2.58484">
        <ele>84.139999</ele>
        <time>2010-08-28T13:54:58Z</time>
      </trkpt>
      <trkpt lat="48.29165" lon="2.58478">
        <ele>83.559998</ele>
        <time>2010-08-28T13:55:03Z</time>
      </trkpt>
      <trkpt lat="48.2916" lon="2.58472">
        <ele>81.830002</ele>
        <time>2010-08-28T13:55:08Z</time>
      </trkpt>
      <trkpt lat="48.29154" lon="2.58465">
        <ele>79.089996</ele>
        <time>2010-08-28T13:55:13Z</time>
      </trkpt>
      <trkpt lat="48.29151" lon="2.5846">
        <ele>78.349998</ele>
        <time>2010-08-28T13:55:18Z</time>
      </trkpt>
      <trkpt lat="48.29146" lon="2.58455">
        <ele>76.869995</ele>
        <time>2010-08-28T13:55:23Z</time>
      </trkpt>
      <trkpt lat="48.29138" lon="2.58449">
        <ele>71.689995</ele>
        <time>2010-08-28T13:55:28Z</time>
      </trkpt>
      <trkpt lat="48.29133" lon="2.58445">
        <ele>69.769997</ele>
        <time>2010-08-28T13:55:33Z</time>
      </trkpt>
      <trkpt lat="48.29129" lon="2.58441">
        <ele>68.629997</ele>
        <time>2010-08-28T13:55:38Z</time>
      </trkpt>
      <trkpt lat="48.29126" lon="2.58435">
        <ele>67.629997</ele>
        <time>2010-08-28T13:55:43Z</time>
      </trkpt>
      <trkpt lat="48.2912" lon="2.58428">
        <ele>65.610001</ele>
        <time>2010-08-28T13:55:48Z</time>
      </trkpt>
      <trkpt lat="48.29114" lon="2.58424">
        <ele>65.629997</ele>
        <time>2010-08-28T13:55:53Z</time>
      </trkpt>
      <trkpt lat="48.2911" lon="2.58416">
        <ele>63.719997</ele>
        <time>2010-08-28T13:55:58Z</time>
      </trkpt>
      <trkpt lat="48.29105" lon="2.58411">
        <ele>63.209999</ele>
        <time>2010-08-28T13:56:03Z</time>
      </trkpt>
      <trkpt lat="48.291" lon="2.58413">
        <ele>65.43</ele>
        <time>2010-08-28T13:56:08Z</time>
      </trkpt>
      <trkpt lat="48.29102" lon="2.58413">
        <ele>82.879997</ele>
        <time>2010-08-28T13:56:13Z</time>
      </trkpt>
      <trkpt lat="48.29099" lon="2.58408">
        <ele>85.419998</ele>
        <time>2010-08-28T13:56:18Z</time>
      </trkpt>
      <trkpt lat="48.29099" lon="2.58408">
        <ele>85.419998</ele>
        <time>2010-08-28T13:56:23Z</time>
      </trkpt>
      <trkpt lat="48.29094" lon="2.58402">
        <ele>87.479996</ele>
        <time>2010-08-28T13:56:28Z</time>
      </trkpt>
      <trkpt lat="48.29091" lon="2.58394">
        <ele>85.839996</ele>
        <time>2010-08-28T13:56:33Z</time>
      </trkpt>
      <trkpt lat="48.29088" lon="2.58386">
        <ele>84.93</ele>
        <time>2010-08-28T13:56:38Z</time>
      </trkpt>
      <trkpt lat="48.2909" lon="2.58379">
        <ele>83.509995</ele>
        <time>2010-08-28T13:56:43Z</time>
      </trkpt>
      <trkpt lat="48.29096" lon="2.58375">
        <ele>83.259995</ele>
        <time>2010-08-28T13:56:48Z</time>
      </trkpt>
      <trkpt lat="48.29095" lon="2.58373">
        <ele>83.619995</ele>
        <time>2010-08-28T13:56:53Z</time>
      </trkpt>
      <trkpt lat="48.29095" lon="2.58373">
        <ele>83.619995</ele>
        <time>2010-08-28T13:56:58Z</time>
      </trkpt>
      <trkpt lat="48.29095" lon="2.58373">
        <ele>83.619995</ele>
        <time>2010-08-28T13:57:02Z</time>
      </trkpt>
      <trkpt lat="48.29095" lon="2.58373">
        <ele>83.619995</ele>
        <time>2010-08-28T13:57:07Z</time>
      </trkpt>
      <trkpt lat="48.29095" lon="2.58373">
        <ele>83.619995</ele>
        <time>2010-08-28T13:57:12Z</time>
      </trkpt>
      <trkpt lat="48.29095" lon="2.58373">
        <ele>83.619995</ele>
        <time>2010-08-28T13:57:17Z</time>
      </trkpt>
      <trkpt lat="48.29095" lon="2.58373">
        <ele>83.619995</ele>
        <time>2010-08-28T13:57:22Z</time>
      </trkpt>
      <trkpt lat="48.29095" lon="2.58373">
        <ele>83.619995</ele>
        <time>2010-08-28T13:57:27Z</time>
      </trkpt>
      <trkpt lat="48.29095" lon="2.58373">
        <ele>83.619995</ele>
        <time>2010-08-28T13:57:32Z</time>
      </trkpt>
      <trkpt lat="48.29121" lon="2.58353">
        <ele>98.169998</ele>
        <time>2010-08-28T13:57:37Z</time>
      </trkpt>
      <trkpt lat="48.29126" lon="2.58348">
        <ele>98.279999</ele>
        <time>2010-08-28T13:57:42Z</time>
      </trkpt>
      <trkpt lat="48.2913" lon="2.58339">
        <ele>98.279999</ele>
        <time>2010-08-28T13:57:47Z</time>
      </trkpt>
      <trkpt lat="48.29131" lon="2.5833">
        <ele>96.959999</ele>
        <time>2010-08-28T13:57:52Z</time>
      </trkpt>
      <trkpt lat="48.29138" lon="2.58322">
        <ele>96.099998</ele>
        <time>2010-08-28T13:57:57Z</time>
      </trkpt>
      <trkpt lat="48.29143" lon="2.58311">
        <ele>94.43</ele>
        <time>2010-08-28T13:58:02Z</time>
      </trkpt>
      <trkpt lat="48.29147" lon="2.583">
        <ele>91.869995</ele>
        <time>2010-08-28T13:58:07Z</time>
      </trkpt>
      <trkpt lat="48.29148" lon="2.58289">
        <ele>89.220001</ele>
        <time>2010-08-28T13:58:12Z</time>
      </trkpt>
      <trkpt lat="48.29147" lon="2.58279">
        <ele>85.900002</ele>
        <time>2010-08-28T13:58:17Z</time>
      </trkpt>
      <trkpt lat="48.29148" lon="2.5827">
        <ele>84.290001</ele>
        <time>2010-08-28T13:58:22Z</time>
      </trkpt>
      <trkpt lat="48.29148" lon="2.58259">
        <ele>82.669998</ele>
        <time>2010-08-28T13:58:27Z</time>
      </trkpt>
      <trkpt lat="48.29146" lon="2.58248">
        <ele>80.349998</ele>
        <time>2010-08-28T13:58:32Z</time>
      </trkpt>
      <trkpt lat="48.29144" lon="2.58237">
        <ele>77.479996</ele>
        <time>2010-08-28T13:58:37Z</time>
      </trkpt>
      <trkpt lat="48.29142" lon="2.58227">
        <ele>75.209999</ele>
        <time>2010-08-28T13:58:42Z</time>
      </trkpt>
      <trkpt lat="48.2914" lon="2.58215">
        <ele>73.290001</ele>
        <time>2010-08-28T13:58:47Z</time>
      </trkpt>
      <trkpt lat="48.29139" lon="2.58207">
        <ele>71.68</ele>
        <time>2010-08-28T13:58:52Z</time>
      </trkpt>
      <trkpt lat="48.29138" lon="2.58198">
        <ele>68.309998</ele>
        <time>2010-08-28T13:58:57Z</time>
      </trkpt>
      <trkpt lat="48.29136" lon="2.58187">
        <ele>65.299995</ele>
        <time>2010-08-28T13:59:02Z</time>
      </trkpt>
      <trkpt lat="48.29136" lon="2.58178">
        <ele>63.669998</ele>
        <time>2010-08-28T13:59:07Z</time>
      </trkpt>
      <trkpt lat="48.29136" lon="2.58167">
        <ele>63.309998</ele>
        <time>2010-08-28T13:59:12Z</time>
      </trkpt>
      <trkpt lat="48.29134" lon="2.58157">
        <ele>62.529999</ele>
        <time>2010-08-28T13:59:17Z</time>
      </trkpt>
      <trkpt lat="48.29135" lon="2.58148">
        <ele>62.809998</ele>
        <time>2010-08-28T13:59:22Z</time>
      </trkpt>
      <trkpt lat="48.29129" lon="2.58135">
        <ele>60.549999</ele>
        <time>2010-08-28T13:59:27Z</time>
      </trkpt>
      <trkpt lat="48.29127" lon="2.58125">
        <ele>59.77</ele>
        <time>2010-08-28T13:59:32Z</time>
      </trkpt>
      <trkpt lat="48.29127" lon="2.58117">
        <ele>59.549999</ele>
        <time>2010-08-28T13:59:37Z</time>
      </trkpt>
      <trkpt lat="48.29128" lon="2.58118">
        <ele>60.699997</ele>
        <time>2010-08-28T13:59:42Z</time>
      </trkpt>
      <trkpt lat="48.29128" lon="2.58118">
        <ele>60.699997</ele>
        <time>2010-08-28T13:59:47Z</time>
      </trkpt>
      <trkpt lat="48.29168" lon="2.58139">
        <ele>103.559998</ele>
        <time>2010-08-28T13:59:52Z</time>
      </trkpt>
      <trkpt lat="48.29171" lon="2.5814">
        <ele>105.279999</ele>
        <time>2010-08-28T13:59:57Z</time>
      </trkpt>
      <trkpt lat="48.29171" lon="2.5814">
        <ele>105.279999</ele>
        <time>2010-08-28T14:00:02Z</time>
      </trkpt>
      <trkpt lat="48.2919" lon="2.58145">
        <ele>106.540001</ele>
        <time>2010-08-28T14:00:07Z</time>
      </trkpt>
      <trkpt lat="48.29196" lon="2.58153">
        <ele>112.299995</ele>
        <time>2010-08-28T14:00:12Z</time>
      </trkpt>
      <trkpt lat="48.29199" lon="2.58152">
        <ele>111.729996</ele>
        <time>2010-08-28T14:00:17Z</time>
      </trkpt>
      <trkpt lat="48.29199" lon="2.58152">
        <ele>111.729996</ele>
        <time>2010-08-28T14:00:22Z</time>
      </trkpt>
      <trkpt lat="48.2921" lon="2.58151">
        <ele>117.839996</ele>
        <time>2010-08-28T14:00:27Z</time>
      </trkpt>
      <trkpt lat="48.29215" lon="2.58145">
        <ele>117.709999</ele>
        <time>2010-08-28T14:00:32Z</time>
      </trkpt>
      <trkpt lat="48.29218" lon="2.58141">
        <ele>116.909996</ele>
        <time>2010-08-28T14:00:37Z</time>
      </trkpt>
      <trkpt lat="48.29221" lon="2.58138">
        <ele>118.169998</ele>
        <time>2010-08-28T14:00:42Z</time>
      </trkpt>
      <trkpt lat="48.29221" lon="2.58138">
        <ele>118.169998</ele>
        <time>2010-08-28T14:00:47Z</time>
      </trkpt>
      <trkpt lat="48.29226" lon="2.58125">
        <ele>118.079994</ele>
        <time>2010-08-28T14:00:52Z</time>
      </trkpt>
      <trkpt lat="48.29227" lon="2.58121">
        <ele>118</ele>
        <time>2010-08-28T14:00:57Z</time>
      </trkpt>
      <trkpt lat="48.29227" lon="2.58121">
        <ele>118</ele>
        <time>2010-08-28T14:01:02Z</time>
      </trkpt>
      <trkpt lat="48.29227" lon="2.58121">
        <ele>118</ele>
        <time>2010-08-28T14:01:07Z</time>
      </trkpt>
      <trkpt lat="48.29227" lon="2.58121">
        <ele>118</ele>
        <time>2010-08-28T14:01:12Z</time>
      </trkpt>
      <trkpt lat="48.29227" lon="2.58121">
        <ele>118</ele>
        <time>2010-08-28T14:01:17Z</time>
      </trkpt>
      <trkpt lat="48.29227" lon="2.58121">
        <ele>118</ele>
        <time>2010-08-28T14:01:22Z</time>
      </trkpt>
      <trkpt lat="48.29227" lon="2.58121">
        <ele>118</ele>
        <time>2010-08-28T14:01:26Z</time>
      </trkpt>
      <trkpt lat="48.29227" lon="2.58121">
        <ele>118</ele>
        <time>2010-08-28T14:01:31Z</time>
      </trkpt>
      <trkpt lat="48.29227" lon="2.58121">
        <ele>118</ele>
        <time>2010-08-28T14:01:36Z</time>
      </trkpt>
      <trkpt lat="48.29248" lon="2.58086">
        <ele>101.089996</ele>
        <time>2010-08-28T14:01:42Z</time>
      </trkpt>
      <trkpt lat="48.29248" lon="2.58079">
        <ele>101.019997</ele>
        <time>2010-08-28T14:01:47Z</time>
      </trkpt>
      <trkpt lat="48.29248" lon="2.58077">
        <ele>99.589996</ele>
        <time>2010-08-28T14:01:52Z</time>
      </trkpt>
      <trkpt lat="48.29248" lon="2.58077">
        <ele>99.589996</ele>
        <time>2010-08-28T14:01:57Z</time>
      </trkpt>
      <trkpt lat="48.29252" lon="2.58066">
        <ele>95.68</ele>
        <time>2010-08-28T14:02:02Z</time>
      </trkpt>
      <trkpt lat="48.29254" lon="2.58063">
        <ele>95.029999</ele>
        <time>2010-08-28T14:02:07Z</time>
      </trkpt>
      <trkpt lat="48.29254" lon="2.58063">
        <ele>95.029999</ele>
        <time>2010-08-28T14:02:12Z</time>
      </trkpt>
      <trkpt lat="48.29261" lon="2.58059">
        <ele>98.699997</ele>
        <time>2010-08-28T14:02:17Z</time>
      </trkpt>
      <trkpt lat="48.29264" lon="2.58059">
        <ele>98.43</ele>
        <time>2010-08-28T14:02:22Z</time>
      </trkpt>
      <trkpt lat="48.29264" lon="2.58059">
        <ele>98.43</ele>
        <time>2010-08-28T14:02:27Z</time>
      </trkpt>
      <trkpt lat="48.29264" lon="2.58059">
        <ele>98.43</ele>
        <time>2010-08-28T14:02:32Z</time>
      </trkpt>
      <trkpt lat="48.29264" lon="2.58059">
        <ele>98.43</ele>
        <time>2010-08-28T14:02:37Z</time>
      </trkpt>
      <trkpt lat="48.29264" lon="2.58059">
        <ele>98.43</ele>
        <time>2010-08-28T14:02:42Z</time>
      </trkpt>
      <trkpt lat="48.29264" lon="2.58059">
        <ele>98.43</ele>
        <time>2010-08-28T14:02:47Z</time>
      </trkpt>
      <trkpt lat="48.29264" lon="2.58059">
        <ele>98.43</ele>
        <time>2010-08-28T14:02:52Z</time>
      </trkpt>
      <trkpt lat="48.29264" lon="2.58059">
        <ele>98.43</ele>
        <time>2010-08-28T14:02:57Z</time>
      </trkpt>
      <trkpt lat="48.29264" lon="2.58059">
        <ele>98.43</ele>
        <time>2010-08-28T14:03:02Z</time>
      </trkpt>
      <trkpt lat="48.29264" lon="2.58059">
        <ele>98.43</ele>
        <time>2010-08-28T14:03:07Z</time>
      </trkpt>
      <trkpt lat="48.29264" lon="2.58059">
        <ele>98.43</ele>
        <time>2010-08-28T14:03:12Z</time>
      </trkpt>
      <trkpt lat="48.29264" lon="2.58059">
        <ele>98.43</ele>
        <time>2010-08-28T14:03:17Z</time>
      </trkpt>
      <trkpt lat="48.29264" lon="2.58059">
        <ele>98.43</ele>
        <time>2010-08-28T14:03:22Z</time>
      </trkpt>
      <trkpt lat="48.29264" lon="2.58059">
        <ele>98.43</ele>
        <time>2010-08-28T14:03:27Z</time>
      </trkpt>
      <trkpt lat="48.29264" lon="2.58059">
        <ele>98.43</ele>
        <time>2010-08-28T14:03:32Z</time>
      </trkpt>
      <trkpt lat="48.29264" lon="2.58059">
        <ele>98.43</ele>
        <time>2010-08-28T14:03:37Z</time>
      </trkpt>
      <trkpt lat="48.29264" lon="2.58059">
        <ele>98.43</ele>
        <time>2010-08-28T14:03:42Z</time>
      </trkpt>
      <trkpt lat="48.29264" lon="2.58059">
        <ele>98.43</ele>
        <time>2010-08-28T14:03:47Z</time>
      </trkpt>
      <trkpt lat="48.29264" lon="2.58059">
        <ele>98.43</ele>
        <time>2010-08-28T14:03:52Z</time>
      </trkpt>
      <trkpt lat="48.29264" lon="2.58059">
        <ele>98.43</ele>
        <time>2010-08-28T14:03:57Z</time>
      </trkpt>
      <trkpt lat="48.29264" lon="2.58059">
        <ele>98.43</ele>
        <time>2010-08-28T14:04:02Z</time>
      </trkpt>
      <trkpt lat="48.29264" lon="2.58059">
        <ele>98.43</ele>
        <time>2010-08-28T14:04:07Z</time>
      </trkpt>
      <trkpt lat="48.29264" lon="2.58059">
        <ele>98.43</ele>
        <time>2010-08-28T14:04:12Z</time>
      </trkpt>
      <trkpt lat="48.29264" lon="2.58059">
        <ele>98.43</ele>
        <time>2010-08-28T14:04:17Z</time>
      </trkpt>
      <trkpt lat="48.29264" lon="2.58059">
        <ele>98.43</ele>
        <time>2010-08-28T14:04:22Z</time>
      </trkpt>
      <trkpt lat="48.29264" lon="2.58059">
        <ele>98.43</ele>
        <time>2010-08-28T14:04:27Z</time>
      </trkpt>
      <trkpt lat="48.29264" lon="2.58059">
        <ele>98.43</ele>
        <time>2010-08-28T14:04:32Z</time>
      </trkpt>
      <trkpt lat="48.29264" lon="2.58059">
        <ele>98.43</ele>
        <time>2010-08-28T14:04:37Z</time>
      </trkpt>
      <trkpt lat="48.29264" lon="2.58059">
        <ele>98.43</ele>
        <time>2010-08-28T14:04:42Z</time>
      </trkpt>
      <trkpt lat="48.29264" lon="2.58059">
        <ele>98.43</ele>
        <time>2010-08-28T14:04:47Z</time>
      </trkpt>
      <trkpt lat="48.29264" lon="2.58059">
        <ele>98.43</ele>
        <time>2010-08-28T14:04:52Z</time>
      </trkpt>
      <trkpt lat="48.29264" lon="2.58059">
        <ele>98.43</ele>
        <time>2010-08-28T14:04:57Z</time>
      </trkpt>
      <trkpt lat="48.29264" lon="2.58059">
        <ele>98.43</ele>
        <time>2010-08-28T14:05:02Z</time>
      </trkpt>
      <trkpt lat="48.29264" lon="2.58059">
        <ele>98.43</ele>
        <time>2010-08-28T14:05:07Z</time>
      </trkpt>
      <trkpt lat="48.29264" lon="2.58059">
        <ele>98.43</ele>
        <time>2010-08-28T14:05:12Z</time>
      </trkpt>
      <trkpt lat="48.29264" lon="2.58059">
        <ele>98.43</ele>
        <time>2010-08-28T14:05:17Z</time>
      </trkpt>
      <trkpt lat="48.29264" lon="2.58059">
        <ele>98.43</ele>
        <time>2010-08-28T14:05:22Z</time>
      </trkpt>
      <trkpt lat="48.29264" lon="2.58059">
        <ele>98.43</ele>
        <time>2010-08-28T14:05:27Z</time>
      </trkpt>
      <trkpt lat="48.29264" lon="2.58059">
        <ele>98.43</ele>
        <time>2010-08-28T14:05:32Z</time>
      </trkpt>
      <trkpt lat="48.29264" lon="2.58059">
        <ele>98.43</ele>
        <time>2010-08-28T14:05:37Z</time>
      </trkpt>
      <trkpt lat="48.29264" lon="2.58059">
        <ele>98.43</ele>
        <time>2010-08-28T14:05:42Z</time>
      </trkpt>
      <trkpt lat="48.29264" lon="2.58059">
        <ele>98.43</ele>
        <time>2010-08-28T14:05:47Z</time>
      </trkpt>
      <trkpt lat="48.29264" lon="2.58059">
        <ele>98.43</ele>
        <time>2010-08-28T14:05:52Z</time>
      </trkpt>
      <trkpt lat="48.29264" lon="2.58059">
        <ele>98.43</ele>
        <time>2010-08-28T14:05:57Z</time>
      </trkpt>
      <trkpt lat="48.29264" lon="2.58059">
        <ele>98.43</ele>
        <time>2010-08-28T14:06:02Z</time>
      </trkpt>
      <trkpt lat="48.29264" lon="2.58059">
        <ele>98.43</ele>
        <time>2010-08-28T14:06:07Z</time>
      </trkpt>
      <trkpt lat="48.29264" lon="2.58059">
        <ele>98.43</ele>
        <time>2010-08-28T14:06:12Z</time>
      </trkpt>
      <trkpt lat="48.29297" lon="2.58065">
        <ele>103.32</ele>
        <time>2010-08-28T14:06:17Z</time>
      </trkpt>
      <trkpt lat="48.29302" lon="2.58065">
        <ele>101.32</ele>
        <time>2010-08-28T14:06:22Z</time>
      </trkpt>
      <trkpt lat="48.29307" lon="2.58065">
        <ele>100.25</ele>
        <time>2010-08-28T14:06:27Z</time>
      </trkpt>
      <trkpt lat="48.29311" lon="2.58067">
        <ele>99.099998</ele>
        <time>2010-08-28T14:06:32Z</time>
      </trkpt>
      <trkpt lat="48.29314" lon="2.58065">
        <ele>98.470001</ele>
        <time>2010-08-28T14:06:37Z</time>
      </trkpt>
      <trkpt lat="48.29319" lon="2.58062">
        <ele>98.279999</ele>
        <time>2010-08-28T14:06:42Z</time>
      </trkpt>
      <trkpt lat="48.29319" lon="2.58061">
        <ele>98.239998</ele>
        <time>2010-08-28T14:06:47Z</time>
      </trkpt>
      <trkpt lat="48.29319" lon="2.58061">
        <ele>98.239998</ele>
        <time>2010-08-28T14:06:52Z</time>
      </trkpt>
      <trkpt lat="48.29319" lon="2.58061">
        <ele>98.239998</ele>
        <time>2010-08-28T14:06:57Z</time>
      </trkpt>
      <trkpt lat="48.29319" lon="2.58061">
        <ele>98.239998</ele>
        <time>2010-08-28T14:07:02Z</time>
      </trkpt>
      <trkpt lat="48.29319" lon="2.58061">
        <ele>98.239998</ele>
        <time>2010-08-28T14:07:07Z</time>
      </trkpt>
      <trkpt lat="48.29319" lon="2.58061">
        <ele>98.239998</ele>
        <time>2010-08-28T14:07:12Z</time>
      </trkpt>
      <trkpt lat="48.29328" lon="2.58051">
        <ele>92.959999</ele>
        <time>2010-08-28T14:07:17Z</time>
      </trkpt>
      <trkpt lat="48.29333" lon="2.58048">
        <ele>92.509995</ele>
        <time>2010-08-28T14:07:22Z</time>
      </trkpt>
      <trkpt lat="48.29335" lon="2.58047">
        <ele>92.049995</ele>
        <time>2010-08-28T14:07:27Z</time>
      </trkpt>
      <trkpt lat="48.29335" lon="2.58047">
        <ele>92.049995</ele>
        <time>2010-08-28T14:07:32Z</time>
      </trkpt>
      <trkpt lat="48.29342" lon="2.58044">
        <ele>90.57</ele>
        <time>2010-08-28T14:07:37Z</time>
      </trkpt>
      <trkpt lat="48.29347" lon="2.58046">
        <ele>88.809998</ele>
        <time>2010-08-28T14:07:42Z</time>
      </trkpt>
      <trkpt lat="48.29349" lon="2.58041">
        <ele>85.669998</ele>
        <time>2010-08-28T14:07:47Z</time>
      </trkpt>
      <trkpt lat="48.29351" lon="2.58036">
        <ele>82.759995</ele>
        <time>2010-08-28T14:07:52Z</time>
      </trkpt>
      <trkpt lat="48.29351" lon="2.58035">
        <ele>82.559998</ele>
        <time>2010-08-28T14:07:57Z</time>
      </trkpt>
      <trkpt lat="48.29351" lon="2.58035">
        <ele>82.559998</ele>
        <time>2010-08-28T14:08:02Z</time>
      </trkpt>
      <trkpt lat="48.29351" lon="2.58035">
        <ele>82.559998</ele>
        <time>2010-08-28T14:08:07Z</time>
      </trkpt>
      <trkpt lat="48.29353" lon="2.58009">
        <ele>79.400002</ele>
        <time>2010-08-28T14:08:12Z</time>
      </trkpt>
      <trkpt lat="48.29351" lon="2.58001">
        <ele>78.029999</ele>
        <time>2010-08-28T14:08:17Z</time>
      </trkpt>
      <trkpt lat="48.29348" lon="2.57993">
        <ele>77.199997</ele>
        <time>2010-08-28T14:08:22Z</time>
      </trkpt>
      <trkpt lat="48.29346" lon="2.57987">
        <ele>76.900002</ele>
        <time>2010-08-28T14:08:27Z</time>
      </trkpt>
      <trkpt lat="48.29346" lon="2.57981">
        <ele>77.979996</ele>
        <time>2010-08-28T14:08:32Z</time>
      </trkpt>
      <trkpt lat="48.29345" lon="2.57977">
        <ele>78.479996</ele>
        <time>2010-08-28T14:08:37Z</time>
      </trkpt>
      <trkpt lat="48.29345" lon="2.57977">
        <ele>78.479996</ele>
        <time>2010-08-28T14:08:42Z</time>
      </trkpt>
      <trkpt lat="48.29345" lon="2.57977">
        <ele>78.479996</ele>
        <time>2010-08-28T14:08:47Z</time>
      </trkpt>
      <trkpt lat="48.29347" lon="2.57961">
        <ele>77.759995</ele>
        <time>2010-08-28T14:08:52Z</time>
      </trkpt>
      <trkpt lat="48.29348" lon="2.5796">
        <ele>78.459999</ele>
        <time>2010-08-28T14:08:56Z</time>
      </trkpt>
      <trkpt lat="48.29348" lon="2.5796">
        <ele>78.459999</ele>
        <time>2010-08-28T14:09:01Z</time>
      </trkpt>
      <trkpt lat="48.29348" lon="2.5796">
        <ele>78.459999</ele>
        <time>2010-08-28T14:09:06Z</time>
      </trkpt>
      <trkpt lat="48.29348" lon="2.5796">
        <ele>78.459999</ele>
        <time>2010-08-28T14:09:11Z</time>
      </trkpt>
      <trkpt lat="48.29353" lon="2.5796">
        <ele>112.099998</ele>
        <time>2010-08-28T14:09:16Z</time>
      </trkpt>
      <trkpt lat="48.29354" lon="2.57959">
        <ele>112.989998</ele>
        <time>2010-08-28T14:09:21Z</time>
      </trkpt>
      <trkpt lat="48.29354" lon="2.57959">
        <ele>112.989998</ele>
        <time>2010-08-28T14:09:26Z</time>
      </trkpt>
      <trkpt lat="48.29354" lon="2.57959">
        <ele>112.989998</ele>
        <time>2010-08-28T14:09:31Z</time>
      </trkpt>
      <trkpt lat="48.29354" lon="2.57959">
        <ele>112.989998</ele>
        <time>2010-08-28T14:09:36Z</time>
      </trkpt>
      <trkpt lat="48.29354" lon="2.57959">
        <ele>112.989998</ele>
        <time>2010-08-28T14:09:41Z</time>
      </trkpt>
      <trkpt lat="48.29354" lon="2.57959">
        <ele>112.989998</ele>
        <time>2010-08-28T14:09:46Z</time>
      </trkpt>
      <trkpt lat="48.29354" lon="2.57959">
        <ele>112.989998</ele>
        <time>2010-08-28T14:09:51Z</time>
      </trkpt>
      <trkpt lat="48.29354" lon="2.57959">
        <ele>112.989998</ele>
        <time>2010-08-28T14:09:56Z</time>
      </trkpt>
      <trkpt lat="48.29354" lon="2.57959">
        <ele>112.989998</ele>
        <time>2010-08-28T14:10:01Z</time>
      </trkpt>
      <trkpt lat="48.29354" lon="2.57959">
        <ele>112.989998</ele>
        <time>2010-08-28T14:10:06Z</time>
      </trkpt>
      <trkpt lat="48.29354" lon="2.57959">
        <ele>112.989998</ele>
        <time>2010-08-28T14:10:11Z</time>
      </trkpt>
      <trkpt lat="48.29401" lon="2.57958">
        <ele>115.659996</ele>
        <time>2010-08-28T14:10:16Z</time>
      </trkpt>
      <trkpt lat="48.29397" lon="2.57957">
        <ele>112.159996</ele>
        <time>2010-08-28T14:10:21Z</time>
      </trkpt>
      <trkpt lat="48.29397" lon="2.57957">
        <ele>112.159996</ele>
        <time>2010-08-28T14:10:26Z</time>
      </trkpt>
      <trkpt lat="48.294" lon="2.57955">
        <ele>111.089996</ele>
        <time>2010-08-28T14:10:30Z</time>
      </trkpt>
      <trkpt lat="48.29404" lon="2.57955">
        <ele>111.699997</ele>
        <time>2010-08-28T14:10:36Z</time>
      </trkpt>
      <trkpt lat="48.29409" lon="2.57952">
        <ele>112.43</ele>
        <time>2010-08-28T14:10:41Z</time>
      </trkpt>
      <trkpt lat="48.29411" lon="2.57952">
        <ele>111.939995</ele>
        <time>2010-08-28T14:10:46Z</time>
      </trkpt>
      <trkpt lat="48.29416" lon="2.57945">
        <ele>112.009995</ele>
        <time>2010-08-28T14:10:51Z</time>
      </trkpt>
      <trkpt lat="48.29415" lon="2.57943">
        <ele>112.959999</ele>
        <time>2010-08-28T14:10:56Z</time>
      </trkpt>
      <trkpt lat="48.29417" lon="2.5793">
        <ele>109.279999</ele>
        <time>2010-08-28T14:11:01Z</time>
      </trkpt>
      <trkpt lat="48.2942" lon="2.57923">
        <ele>109.089996</ele>
        <time>2010-08-28T14:11:06Z</time>
      </trkpt>
      <trkpt lat="48.29426" lon="2.57917">
        <ele>108.790001</ele>
        <time>2010-08-28T14:11:11Z</time>
      </trkpt>
      <trkpt lat="48.29432" lon="2.57914">
        <ele>107.259995</ele>
        <time>2010-08-28T14:11:16Z</time>
      </trkpt>
      <trkpt lat="48.2944" lon="2.57915">
        <ele>107.610001</ele>
        <time>2010-08-28T14:11:21Z</time>
      </trkpt>
      <trkpt lat="48.29444" lon="2.57921">
        <ele>108.199997</ele>
        <time>2010-08-28T14:11:26Z</time>
      </trkpt>
      <trkpt lat="48.29448" lon="2.57922">
        <ele>107.540001</ele>
        <time>2010-08-28T14:11:31Z</time>
      </trkpt>
      <trkpt lat="48.29449" lon="2.57923">
        <ele>107.549995</ele>
        <time>2010-08-28T14:11:36Z</time>
      </trkpt>
      <trkpt lat="48.29451" lon="2.5792">
        <ele>104.959999</ele>
        <time>2010-08-28T14:11:41Z</time>
      </trkpt>
      <trkpt lat="48.29453" lon="2.57917">
        <ele>103.290001</ele>
        <time>2010-08-28T14:11:46Z</time>
      </trkpt>
      <trkpt lat="48.29453" lon="2.57917">
        <ele>103.290001</ele>
        <time>2010-08-28T14:11:51Z</time>
      </trkpt>
      <trkpt lat="48.29459" lon="2.57927">
        <ele>103.07</ele>
        <time>2010-08-28T14:11:56Z</time>
      </trkpt>
      <trkpt lat="48.29459" lon="2.57927">
        <ele>103.07</ele>
        <time>2010-08-28T14:12:01Z</time>
      </trkpt>
      <trkpt lat="48.29459" lon="2.57927">
        <ele>103.07</ele>
        <time>2010-08-28T14:12:05Z</time>
      </trkpt>
      <trkpt lat="48.29459" lon="2.57927">
        <ele>103.07</ele>
        <time>2010-08-28T14:12:11Z</time>
      </trkpt>
      <trkpt lat="48.29459" lon="2.57927">
        <ele>103.07</ele>
        <time>2010-08-28T14:12:16Z</time>
      </trkpt>
      <trkpt lat="48.29464" lon="2.5793">
        <ele>100.400002</ele>
        <time>2010-08-28T14:12:20Z</time>
      </trkpt>
      <trkpt lat="48.29467" lon="2.57938">
        <ele>98.949997</ele>
        <time>2010-08-28T14:12:26Z</time>
      </trkpt>
      <trkpt lat="48.29459" lon="2.57944">
        <ele>104.040001</ele>
        <time>2010-08-28T14:12:31Z</time>
      </trkpt>
      <trkpt lat="48.29459" lon="2.57944">
        <ele>104.040001</ele>
        <time>2010-08-28T14:12:36Z</time>
      </trkpt>
      <trkpt lat="48.29466" lon="2.57956">
        <ele>110.579994</ele>
        <time>2010-08-28T14:12:41Z</time>
      </trkpt>
      <trkpt lat="48.29466" lon="2.57956">
        <ele>110.579994</ele>
        <time>2010-08-28T14:12:46Z</time>
      </trkpt>
      <trkpt lat="48.29475" lon="2.57957">
        <ele>108.659996</ele>
        <time>2010-08-28T14:12:51Z</time>
      </trkpt>
      <trkpt lat="48.29481" lon="2.5796">
        <ele>108.610001</ele>
        <time>2010-08-28T14:12:55Z</time>
      </trkpt>
      <trkpt lat="48.29487" lon="2.57962">
        <ele>103.5</ele>
        <time>2010-08-28T14:13:00Z</time>
      </trkpt>
      <trkpt lat="48.29487" lon="2.57961">
        <ele>102.479996</ele>
        <time>2010-08-28T14:13:05Z</time>
      </trkpt>
      <trkpt lat="48.29487" lon="2.57961">
        <ele>102.479996</ele>
        <time>2010-08-28T14:13:10Z</time>
      </trkpt>
      <trkpt lat="48.295" lon="2.57953">
        <ele>99.479996</ele>
        <time>2010-08-28T14:13:15Z</time>
      </trkpt>
      <trkpt lat="48.29501" lon="2.57944">
        <ele>99.889999</ele>
        <time>2010-08-28T14:13:20Z</time>
      </trkpt>
      <trkpt lat="48.29503" lon="2.57934">
        <ele>100.449997</ele>
        <time>2010-08-28T14:13:25Z</time>
      </trkpt>
      <trkpt lat="48.29504" lon="2.57926">
        <ele>100.82</ele>
        <time>2010-08-28T14:13:30Z</time>
      </trkpt>
      <trkpt lat="48.29505" lon="2.57917">
        <ele>98.829994</ele>
        <time>2010-08-28T14:13:35Z</time>
      </trkpt>
      <trkpt lat="48.29505" lon="2.5791">
        <ele>97.43</ele>
        <time>2010-08-28T14:13:40Z</time>
      </trkpt>
      <trkpt lat="48.29503" lon="2.57906">
        <ele>95.540001</ele>
        <time>2010-08-28T14:13:45Z</time>
      </trkpt>
      <trkpt lat="48.29503" lon="2.57906">
        <ele>95.540001</ele>
        <time>2010-08-28T14:13:50Z</time>
      </trkpt>
      <trkpt lat="48.29499" lon="2.57889">
        <ele>92.259995</ele>
        <time>2010-08-28T14:13:55Z</time>
      </trkpt>
      <trkpt lat="48.29496" lon="2.57884">
        <ele>93.25</ele>
        <time>2010-08-28T14:14:00Z</time>
      </trkpt>
      <trkpt lat="48.29493" lon="2.57879">
        <ele>91.909996</ele>
        <time>2010-08-28T14:14:05Z</time>
      </trkpt>
      <trkpt lat="48.29489" lon="2.57868">
        <ele>90.349998</ele>
        <time>2010-08-28T14:14:10Z</time>
      </trkpt>
      <trkpt lat="48.29488" lon="2.57865">
        <ele>90.400002</ele>
        <time>2010-08-28T14:14:15Z</time>
      </trkpt>
      <trkpt lat="48.29488" lon="2.57865">
        <ele>90.400002</ele>
        <time>2010-08-28T14:14:20Z</time>
      </trkpt>
      <trkpt lat="48.29488" lon="2.57865">
        <ele>90.400002</ele>
        <time>2010-08-28T14:14:25Z</time>
      </trkpt>
      <trkpt lat="48.29488" lon="2.57865">
        <ele>90.400002</ele>
        <time>2010-08-28T14:14:30Z</time>
      </trkpt>
      <trkpt lat="48.29488" lon="2.57865">
        <ele>90.400002</ele>
        <time>2010-08-28T14:14:35Z</time>
      </trkpt>
      <trkpt lat="48.29488" lon="2.57865">
        <ele>90.400002</ele>
        <time>2010-08-28T14:14:40Z</time>
      </trkpt>
      <trkpt lat="48.29488" lon="2.57865">
        <ele>90.400002</ele>
        <time>2010-08-28T14:14:45Z</time>
      </trkpt>
      <trkpt lat="48.29488" lon="2.57865">
        <ele>90.400002</ele>
        <time>2010-08-28T14:14:50Z</time>
      </trkpt>
      <trkpt lat="48.29488" lon="2.57865">
        <ele>90.400002</ele>
        <time>2010-08-28T14:14:55Z</time>
      </trkpt>
      <trkpt lat="48.29488" lon="2.57865">
        <ele>90.400002</ele>
        <time>2010-08-28T14:15:00Z</time>
      </trkpt>
      <trkpt lat="48.29488" lon="2.57865">
        <ele>90.400002</ele>
        <time>2010-08-28T14:15:05Z</time>
      </trkpt>
      <trkpt lat="48.29488" lon="2.57865">
        <ele>90.400002</ele>
        <time>2010-08-28T14:15:10Z</time>
      </trkpt>
      <trkpt lat="48.29488" lon="2.57865">
        <ele>90.400002</ele>
        <time>2010-08-28T14:15:15Z</time>
      </trkpt>
      <trkpt lat="48.29488" lon="2.57865">
        <ele>90.400002</ele>
        <time>2010-08-28T14:15:20Z</time>
      </trkpt>
      <trkpt lat="48.29488" lon="2.57865">
        <ele>90.400002</ele>
        <time>2010-08-28T14:15:25Z</time>
      </trkpt>
      <trkpt lat="48.29488" lon="2.57865">
        <ele>90.400002</ele>
        <time>2010-08-28T14:15:30Z</time>
      </trkpt>
      <trkpt lat="48.29488" lon="2.57865">
        <ele>90.400002</ele>
        <time>2010-08-28T14:15:35Z</time>
      </trkpt>
      <trkpt lat="48.29488" lon="2.57865">
        <ele>90.400002</ele>
        <time>2010-08-28T14:15:40Z</time>
      </trkpt>
      <trkpt lat="48.29488" lon="2.57865">
        <ele>90.400002</ele>
        <time>2010-08-28T14:15:45Z</time>
      </trkpt>
      <trkpt lat="48.29488" lon="2.57865">
        <ele>90.400002</ele>
        <time>2010-08-28T14:15:50Z</time>
      </trkpt>
      <trkpt lat="48.29488" lon="2.57865">
        <ele>90.400002</ele>
        <time>2010-08-28T14:15:55Z</time>
      </trkpt>
      <trkpt lat="48.29488" lon="2.57865">
        <ele>90.400002</ele>
        <time>2010-08-28T14:16:00Z</time>
      </trkpt>
      <trkpt lat="48.29488" lon="2.57865">
        <ele>90.400002</ele>
        <time>2010-08-28T14:16:05Z</time>
      </trkpt>
      <trkpt lat="48.29501" lon="2.57845">
        <ele>105.790001</ele>
        <time>2010-08-28T14:16:10Z</time>
      </trkpt>
      <trkpt lat="48.29502" lon="2.57837">
        <ele>102.559998</ele>
        <time>2010-08-28T14:16:15Z</time>
      </trkpt>
      <trkpt lat="48.29504" lon="2.57834">
        <ele>102.449997</ele>
        <time>2010-08-28T14:16:20Z</time>
      </trkpt>
      <trkpt lat="48.29504" lon="2.57834">
        <ele>102.449997</ele>
        <time>2010-08-28T14:16:25Z</time>
      </trkpt>
      <trkpt lat="48.29508" lon="2.57828">
        <ele>98.119995</ele>
        <time>2010-08-28T14:16:30Z</time>
      </trkpt>
      <trkpt lat="48.29511" lon="2.57818">
        <ele>96.059998</ele>
        <time>2010-08-28T14:16:35Z</time>
      </trkpt>
      <trkpt lat="48.29511" lon="2.57818">
        <ele>96.059998</ele>
        <time>2010-08-28T14:16:39Z</time>
      </trkpt>
      <trkpt lat="48.29512" lon="2.57804">
        <ele>98.360001</ele>
        <time>2010-08-28T14:16:44Z</time>
      </trkpt>
      <trkpt lat="48.29512" lon="2.57804">
        <ele>98.360001</ele>
        <time>2010-08-28T14:16:49Z</time>
      </trkpt>
      <trkpt lat="48.29518" lon="2.57794">
        <ele>99.269997</ele>
        <time>2010-08-28T14:16:54Z</time>
      </trkpt>
      <trkpt lat="48.29522" lon="2.57795">
        <ele>100.25</ele>
        <time>2010-08-28T14:16:59Z</time>
      </trkpt>
      <trkpt lat="48.29525" lon="2.57794">
        <ele>101.150002</ele>
        <time>2010-08-28T14:17:04Z</time>
      </trkpt>
      <trkpt lat="48.29527" lon="2.57792">
        <ele>103.629997</ele>
        <time>2010-08-28T14:17:09Z</time>
      </trkpt>
      <trkpt lat="48.29531" lon="2.57792">
        <ele>104.019997</ele>
        <time>2010-08-28T14:17:14Z</time>
      </trkpt>
      <trkpt lat="48.29532" lon="2.57792">
        <ele>104.239998</ele>
        <time>2010-08-28T14:17:19Z</time>
      </trkpt>
      <trkpt lat="48.29532" lon="2.57792">
        <ele>104.239998</ele>
        <time>2010-08-28T14:17:24Z</time>
      </trkpt>
      <trkpt lat="48.29532" lon="2.57792">
        <ele>104.239998</ele>
        <time>2010-08-28T14:17:29Z</time>
      </trkpt>
      <trkpt lat="48.29532" lon="2.57792">
        <ele>104.239998</ele>
        <time>2010-08-28T14:17:34Z</time>
      </trkpt>
      <trkpt lat="48.29532" lon="2.57792">
        <ele>104.239998</ele>
        <time>2010-08-28T14:17:39Z</time>
      </trkpt>
      <trkpt lat="48.29536" lon="2.57791">
        <ele>102.389999</ele>
        <time>2010-08-28T14:17:44Z</time>
      </trkpt>
      <trkpt lat="48.2954" lon="2.57789">
        <ele>102.709999</ele>
        <time>2010-08-28T14:17:49Z</time>
      </trkpt>
      <trkpt lat="48.2954" lon="2.57788">
        <ele>102.599998</ele>
        <time>2010-08-28T14:17:53Z</time>
      </trkpt>
      <trkpt lat="48.29549" lon="2.5778">
        <ele>102.729996</ele>
        <time>2010-08-28T14:17:58Z</time>
      </trkpt>
      <trkpt lat="48.29556" lon="2.57775">
        <ele>101.459999</ele>
        <time>2010-08-28T14:18:04Z</time>
      </trkpt>
      <trkpt lat="48.29556" lon="2.57772">
        <ele>99.909996</ele>
        <time>2010-08-28T14:18:09Z</time>
      </trkpt>
      <trkpt lat="48.29563" lon="2.57767">
        <ele>98.43</ele>
        <time>2010-08-28T14:18:14Z</time>
      </trkpt>
      <trkpt lat="48.29567" lon="2.57761">
        <ele>97.040001</ele>
        <time>2010-08-28T14:18:19Z</time>
      </trkpt>
      <trkpt lat="48.29575" lon="2.5776">
        <ele>96.849998</ele>
        <time>2010-08-28T14:18:24Z</time>
      </trkpt>
      <trkpt lat="48.2958" lon="2.57759">
        <ele>96.729996</ele>
        <time>2010-08-28T14:18:29Z</time>
      </trkpt>
      <trkpt lat="48.29589" lon="2.57749">
        <ele>104.720001</ele>
        <time>2010-08-28T14:18:34Z</time>
      </trkpt>
      <trkpt lat="48.29593" lon="2.57755">
        <ele>107.699997</ele>
        <time>2010-08-28T14:18:39Z</time>
      </trkpt>
      <trkpt lat="48.29593" lon="2.57755">
        <ele>107.699997</ele>
        <time>2010-08-28T14:18:44Z</time>
      </trkpt>
      <trkpt lat="48.296" lon="2.57766">
        <ele>113.599998</ele>
        <time>2010-08-28T14:18:49Z</time>
      </trkpt>
      <trkpt lat="48.296" lon="2.57766">
        <ele>113.599998</ele>
        <time>2010-08-28T14:18:54Z</time>
      </trkpt>
      <trkpt lat="48.296" lon="2.57766">
        <ele>113.599998</ele>
        <time>2010-08-28T14:18:59Z</time>
      </trkpt>
      <trkpt lat="48.296" lon="2.57766">
        <ele>113.599998</ele>
        <time>2010-08-28T14:19:04Z</time>
      </trkpt>
      <trkpt lat="48.29612" lon="2.5776">
        <ele>109.379997</ele>
        <time>2010-08-28T14:19:09Z</time>
      </trkpt>
      <trkpt lat="48.29616" lon="2.57757">
        <ele>110.799995</ele>
        <time>2010-08-28T14:19:14Z</time>
      </trkpt>
      <trkpt lat="48.29617" lon="2.57764">
        <ele>111.040001</ele>
        <time>2010-08-28T14:19:19Z</time>
      </trkpt>
      <trkpt lat="48.29617" lon="2.57764">
        <ele>111.040001</ele>
        <time>2010-08-28T14:19:24Z</time>
      </trkpt>
      <trkpt lat="48.29617" lon="2.57764">
        <ele>111.040001</ele>
        <time>2010-08-28T14:19:29Z</time>
      </trkpt>
      <trkpt lat="48.29623" lon="2.57778">
        <ele>117.290001</ele>
        <time>2010-08-28T14:19:34Z</time>
      </trkpt>
      <trkpt lat="48.29629" lon="2.57784">
        <ele>117.860001</ele>
        <time>2010-08-28T14:19:39Z</time>
      </trkpt>
      <trkpt lat="48.29628" lon="2.57792">
        <ele>119.469994</ele>
        <time>2010-08-28T14:19:44Z</time>
      </trkpt>
      <trkpt lat="48.29628" lon="2.57794">
        <ele>117.75</ele>
        <time>2010-08-28T14:19:49Z</time>
      </trkpt>
      <trkpt lat="48.29628" lon="2.57794">
        <ele>117.75</ele>
        <time>2010-08-28T14:19:54Z</time>
      </trkpt>
      <trkpt lat="48.29628" lon="2.57794">
        <ele>117.75</ele>
        <time>2010-08-28T14:19:59Z</time>
      </trkpt>
      <trkpt lat="48.29637" lon="2.57822">
        <ele>111.729996</ele>
        <time>2010-08-28T14:20:04Z</time>
      </trkpt>
      <trkpt lat="48.2964" lon="2.57825">
        <ele>110.019997</ele>
        <time>2010-08-28T14:20:09Z</time>
      </trkpt>
      <trkpt lat="48.2964" lon="2.57825">
        <ele>110.019997</ele>
        <time>2010-08-28T14:20:14Z</time>
      </trkpt>
      <trkpt lat="48.2964" lon="2.57825">
        <ele>110.019997</ele>
        <time>2010-08-28T14:20:19Z</time>
      </trkpt>
      <trkpt lat="48.2964" lon="2.57825">
        <ele>110.019997</ele>
        <time>2010-08-28T14:20:24Z</time>
      </trkpt>
      <trkpt lat="48.29651" lon="2.57841">
        <ele>120.519997</ele>
        <time>2010-08-28T14:20:29Z</time>
      </trkpt>
      <trkpt lat="48.29653" lon="2.57837">
        <ele>122.199997</ele>
        <time>2010-08-28T14:20:34Z</time>
      </trkpt>
      <trkpt lat="48.29656" lon="2.57834">
        <ele>123.43</ele>
        <time>2010-08-28T14:20:39Z</time>
      </trkpt>
      <trkpt lat="48.29659" lon="2.57831">
        <ele>124.329994</ele>
        <time>2010-08-28T14:20:44Z</time>
      </trkpt>
      <trkpt lat="48.29659" lon="2.57831">
        <ele>124.549995</ele>
        <time>2010-08-28T14:20:49Z</time>
      </trkpt>
      <trkpt lat="48.29666" lon="2.57835">
        <ele>124.029999</ele>
        <time>2010-08-28T14:20:54Z</time>
      </trkpt>
      <trkpt lat="48.29672" lon="2.57835">
        <ele>124.879997</ele>
        <time>2010-08-28T14:20:59Z</time>
      </trkpt>
      <trkpt lat="48.29679" lon="2.5784">
        <ele>124.699997</ele>
        <time>2010-08-28T14:21:04Z</time>
      </trkpt>
      <trkpt lat="48.29683" lon="2.5784">
        <ele>118.259995</ele>
        <time>2010-08-28T14:21:09Z</time>
      </trkpt>
      <trkpt lat="48.29683" lon="2.5784">
        <ele>118.259995</ele>
        <time>2010-08-28T14:21:14Z</time>
      </trkpt>
      <trkpt lat="48.29694" lon="2.57851">
        <ele>111.799995</ele>
        <time>2010-08-28T14:21:19Z</time>
      </trkpt>
      <trkpt lat="48.29694" lon="2.57851">
        <ele>112.159996</ele>
        <time>2010-08-28T14:21:24Z</time>
      </trkpt>
      <trkpt lat="48.29702" lon="2.57858">
        <ele>112.860001</ele>
        <time>2010-08-28T14:21:29Z</time>
      </trkpt>
      <trkpt lat="48.29703" lon="2.57858">
        <ele>113.290001</ele>
        <time>2010-08-28T14:21:34Z</time>
      </trkpt>
      <trkpt lat="48.29703" lon="2.57858">
        <ele>113.290001</ele>
        <time>2010-08-28T14:21:39Z</time>
      </trkpt>
      <trkpt lat="48.29705" lon="2.57874">
        <ele>121.669998</ele>
        <time>2010-08-28T14:21:44Z</time>
      </trkpt>
      <trkpt lat="48.29708" lon="2.57879">
        <ele>122.82</ele>
        <time>2010-08-28T14:21:49Z</time>
      </trkpt>
      <trkpt lat="48.29712" lon="2.57886">
        <ele>123.790001</ele>
        <time>2010-08-28T14:21:54Z</time>
      </trkpt>
      <trkpt lat="48.29712" lon="2.57887">
        <ele>124.079994</ele>
        <time>2010-08-28T14:21:59Z</time>
      </trkpt>
      <trkpt lat="48.29718" lon="2.5789">
        <ele>126.540001</ele>
        <time>2010-08-28T14:22:04Z</time>
      </trkpt>
      <trkpt lat="48.29718" lon="2.5789">
        <ele>126.540001</ele>
        <time>2010-08-28T14:22:09Z</time>
      </trkpt>
      <trkpt lat="48.29726" lon="2.57897">
        <ele>126.110001</ele>
        <time>2010-08-28T14:22:14Z</time>
      </trkpt>
      <trkpt lat="48.29729" lon="2.57903">
        <ele>123.349998</ele>
        <time>2010-08-28T14:22:19Z</time>
      </trkpt>
      <trkpt lat="48.29731" lon="2.57909">
        <ele>121.93</ele>
        <time>2010-08-28T14:22:24Z</time>
      </trkpt>
      <trkpt lat="48.29731" lon="2.57912">
        <ele>123.129997</ele>
        <time>2010-08-28T14:22:29Z</time>
      </trkpt>
      <trkpt lat="48.29731" lon="2.57912">
        <ele>123.129997</ele>
        <time>2010-08-28T14:22:34Z</time>
      </trkpt>
      <trkpt lat="48.29737" lon="2.57921">
        <ele>118.149994</ele>
        <time>2010-08-28T14:22:39Z</time>
      </trkpt>
      <trkpt lat="48.29737" lon="2.57921">
        <ele>118.149994</ele>
        <time>2010-08-28T14:22:43Z</time>
      </trkpt>
      <trkpt lat="48.29737" lon="2.57921">
        <ele>118.149994</ele>
        <time>2010-08-28T14:22:48Z</time>
      </trkpt>
      <trkpt lat="48.29737" lon="2.57921">
        <ele>118.149994</ele>
        <time>2010-08-28T14:22:53Z</time>
      </trkpt>
      <trkpt lat="48.29737" lon="2.57921">
        <ele>118.149994</ele>
        <time>2010-08-28T14:22:58Z</time>
      </trkpt>
      <trkpt lat="48.29752" lon="2.57943">
        <ele>107.699997</ele>
        <time>2010-08-28T14:23:03Z</time>
      </trkpt>
      <trkpt lat="48.29752" lon="2.57943">
        <ele>107.699997</ele>
        <time>2010-08-28T14:23:07Z</time>
      </trkpt>
      <trkpt lat="48.29752" lon="2.57943">
        <ele>107.699997</ele>
        <time>2010-08-28T14:23:12Z</time>
      </trkpt>
      <trkpt lat="48.29752" lon="2.57943">
        <ele>107.699997</ele>
        <time>2010-08-28T14:23:17Z</time>
      </trkpt>
      <trkpt lat="48.29752" lon="2.57943">
        <ele>107.699997</ele>
        <time>2010-08-28T14:23:22Z</time>
      </trkpt>
      <trkpt lat="48.29752" lon="2.57943">
        <ele>107.699997</ele>
        <time>2010-08-28T14:23:27Z</time>
      </trkpt>
      <trkpt lat="48.29752" lon="2.57943">
        <ele>107.699997</ele>
        <time>2010-08-28T14:23:32Z</time>
      </trkpt>
      <trkpt lat="48.29752" lon="2.57943">
        <ele>107.699997</ele>
        <time>2010-08-28T14:23:37Z</time>
      </trkpt>
      <trkpt lat="48.29752" lon="2.57943">
        <ele>107.699997</ele>
        <time>2010-08-28T14:23:42Z</time>
      </trkpt>
      <trkpt lat="48.29752" lon="2.57943">
        <ele>107.699997</ele>
        <time>2010-08-28T14:23:47Z</time>
      </trkpt>
      <trkpt lat="48.29752" lon="2.57943">
        <ele>107.699997</ele>
        <time>2010-08-28T14:23:52Z</time>
      </trkpt>
      <trkpt lat="48.29738" lon="2.57989">
        <ele>100.199997</ele>
        <time>2010-08-28T14:23:57Z</time>
      </trkpt>
      <trkpt lat="48.29736" lon="2.57991">
        <ele>99.729996</ele>
        <time>2010-08-28T14:24:02Z</time>
      </trkpt>
      <trkpt lat="48.29736" lon="2.57991">
        <ele>99.729996</ele>
        <time>2010-08-28T14:24:07Z</time>
      </trkpt>
      <trkpt lat="48.29736" lon="2.57991">
        <ele>99.729996</ele>
        <time>2010-08-28T14:24:12Z</time>
      </trkpt>
      <trkpt lat="48.29736" lon="2.57991">
        <ele>99.729996</ele>
        <time>2010-08-28T14:24:17Z</time>
      </trkpt>
      <trkpt lat="48.29736" lon="2.57991">
        <ele>99.729996</ele>
        <time>2010-08-28T14:24:22Z</time>
      </trkpt>
      <trkpt lat="48.29736" lon="2.57991">
        <ele>99.729996</ele>
        <time>2010-08-28T14:24:27Z</time>
      </trkpt>
      <trkpt lat="48.29736" lon="2.57991">
        <ele>99.729996</ele>
        <time>2010-08-28T14:24:32Z</time>
      </trkpt>
      <trkpt lat="48.29736" lon="2.57991">
        <ele>99.729996</ele>
        <time>2010-08-28T14:24:37Z</time>
      </trkpt>
      <trkpt lat="48.29736" lon="2.57991">
        <ele>99.729996</ele>
        <time>2010-08-28T14:24:42Z</time>
      </trkpt>
      <trkpt lat="48.29736" lon="2.57991">
        <ele>99.729996</ele>
        <time>2010-08-28T14:24:47Z</time>
      </trkpt>
      <trkpt lat="48.29736" lon="2.57991">
        <ele>99.729996</ele>
        <time>2010-08-28T14:24:52Z</time>
      </trkpt>
      <trkpt lat="48.29736" lon="2.57991">
        <ele>99.729996</ele>
        <time>2010-08-28T14:24:57Z</time>
      </trkpt>
      <trkpt lat="48.29713" lon="2.58006">
        <ele>112.970001</ele>
        <time>2010-08-28T14:25:02Z</time>
      </trkpt>
      <trkpt lat="48.2972" lon="2.58013">
        <ele>112.669998</ele>
        <time>2010-08-28T14:25:07Z</time>
      </trkpt>
      <trkpt lat="48.29724" lon="2.58013">
        <ele>107.93</ele>
        <time>2010-08-28T14:25:12Z</time>
      </trkpt>
      <trkpt lat="48.29724" lon="2.58013">
        <ele>107.93</ele>
        <time>2010-08-28T14:25:17Z</time>
      </trkpt>
      <trkpt lat="48.29724" lon="2.58013">
        <ele>107.93</ele>
        <time>2010-08-28T14:25:22Z</time>
      </trkpt>
      <trkpt lat="48.2974" lon="2.58018">
        <ele>111.419998</ele>
        <time>2010-08-28T14:25:27Z</time>
      </trkpt>
      <trkpt lat="48.29741" lon="2.58018">
        <ele>114.829994</ele>
        <time>2010-08-28T14:25:32Z</time>
      </trkpt>
      <trkpt lat="48.29741" lon="2.58018">
        <ele>114.829994</ele>
        <time>2010-08-28T14:25:37Z</time>
      </trkpt>
      <trkpt lat="48.29741" lon="2.58018">
        <ele>114.829994</ele>
        <time>2010-08-28T14:25:42Z</time>
      </trkpt>
      <trkpt lat="48.29753" lon="2.5802">
        <ele>113.229996</ele>
        <time>2010-08-28T14:25:47Z</time>
      </trkpt>
      <trkpt lat="48.29759" lon="2.58025">
        <ele>111.329994</ele>
        <time>2010-08-28T14:25:52Z</time>
      </trkpt>
      <trkpt lat="48.29759" lon="2.58025">
        <ele>111.329994</ele>
        <time>2010-08-28T14:25:57Z</time>
      </trkpt>
      <trkpt lat="48.29759" lon="2.58025">
        <ele>111.329994</ele>
        <time>2010-08-28T14:26:02Z</time>
      </trkpt>
      <trkpt lat="48.29759" lon="2.58025">
        <ele>111.329994</ele>
        <time>2010-08-28T14:26:07Z</time>
      </trkpt>
      <trkpt lat="48.29759" lon="2.58025">
        <ele>111.329994</ele>
        <time>2010-08-28T14:26:12Z</time>
      </trkpt>
      <trkpt lat="48.29781" lon="2.58053">
        <ele>104.93</ele>
        <time>2010-08-28T14:26:17Z</time>
      </trkpt>
      <trkpt lat="48.29786" lon="2.58059">
        <ele>104.18</ele>
        <time>2010-08-28T14:26:22Z</time>
      </trkpt>
      <trkpt lat="48.29786" lon="2.58059">
        <ele>104.18</ele>
        <time>2010-08-28T14:26:27Z</time>
      </trkpt>
      <trkpt lat="48.29796" lon="2.58075">
        <ele>104.43</ele>
        <time>2010-08-28T14:26:32Z</time>
      </trkpt>
      <trkpt lat="48.29798" lon="2.58076">
        <ele>102.589996</ele>
        <time>2010-08-28T14:26:37Z</time>
      </trkpt>
      <trkpt lat="48.29798" lon="2.58076">
        <ele>102.589996</ele>
        <time>2010-08-28T14:26:42Z</time>
      </trkpt>
      <trkpt lat="48.29798" lon="2.58076">
        <ele>102.589996</ele>
        <time>2010-08-28T14:26:47Z</time>
      </trkpt>
      <trkpt lat="48.29809" lon="2.58081">
        <ele>98.409996</ele>
        <time>2010-08-28T14:26:52Z</time>
      </trkpt>
      <trkpt lat="48.29814" lon="2.58082">
        <ele>97.939995</ele>
        <time>2010-08-28T14:26:57Z</time>
      </trkpt>
      <trkpt lat="48.29819" lon="2.58081">
        <ele>99.089996</ele>
        <time>2010-08-28T14:27:02Z</time>
      </trkpt>
      <trkpt lat="48.29823" lon="2.58078">
        <ele>100.519997</ele>
        <time>2010-08-28T14:27:07Z</time>
      </trkpt>
      <trkpt lat="48.29832" lon="2.58076">
        <ele>98.75</ele>
        <time>2010-08-28T14:27:12Z</time>
      </trkpt>
      <trkpt lat="48.29834" lon="2.58074">
        <ele>96.949997</ele>
        <time>2010-08-28T14:27:17Z</time>
      </trkpt>
      <trkpt lat="48.29834" lon="2.58074">
        <ele>96.949997</ele>
        <time>2010-08-28T14:27:22Z</time>
      </trkpt>
      <trkpt lat="48.29841" lon="2.58055">
        <ele>95.909996</ele>
        <time>2010-08-28T14:27:27Z</time>
      </trkpt>
      <trkpt lat="48.29843" lon="2.58047">
        <ele>95.470001</ele>
        <time>2010-08-28T14:27:32Z</time>
      </trkpt>
      <trkpt lat="48.29845" lon="2.58043">
        <ele>94.489998</ele>
        <time>2010-08-28T14:27:37Z</time>
      </trkpt>
      <trkpt lat="48.29845" lon="2.58043">
        <ele>94.489998</ele>
        <time>2010-08-28T14:27:42Z</time>
      </trkpt>
      <trkpt lat="48.29845" lon="2.58043">
        <ele>94.489998</ele>
        <time>2010-08-28T14:27:47Z</time>
      </trkpt>
      <trkpt lat="48.29845" lon="2.58043">
        <ele>94.489998</ele>
        <time>2010-08-28T14:27:52Z</time>
      </trkpt>
      <trkpt lat="48.29852" lon="2.5804">
        <ele>97.610001</ele>
        <time>2010-08-28T14:27:57Z</time>
      </trkpt>
      <trkpt lat="48.29857" lon="2.58039">
        <ele>97.379997</ele>
        <time>2010-08-28T14:28:02Z</time>
      </trkpt>
      <trkpt lat="48.29857" lon="2.58039">
        <ele>97.379997</ele>
        <time>2010-08-28T14:28:07Z</time>
      </trkpt>
      <trkpt lat="48.29857" lon="2.58039">
        <ele>97.379997</ele>
        <time>2010-08-28T14:28:12Z</time>
      </trkpt>
      <trkpt lat="48.29857" lon="2.58039">
        <ele>97.379997</ele>
        <time>2010-08-28T14:28:17Z</time>
      </trkpt>
      <trkpt lat="48.29866" lon="2.58043">
        <ele>97.220001</ele>
        <time>2010-08-28T14:28:22Z</time>
      </trkpt>
      <trkpt lat="48.29871" lon="2.5805">
        <ele>96.75</ele>
        <time>2010-08-28T14:28:27Z</time>
      </trkpt>
      <trkpt lat="48.29876" lon="2.58057">
        <ele>96.269997</ele>
        <time>2010-08-28T14:28:32Z</time>
      </trkpt>
      <trkpt lat="48.29877" lon="2.58064">
        <ele>95</ele>
        <time>2010-08-28T14:28:37Z</time>
      </trkpt>
      <trkpt lat="48.29879" lon="2.58071">
        <ele>95.269997</ele>
        <time>2010-08-28T14:28:42Z</time>
      </trkpt>
      <trkpt lat="48.29881" lon="2.5808">
        <ele>94.259995</ele>
        <time>2010-08-28T14:28:47Z</time>
      </trkpt>
      <trkpt lat="48.29887" lon="2.58083">
        <ele>100.790001</ele>
        <time>2010-08-28T14:28:52Z</time>
      </trkpt>
      <trkpt lat="48.29889" lon="2.58095">
        <ele>109.959999</ele>
        <time>2010-08-28T14:28:57Z</time>
      </trkpt>
      <trkpt lat="48.29894" lon="2.58103">
        <ele>109.619995</ele>
        <time>2010-08-28T14:29:02Z</time>
      </trkpt>
      <trkpt lat="48.29894" lon="2.58112">
        <ele>109.809998</ele>
        <time>2010-08-28T14:29:07Z</time>
      </trkpt>
      <trkpt lat="48.29895" lon="2.58118">
        <ele>108.889999</ele>
        <time>2010-08-28T14:29:12Z</time>
      </trkpt>
      <trkpt lat="48.29895" lon="2.58118">
        <ele>108.889999</ele>
        <time>2010-08-28T14:29:17Z</time>
      </trkpt>
      <trkpt lat="48.29895" lon="2.58118">
        <ele>108.889999</ele>
        <time>2010-08-28T14:29:22Z</time>
      </trkpt>
      <trkpt lat="48.29895" lon="2.58118">
        <ele>108.889999</ele>
        <time>2010-08-28T14:29:27Z</time>
      </trkpt>
      <trkpt lat="48.299" lon="2.58135">
        <ele>110.899994</ele>
        <time>2010-08-28T14:29:32Z</time>
      </trkpt>
      <trkpt lat="48.29902" lon="2.58141">
        <ele>110.779999</ele>
        <time>2010-08-28T14:29:37Z</time>
      </trkpt>
      <trkpt lat="48.29905" lon="2.58152">
        <ele>105.169998</ele>
        <time>2010-08-28T14:29:42Z</time>
      </trkpt>
      <trkpt lat="48.29909" lon="2.58168">
        <ele>100.369995</ele>
        <time>2010-08-28T14:29:47Z</time>
      </trkpt>
      <trkpt lat="48.2991" lon="2.58178">
        <ele>100.119995</ele>
        <time>2010-08-28T14:29:52Z</time>
      </trkpt>
      <trkpt lat="48.29912" lon="2.58185">
        <ele>100.169998</ele>
        <time>2010-08-28T14:29:57Z</time>
      </trkpt>
      <trkpt lat="48.29911" lon="2.58186">
        <ele>99.720001</ele>
        <time>2010-08-28T14:30:02Z</time>
      </trkpt>
      <trkpt lat="48.29915" lon="2.58188">
        <ele>99.799995</ele>
        <time>2010-08-28T14:30:07Z</time>
      </trkpt>
      <trkpt lat="48.29916" lon="2.58196">
        <ele>98.68</ele>
        <time>2010-08-28T14:30:12Z</time>
      </trkpt>
      <trkpt lat="48.29917" lon="2.58207">
        <ele>96.869995</ele>
        <time>2010-08-28T14:30:17Z</time>
      </trkpt>
      <trkpt lat="48.29928" lon="2.5822">
        <ele>99.049995</ele>
        <time>2010-08-28T14:30:22Z</time>
      </trkpt>
      <trkpt lat="48.29926" lon="2.5823">
        <ele>94.259995</ele>
        <time>2010-08-28T14:30:27Z</time>
      </trkpt>
      <trkpt lat="48.29926" lon="2.5823">
        <ele>94.259995</ele>
        <time>2010-08-28T14:30:32Z</time>
      </trkpt>
      <trkpt lat="48.2993" lon="2.58243">
        <ele>93.079994</ele>
        <time>2010-08-28T14:30:37Z</time>
      </trkpt>
      <trkpt lat="48.29933" lon="2.58249">
        <ele>93.699997</ele>
        <time>2010-08-28T14:30:42Z</time>
      </trkpt>
      <trkpt lat="48.29934" lon="2.58254">
        <ele>93.509995</ele>
        <time>2010-08-28T14:30:47Z</time>
      </trkpt>
      <trkpt lat="48.29934" lon="2.58254">
        <ele>93.509995</ele>
        <time>2010-08-28T14:30:52Z</time>
      </trkpt>
      <trkpt lat="48.29934" lon="2.58254">
        <ele>93.509995</ele>
        <time>2010-08-28T14:30:57Z</time>
      </trkpt>
      <trkpt lat="48.29934" lon="2.58268">
        <ele>92.449997</ele>
        <time>2010-08-28T14:31:02Z</time>
      </trkpt>
      <trkpt lat="48.29934" lon="2.58271">
        <ele>92.409996</ele>
        <time>2010-08-28T14:31:07Z</time>
      </trkpt>
      <trkpt lat="48.29934" lon="2.58271">
        <ele>92.409996</ele>
        <time>2010-08-28T14:31:12Z</time>
      </trkpt>
      <trkpt lat="48.29934" lon="2.58271">
        <ele>92.409996</ele>
        <time>2010-08-28T14:31:17Z</time>
      </trkpt>
      <trkpt lat="48.29934" lon="2.58271">
        <ele>92.409996</ele>
        <time>2010-08-28T14:31:22Z</time>
      </trkpt>
      <trkpt lat="48.29934" lon="2.58271">
        <ele>92.409996</ele>
        <time>2010-08-28T14:31:27Z</time>
      </trkpt>
      <trkpt lat="48.29934" lon="2.58271">
        <ele>92.409996</ele>
        <time>2010-08-28T14:31:32Z</time>
      </trkpt>
      <trkpt lat="48.29934" lon="2.58271">
        <ele>92.409996</ele>
        <time>2010-08-28T14:31:37Z</time>
      </trkpt>
      <trkpt lat="48.29934" lon="2.58284">
        <ele>90.049995</ele>
        <time>2010-08-28T14:31:42Z</time>
      </trkpt>
      <trkpt lat="48.29936" lon="2.5829">
        <ele>86.799995</ele>
        <time>2010-08-28T14:31:47Z</time>
      </trkpt>
      <trkpt lat="48.29939" lon="2.58296">
        <ele>84.739998</ele>
        <time>2010-08-28T14:31:52Z</time>
      </trkpt>
      <trkpt lat="48.29937" lon="2.58304">
        <ele>83.419998</ele>
        <time>2010-08-28T14:31:57Z</time>
      </trkpt>
      <trkpt lat="48.29938" lon="2.58313">
        <ele>82.949997</ele>
        <time>2010-08-28T14:32:02Z</time>
      </trkpt>
      <trkpt lat="48.2994" lon="2.58319">
        <ele>82.669998</ele>
        <time>2010-08-28T14:32:07Z</time>
      </trkpt>
      <trkpt lat="48.29942" lon="2.58327">
        <ele>82.659996</ele>
        <time>2010-08-28T14:32:11Z</time>
      </trkpt>
      <trkpt lat="48.2994" lon="2.58329">
        <ele>83.809998</ele>
        <time>2010-08-28T14:32:16Z</time>
      </trkpt>
      <trkpt lat="48.2994" lon="2.58329">
        <ele>83.809998</ele>
        <time>2010-08-28T14:32:21Z</time>
      </trkpt>
      <trkpt lat="48.2994" lon="2.58329">
        <ele>83.809998</ele>
        <time>2010-08-28T14:32:26Z</time>
      </trkpt>
      <trkpt lat="48.2994" lon="2.58329">
        <ele>83.809998</ele>
        <time>2010-08-28T14:32:31Z</time>
      </trkpt>
      <trkpt lat="48.29949" lon="2.58359">
        <ele>84.419998</ele>
        <time>2010-08-28T14:32:36Z</time>
      </trkpt>
      <trkpt lat="48.29951" lon="2.58362">
        <ele>84.519997</ele>
        <time>2010-08-28T14:32:41Z</time>
      </trkpt>
      <trkpt lat="48.29953" lon="2.58364">
        <ele>85.029999</ele>
        <time>2010-08-28T14:32:46Z</time>
      </trkpt>
      <trkpt lat="48.29959" lon="2.58369">
        <ele>86.220001</ele>
        <time>2010-08-28T14:32:51Z</time>
      </trkpt>
      <trkpt lat="48.29964" lon="2.58373">
        <ele>86.540001</ele>
        <time>2010-08-28T14:32:56Z</time>
      </trkpt>
      <trkpt lat="48.29968" lon="2.5838">
        <ele>85.709999</ele>
        <time>2010-08-28T14:33:01Z</time>
      </trkpt>
      <trkpt lat="48.29968" lon="2.58383">
        <ele>85.419998</ele>
        <time>2010-08-28T14:33:06Z</time>
      </trkpt>
      <trkpt lat="48.29971" lon="2.58393">
        <ele>85.889999</ele>
        <time>2010-08-28T14:33:11Z</time>
      </trkpt>
      <trkpt lat="48.29969" lon="2.58405">
        <ele>85.709999</ele>
        <time>2010-08-28T14:33:16Z</time>
      </trkpt>
      <trkpt lat="48.29968" lon="2.58414">
        <ele>86.830002</ele>
        <time>2010-08-28T14:33:21Z</time>
      </trkpt>
      <trkpt lat="48.29969" lon="2.58415">
        <ele>87.529999</ele>
        <time>2010-08-28T14:33:26Z</time>
      </trkpt>
      <trkpt lat="48.29969" lon="2.58415">
        <ele>87.529999</ele>
        <time>2010-08-28T14:33:31Z</time>
      </trkpt>
      <trkpt lat="48.29969" lon="2.58415">
        <ele>87.529999</ele>
        <time>2010-08-28T14:33:36Z</time>
      </trkpt>
      <trkpt lat="48.29969" lon="2.58415">
        <ele>87.529999</ele>
        <time>2010-08-28T14:33:40Z</time>
      </trkpt>
      <trkpt lat="48.29969" lon="2.58415">
        <ele>87.529999</ele>
        <time>2010-08-28T14:33:45Z</time>
      </trkpt>
      <trkpt lat="48.29975" lon="2.58419">
        <ele>72.860001</ele>
        <time>2010-08-28T14:33:50Z</time>
      </trkpt>
      <trkpt lat="48.29977" lon="2.58429">
        <ele>75.439995</ele>
        <time>2010-08-28T14:33:55Z</time>
      </trkpt>
      <trkpt lat="48.29979" lon="2.58437">
        <ele>76.959999</ele>
        <time>2010-08-28T14:34:00Z</time>
      </trkpt>
      <trkpt lat="48.29981" lon="2.58446">
        <ele>78.75</ele>
        <time>2010-08-28T14:34:05Z</time>
      </trkpt>
      <trkpt lat="48.29984" lon="2.58453">
        <ele>80.709999</ele>
        <time>2010-08-28T14:34:10Z</time>
      </trkpt>
      <trkpt lat="48.29986" lon="2.58461">
        <ele>81.769997</ele>
        <time>2010-08-28T14:34:15Z</time>
      </trkpt>
      <trkpt lat="48.29989" lon="2.58468">
        <ele>84.459999</ele>
        <time>2010-08-28T14:34:20Z</time>
      </trkpt>
      <trkpt lat="48.2999" lon="2.58477">
        <ele>84.290001</ele>
        <time>2010-08-28T14:34:25Z</time>
      </trkpt>
      <trkpt lat="48.2999" lon="2.58485">
        <ele>84.18</ele>
        <time>2010-08-28T14:34:30Z</time>
      </trkpt>
      <trkpt lat="48.2999" lon="2.58493">
        <ele>82.900002</ele>
        <time>2010-08-28T14:34:35Z</time>
      </trkpt>
      <trkpt lat="48.2999" lon="2.58493">
        <ele>82.900002</ele>
        <time>2010-08-28T14:34:40Z</time>
      </trkpt>
      <trkpt lat="48.29991" lon="2.58508">
        <ele>82.659996</ele>
        <time>2010-08-28T14:34:45Z</time>
      </trkpt>
      <trkpt lat="48.29992" lon="2.58511">
        <ele>82.989998</ele>
        <time>2010-08-28T14:34:50Z</time>
      </trkpt>
      <trkpt lat="48.29992" lon="2.58511">
        <ele>82.989998</ele>
        <time>2010-08-28T14:34:55Z</time>
      </trkpt>
      <trkpt lat="48.29992" lon="2.58511">
        <ele>82.989998</ele>
        <time>2010-08-28T14:35:00Z</time>
      </trkpt>
      <trkpt lat="48.29992" lon="2.58511">
        <ele>82.989998</ele>
        <time>2010-08-28T14:35:05Z</time>
      </trkpt>
      <trkpt lat="48.29992" lon="2.58511">
        <ele>82.989998</ele>
        <time>2010-08-28T14:35:10Z</time>
      </trkpt>
      <trkpt lat="48.29992" lon="2.58511">
        <ele>82.989998</ele>
        <time>2010-08-28T14:35:15Z</time>
      </trkpt>
      <trkpt lat="48.29992" lon="2.58511">
        <ele>82.989998</ele>
        <time>2010-08-28T14:35:20Z</time>
      </trkpt>
      <trkpt lat="48.29992" lon="2.58511">
        <ele>82.989998</ele>
        <time>2010-08-28T14:35:25Z</time>
      </trkpt>
      <trkpt lat="48.29992" lon="2.58511">
        <ele>82.989998</ele>
        <time>2010-08-28T14:35:29Z</time>
      </trkpt>
      <trkpt lat="48.29992" lon="2.58511">
        <ele>82.989998</ele>
        <time>2010-08-28T14:35:34Z</time>
      </trkpt>
      <trkpt lat="48.29992" lon="2.58511">
        <ele>82.989998</ele>
        <time>2010-08-28T14:35:39Z</time>
      </trkpt>
      <trkpt lat="48.29992" lon="2.58511">
        <ele>82.989998</ele>
        <time>2010-08-28T14:35:44Z</time>
      </trkpt>
      <trkpt lat="48.29992" lon="2.58511">
        <ele>82.989998</ele>
        <time>2010-08-28T14:35:49Z</time>
      </trkpt>
      <trkpt lat="48.29992" lon="2.58511">
        <ele>82.989998</ele>
        <time>2010-08-28T14:35:54Z</time>
      </trkpt>
      <trkpt lat="48.29969" lon="2.5852">
        <ele>79.25</ele>
        <time>2010-08-28T14:35:59Z</time>
      </trkpt>
      <trkpt lat="48.29968" lon="2.58519">
        <ele>79.189995</ele>
        <time>2010-08-28T14:36:04Z</time>
      </trkpt>
      <trkpt lat="48.29968" lon="2.58519">
        <ele>79.189995</ele>
        <time>2010-08-28T14:36:09Z</time>
      </trkpt>
      <trkpt lat="48.29968" lon="2.58519">
        <ele>79.189995</ele>
        <time>2010-08-28T14:36:14Z</time>
      </trkpt>
      <trkpt lat="48.29968" lon="2.58519">
        <ele>79.189995</ele>
        <time>2010-08-28T14:36:19Z</time>
      </trkpt>
      <trkpt lat="48.29968" lon="2.58519">
        <ele>79.189995</ele>
        <time>2010-08-28T14:36:24Z</time>
      </trkpt>
      <trkpt lat="48.29968" lon="2.58519">
        <ele>79.189995</ele>
        <time>2010-08-28T14:36:29Z</time>
      </trkpt>
      <trkpt lat="48.29968" lon="2.58519">
        <ele>79.189995</ele>
        <time>2010-08-28T14:36:34Z</time>
      </trkpt>
      <trkpt lat="48.29968" lon="2.58519">
        <ele>79.189995</ele>
        <time>2010-08-28T14:36:39Z</time>
      </trkpt>
      <trkpt lat="48.29968" lon="2.58519">
        <ele>79.189995</ele>
        <time>2010-08-28T14:36:44Z</time>
      </trkpt>
      <trkpt lat="48.29968" lon="2.58519">
        <ele>79.189995</ele>
        <time>2010-08-28T14:36:49Z</time>
      </trkpt>
      <trkpt lat="48.29968" lon="2.58519">
        <ele>79.189995</ele>
        <time>2010-08-28T14:36:54Z</time>
      </trkpt>
      <trkpt lat="48.2998" lon="2.58519">
        <ele>89.449997</ele>
        <time>2010-08-28T14:36:59Z</time>
      </trkpt>
      <trkpt lat="48.29984" lon="2.58512">
        <ele>88.059998</ele>
        <time>2010-08-28T14:37:04Z</time>
      </trkpt>
      <trkpt lat="48.29986" lon="2.58508">
        <ele>89.059998</ele>
        <time>2010-08-28T14:37:09Z</time>
      </trkpt>
      <trkpt lat="48.29994" lon="2.58502">
        <ele>85.339996</ele>
        <time>2010-08-28T14:37:14Z</time>
      </trkpt>
      <trkpt lat="48.29998" lon="2.58498">
        <ele>83.759995</ele>
        <time>2010-08-28T14:37:19Z</time>
      </trkpt>
      <trkpt lat="48.30001" lon="2.58491">
        <ele>83.400002</ele>
        <time>2010-08-28T14:37:24Z</time>
      </trkpt>
      <trkpt lat="48.30001" lon="2.58491">
        <ele>83.400002</ele>
        <time>2010-08-28T14:37:29Z</time>
      </trkpt>
      <trkpt lat="48.30009" lon="2.58481">
        <ele>81.529999</ele>
        <time>2010-08-28T14:37:34Z</time>
      </trkpt>
      <trkpt lat="48.3001" lon="2.5848">
        <ele>81.769997</ele>
        <time>2010-08-28T14:37:39Z</time>
      </trkpt>
      <trkpt lat="48.30015" lon="2.58472">
        <ele>80.559998</ele>
        <time>2010-08-28T14:37:44Z</time>
      </trkpt>
      <trkpt lat="48.30021" lon="2.58468">
        <ele>79.129997</ele>
        <time>2010-08-28T14:37:49Z</time>
      </trkpt>
      <trkpt lat="48.30028" lon="2.58475">
        <ele>78.519997</ele>
        <time>2010-08-28T14:37:54Z</time>
      </trkpt>
      <trkpt lat="48.30033" lon="2.58474">
        <ele>76.290001</ele>
        <time>2010-08-28T14:37:59Z</time>
      </trkpt>
      <trkpt lat="48.3004" lon="2.58476">
        <ele>75.909996</ele>
        <time>2010-08-28T14:38:04Z</time>
      </trkpt>
      <trkpt lat="48.30045" lon="2.58477">
        <ele>77.139999</ele>
        <time>2010-08-28T14:38:09Z</time>
      </trkpt>
      <trkpt lat="48.30045" lon="2.58477">
        <ele>77.139999</ele>
        <time>2010-08-28T14:38:14Z</time>
      </trkpt>
      <trkpt lat="48.30045" lon="2.58477">
        <ele>77.139999</ele>
        <time>2010-08-28T14:38:19Z</time>
      </trkpt>
      <trkpt lat="48.30053" lon="2.58478">
        <ele>75.639999</ele>
        <time>2010-08-28T14:38:24Z</time>
      </trkpt>
      <trkpt lat="48.30058" lon="2.58483">
        <ele>75.689995</ele>
        <time>2010-08-28T14:38:29Z</time>
      </trkpt>
      <trkpt lat="48.30062" lon="2.58484">
        <ele>75.409996</ele>
        <time>2010-08-28T14:38:34Z</time>
      </trkpt>
      <trkpt lat="48.30068" lon="2.58482">
        <ele>76.659996</ele>
        <time>2010-08-28T14:38:39Z</time>
      </trkpt>
      <trkpt lat="48.30074" lon="2.58483">
        <ele>77.830002</ele>
        <time>2010-08-28T14:38:44Z</time>
      </trkpt>
      <trkpt lat="48.3008" lon="2.58487">
        <ele>74.269997</ele>
        <time>2010-08-28T14:38:49Z</time>
      </trkpt>
      <trkpt lat="48.30082" lon="2.58493">
        <ele>73.029999</ele>
        <time>2010-08-28T14:38:54Z</time>
      </trkpt>
      <trkpt lat="48.30083" lon="2.58493">
        <ele>73.970001</ele>
        <time>2010-08-28T14:38:59Z</time>
      </trkpt>
      <trkpt lat="48.30099" lon="2.58508">
        <ele>86.009995</ele>
        <time>2010-08-28T14:39:04Z</time>
      </trkpt>
      <trkpt lat="48.301" lon="2.5851">
        <ele>86.229996</ele>
        <time>2010-08-28T14:39:09Z</time>
      </trkpt>
      <trkpt lat="48.30108" lon="2.58519">
        <ele>85.489998</ele>
        <time>2010-08-28T14:39:14Z</time>
      </trkpt>
      <trkpt lat="48.30113" lon="2.58524">
        <ele>86.849998</ele>
        <time>2010-08-28T14:39:19Z</time>
      </trkpt>
      <trkpt lat="48.30116" lon="2.58529">
        <ele>87.080002</ele>
        <time>2010-08-28T14:39:24Z</time>
      </trkpt>
      <trkpt lat="48.30123" lon="2.58536">
        <ele>86.739998</ele>
        <time>2010-08-28T14:39:29Z</time>
      </trkpt>
      <trkpt lat="48.30125" lon="2.58537">
        <ele>85.129997</ele>
        <time>2010-08-28T14:39:34Z</time>
      </trkpt>
      <trkpt lat="48.30125" lon="2.58537">
        <ele>85.129997</ele>
        <time>2010-08-28T14:39:39Z</time>
      </trkpt>
      <trkpt lat="48.30125" lon="2.58537">
        <ele>85.129997</ele>
        <time>2010-08-28T14:39:44Z</time>
      </trkpt>
      <trkpt lat="48.30135" lon="2.58542">
        <ele>81.970001</ele>
        <time>2010-08-28T14:39:48Z</time>
      </trkpt>
      <trkpt lat="48.30141" lon="2.58544">
        <ele>78.869995</ele>
        <time>2010-08-28T14:39:53Z</time>
      </trkpt>
      <trkpt lat="48.30146" lon="2.58552">
        <ele>78.349998</ele>
        <time>2010-08-28T14:39:58Z</time>
      </trkpt>
      <trkpt lat="48.3015" lon="2.58559">
        <ele>77.209999</ele>
        <time>2010-08-28T14:40:04Z</time>
      </trkpt>
      <trkpt lat="48.30153" lon="2.58566">
        <ele>76.860001</ele>
        <time>2010-08-28T14:40:08Z</time>
      </trkpt>
      <trkpt lat="48.30158" lon="2.58573">
        <ele>78.189995</ele>
        <time>2010-08-28T14:40:13Z</time>
      </trkpt>
      <trkpt lat="48.30161" lon="2.5858">
        <ele>76.470001</ele>
        <time>2010-08-28T14:40:18Z</time>
      </trkpt>
      <trkpt lat="48.30166" lon="2.58585">
        <ele>76.489998</ele>
        <time>2010-08-28T14:40:23Z</time>
      </trkpt>
      <trkpt lat="48.30171" lon="2.58587">
        <ele>76.040001</ele>
        <time>2010-08-28T14:40:29Z</time>
      </trkpt>
      <trkpt lat="48.30175" lon="2.58587">
        <ele>76.739998</ele>
        <time>2010-08-28T14:40:33Z</time>
      </trkpt>
      <trkpt lat="48.30181" lon="2.58585">
        <ele>76.869995</ele>
        <time>2010-08-28T14:40:39Z</time>
      </trkpt>
      <trkpt lat="48.30182" lon="2.58585">
        <ele>76.119995</ele>
        <time>2010-08-28T14:40:44Z</time>
      </trkpt>
      <trkpt lat="48.30189" lon="2.5859">
        <ele>75.159996</ele>
        <time>2010-08-28T14:40:48Z</time>
      </trkpt>
      <trkpt lat="48.30193" lon="2.58598">
        <ele>74.269997</ele>
        <time>2010-08-28T14:40:53Z</time>
      </trkpt>
      <trkpt lat="48.30201" lon="2.58605">
        <ele>81.019997</ele>
        <time>2010-08-28T14:40:59Z</time>
      </trkpt>
      <trkpt lat="48.30202" lon="2.58609">
        <ele>83.199997</ele>
        <time>2010-08-28T14:41:04Z</time>
      </trkpt>
      <trkpt lat="48.30209" lon="2.58616">
        <ele>85.529999</ele>
        <time>2010-08-28T14:41:08Z</time>
      </trkpt>
      <trkpt lat="48.30214" lon="2.58622">
        <ele>87.669998</ele>
        <time>2010-08-28T14:41:14Z</time>
      </trkpt>
      <trkpt lat="48.3022" lon="2.58622">
        <ele>86.529999</ele>
        <time>2010-08-28T14:41:19Z</time>
      </trkpt>
      <trkpt lat="48.30224" lon="2.58627">
        <ele>86.790001</ele>
        <time>2010-08-28T14:41:24Z</time>
      </trkpt>
      <trkpt lat="48.30224" lon="2.58627">
        <ele>86.790001</ele>
        <time>2010-08-28T14:41:29Z</time>
      </trkpt>
      <trkpt lat="48.30224" lon="2.58627">
        <ele>86.790001</ele>
        <time>2010-08-28T14:41:34Z</time>
      </trkpt>
      <trkpt lat="48.30227" lon="2.58635">
        <ele>97.089996</ele>
        <time>2010-08-28T14:41:38Z</time>
      </trkpt>
      <trkpt lat="48.30233" lon="2.5864">
        <ele>97.809998</ele>
        <time>2010-08-28T14:41:43Z</time>
      </trkpt>
      <trkpt lat="48.30236" lon="2.58646">
        <ele>97.389999</ele>
        <time>2010-08-28T14:41:48Z</time>
      </trkpt>
      <trkpt lat="48.30241" lon="2.58655">
        <ele>90.279999</ele>
        <time>2010-08-28T14:41:54Z</time>
      </trkpt>
      <trkpt lat="48.30243" lon="2.58656">
        <ele>89.040001</ele>
        <time>2010-08-28T14:41:59Z</time>
      </trkpt>
      <trkpt lat="48.30243" lon="2.58656">
        <ele>89.040001</ele>
        <time>2010-08-28T14:42:04Z</time>
      </trkpt>
      <trkpt lat="48.30246" lon="2.58679">
        <ele>88.009995</ele>
        <time>2010-08-28T14:42:09Z</time>
      </trkpt>
      <trkpt lat="48.30251" lon="2.58687">
        <ele>88.729996</ele>
        <time>2010-08-28T14:42:14Z</time>
      </trkpt>
      <trkpt lat="48.30254" lon="2.58697">
        <ele>88.049995</ele>
        <time>2010-08-28T14:42:19Z</time>
      </trkpt>
      <trkpt lat="48.30258" lon="2.58704">
        <ele>88.229996</ele>
        <time>2010-08-28T14:42:24Z</time>
      </trkpt>
      <trkpt lat="48.3026" lon="2.58714">
        <ele>88.459999</ele>
        <time>2010-08-28T14:42:29Z</time>
      </trkpt>
      <trkpt lat="48.3026" lon="2.58723">
        <ele>89.220001</ele>
        <time>2010-08-28T14:42:34Z</time>
      </trkpt>
      <trkpt lat="48.30263" lon="2.5873">
        <ele>89.519997</ele>
        <time>2010-08-28T14:42:39Z</time>
      </trkpt>
      <trkpt lat="48.30264" lon="2.58734">
        <ele>89.93</ele>
        <time>2010-08-28T14:42:44Z</time>
      </trkpt>
      <trkpt lat="48.30267" lon="2.58742">
        <ele>90.209999</ele>
        <time>2010-08-28T14:42:49Z</time>
      </trkpt>
      <trkpt lat="48.30267" lon="2.58753">
        <ele>95.349998</ele>
        <time>2010-08-28T14:42:54Z</time>
      </trkpt>
      <trkpt lat="48.30272" lon="2.58759">
        <ele>95.689995</ele>
        <time>2010-08-28T14:42:59Z</time>
      </trkpt>
      <trkpt lat="48.30275" lon="2.58768">
        <ele>94.269997</ele>
        <time>2010-08-28T14:43:04Z</time>
      </trkpt>
      <trkpt lat="48.3028" lon="2.58774">
        <ele>95</ele>
        <time>2010-08-28T14:43:09Z</time>
      </trkpt>
      <trkpt lat="48.30284" lon="2.58781">
        <ele>96.269997</ele>
        <time>2010-08-28T14:43:14Z</time>
      </trkpt>
      <trkpt lat="48.30286" lon="2.58788">
        <ele>98.309998</ele>
        <time>2010-08-28T14:43:19Z</time>
      </trkpt>
      <trkpt lat="48.30288" lon="2.58794">
        <ele>98.799995</ele>
        <time>2010-08-28T14:43:24Z</time>
      </trkpt>
      <trkpt lat="48.30291" lon="2.58803">
        <ele>98.139999</ele>
        <time>2010-08-28T14:43:29Z</time>
      </trkpt>
      <trkpt lat="48.30295" lon="2.58808">
        <ele>99.019997</ele>
        <time>2010-08-28T14:43:33Z</time>
      </trkpt>
      <trkpt lat="48.30295" lon="2.58817">
        <ele>97.68</ele>
        <time>2010-08-28T14:43:38Z</time>
      </trkpt>
      <trkpt lat="48.30303" lon="2.58823">
        <ele>97.519997</ele>
        <time>2010-08-28T14:43:44Z</time>
      </trkpt>
      <trkpt lat="48.30302" lon="2.58824">
        <ele>96.129997</ele>
        <time>2010-08-28T14:43:49Z</time>
      </trkpt>
      <trkpt lat="48.30302" lon="2.58824">
        <ele>96.129997</ele>
        <time>2010-08-28T14:43:54Z</time>
      </trkpt>
      <trkpt lat="48.30302" lon="2.58824">
        <ele>96.129997</ele>
        <time>2010-08-28T14:43:58Z</time>
      </trkpt>
      <trkpt lat="48.30302" lon="2.58824">
        <ele>96.129997</ele>
        <time>2010-08-28T14:44:04Z</time>
      </trkpt>
      <trkpt lat="48.30302" lon="2.58824">
        <ele>96.129997</ele>
        <time>2010-08-28T14:44:09Z</time>
      </trkpt>
      <trkpt lat="48.30302" lon="2.58824">
        <ele>96.129997</ele>
        <time>2010-08-28T14:44:14Z</time>
      </trkpt>
      <trkpt lat="48.30302" lon="2.58824">
        <ele>96.129997</ele>
        <time>2010-08-28T14:44:19Z</time>
      </trkpt>
      <trkpt lat="48.30302" lon="2.58824">
        <ele>96.129997</ele>
        <time>2010-08-28T14:44:24Z</time>
      </trkpt>
      <trkpt lat="48.30302" lon="2.58824">
        <ele>96.129997</ele>
        <time>2010-08-28T14:44:29Z</time>
      </trkpt>
      <trkpt lat="48.30302" lon="2.58824">
        <ele>96.129997</ele>
        <time>2010-08-28T14:44:34Z</time>
      </trkpt>
      <trkpt lat="48.30302" lon="2.58824">
        <ele>96.129997</ele>
        <time>2010-08-28T14:44:39Z</time>
      </trkpt>
      <trkpt lat="48.30302" lon="2.58824">
        <ele>96.129997</ele>
        <time>2010-08-28T14:44:44Z</time>
      </trkpt>
      <trkpt lat="48.30302" lon="2.58824">
        <ele>96.129997</ele>
        <time>2010-08-28T14:44:49Z</time>
      </trkpt>
      <trkpt lat="48.30307" lon="2.5884">
        <ele>84.549995</ele>
        <time>2010-08-28T14:44:54Z</time>
      </trkpt>
      <trkpt lat="48.30312" lon="2.58846">
        <ele>86.199997</ele>
        <time>2010-08-28T14:44:59Z</time>
      </trkpt>
      <trkpt lat="48.30317" lon="2.58855">
        <ele>86.849998</ele>
        <time>2010-08-28T14:45:04Z</time>
      </trkpt>
      <trkpt lat="48.30319" lon="2.5886">
        <ele>87.989998</ele>
        <time>2010-08-28T14:45:09Z</time>
      </trkpt>
      <trkpt lat="48.30323" lon="2.58869">
        <ele>89.159996</ele>
        <time>2010-08-28T14:45:14Z</time>
      </trkpt>
      <trkpt lat="48.30324" lon="2.58875">
        <ele>90.93</ele>
        <time>2010-08-28T14:45:19Z</time>
      </trkpt>
      <trkpt lat="48.30324" lon="2.58875">
        <ele>90.93</ele>
        <time>2010-08-28T14:45:24Z</time>
      </trkpt>
      <trkpt lat="48.30331" lon="2.58891">
        <ele>99.099998</ele>
        <time>2010-08-28T14:45:29Z</time>
      </trkpt>
      <trkpt lat="48.30334" lon="2.58899">
        <ele>99.989998</ele>
        <time>2010-08-28T14:45:34Z</time>
      </trkpt>
      <trkpt lat="48.30333" lon="2.58909">
        <ele>99.009995</ele>
        <time>2010-08-28T14:45:39Z</time>
      </trkpt>
      <trkpt lat="48.30333" lon="2.58909">
        <ele>99.009995</ele>
        <time>2010-08-28T14:45:44Z</time>
      </trkpt>
      <trkpt lat="48.30333" lon="2.58909">
        <ele>99.009995</ele>
        <time>2010-08-28T14:45:49Z</time>
      </trkpt>
      <trkpt lat="48.30333" lon="2.58909">
        <ele>99.009995</ele>
        <time>2010-08-28T14:45:54Z</time>
      </trkpt>
      <trkpt lat="48.30333" lon="2.58909">
        <ele>99.009995</ele>
        <time>2010-08-28T14:45:59Z</time>
      </trkpt>
      <trkpt lat="48.30322" lon="2.58917">
        <ele>85.82</ele>
        <time>2010-08-28T14:46:04Z</time>
      </trkpt>
      <trkpt lat="48.30317" lon="2.58927">
        <ele>84.830002</ele>
        <time>2010-08-28T14:46:09Z</time>
      </trkpt>
      <trkpt lat="48.30311" lon="2.58933">
        <ele>82.509995</ele>
        <time>2010-08-28T14:46:14Z</time>
      </trkpt>
      <trkpt lat="48.30305" lon="2.58938">
        <ele>79.849998</ele>
        <time>2010-08-28T14:46:19Z</time>
      </trkpt>
      <trkpt lat="48.303" lon="2.58943">
        <ele>78.169998</ele>
        <time>2010-08-28T14:46:24Z</time>
      </trkpt>
      <trkpt lat="48.30294" lon="2.58948">
        <ele>74.629997</ele>
        <time>2010-08-28T14:46:29Z</time>
      </trkpt>
      <trkpt lat="48.30289" lon="2.58955">
        <ele>71.900002</ele>
        <time>2010-08-28T14:46:34Z</time>
      </trkpt>
      <trkpt lat="48.30283" lon="2.58963">
        <ele>68.779999</ele>
        <time>2010-08-28T14:46:39Z</time>
      </trkpt>
      <trkpt lat="48.30277" lon="2.58968">
        <ele>67.970001</ele>
        <time>2010-08-28T14:46:44Z</time>
      </trkpt>
      <trkpt lat="48.30273" lon="2.58974">
        <ele>66.330002</ele>
        <time>2010-08-28T14:46:49Z</time>
      </trkpt>
      <trkpt lat="48.30268" lon="2.5898">
        <ele>63.689999</ele>
        <time>2010-08-28T14:46:54Z</time>
      </trkpt>
      <trkpt lat="48.30262" lon="2.58984">
        <ele>62.139999</ele>
        <time>2010-08-28T14:46:59Z</time>
      </trkpt>
      <trkpt lat="48.30257" lon="2.5899">
        <ele>59.52</ele>
        <time>2010-08-28T14:47:04Z</time>
      </trkpt>
      <trkpt lat="48.30251" lon="2.58997">
        <ele>58.299999</ele>
        <time>2010-08-28T14:47:09Z</time>
      </trkpt>
      <trkpt lat="48.30246" lon="2.59003">
        <ele>56.059998</ele>
        <time>2010-08-28T14:47:14Z</time>
      </trkpt>
      <trkpt lat="48.30241" lon="2.59009">
        <ele>56.09</ele>
        <time>2010-08-28T14:47:19Z</time>
      </trkpt>
      <trkpt lat="48.30235" lon="2.59012">
        <ele>56.719997</ele>
        <time>2010-08-28T14:47:24Z</time>
      </trkpt>
      <trkpt lat="48.30231" lon="2.59019">
        <ele>55.949997</ele>
        <time>2010-08-28T14:47:29Z</time>
      </trkpt>
      <trkpt lat="48.30227" lon="2.59021">
        <ele>55.579998</ele>
        <time>2010-08-28T14:47:34Z</time>
      </trkpt>
      <trkpt lat="48.30221" lon="2.59026">
        <ele>53.73</ele>
        <time>2010-08-28T14:47:39Z</time>
      </trkpt>
      <trkpt lat="48.30216" lon="2.59031">
        <ele>52.75</ele>
        <time>2010-08-28T14:47:44Z</time>
      </trkpt>
      <trkpt lat="48.3021" lon="2.59034">
        <ele>53.23</ele>
        <time>2010-08-28T14:47:49Z</time>
      </trkpt>
      <trkpt lat="48.30204" lon="2.59037">
        <ele>52.860001</ele>
        <time>2010-08-28T14:47:54Z</time>
      </trkpt>
      <trkpt lat="48.30197" lon="2.59039">
        <ele>53.5</ele>
        <time>2010-08-28T14:47:59Z</time>
      </trkpt>
      <trkpt lat="48.30193" lon="2.59045">
        <ele>52.32</ele>
        <time>2010-08-28T14:48:04Z</time>
      </trkpt>
      <trkpt lat="48.30192" lon="2.59048">
        <ele>52.52</ele>
        <time>2010-08-28T14:48:09Z</time>
      </trkpt>
      <trkpt lat="48.30192" lon="2.59048">
        <ele>52.52</ele>
        <time>2010-08-28T14:48:14Z</time>
      </trkpt>
      <trkpt lat="48.30174" lon="2.59058">
        <ele>75.189995</ele>
        <time>2010-08-28T14:48:19Z</time>
      </trkpt>
      <trkpt lat="48.30168" lon="2.59063">
        <ele>74.459999</ele>
        <time>2010-08-28T14:48:24Z</time>
      </trkpt>
      <trkpt lat="48.30162" lon="2.59068">
        <ele>73.919998</ele>
        <time>2010-08-28T14:48:29Z</time>
      </trkpt>
      <trkpt lat="48.30157" lon="2.59072">
        <ele>74.379997</ele>
        <time>2010-08-28T14:48:34Z</time>
      </trkpt>
      <trkpt lat="48.30156" lon="2.59073">
        <ele>74.209999</ele>
        <time>2010-08-28T14:48:39Z</time>
      </trkpt>
      <trkpt lat="48.30148" lon="2.5908">
        <ele>72.389999</ele>
        <time>2010-08-28T14:48:44Z</time>
      </trkpt>
      <trkpt lat="48.30143" lon="2.59087">
        <ele>71.939995</ele>
        <time>2010-08-28T14:48:49Z</time>
      </trkpt>
      <trkpt lat="48.30142" lon="2.59089">
        <ele>74.209999</ele>
        <time>2010-08-28T14:48:54Z</time>
      </trkpt>
      <trkpt lat="48.3013" lon="2.5909">
        <ele>77.540001</ele>
        <time>2010-08-28T14:48:59Z</time>
      </trkpt>
      <trkpt lat="48.30125" lon="2.59094">
        <ele>77.040001</ele>
        <time>2010-08-28T14:49:04Z</time>
      </trkpt>
      <trkpt lat="48.30119" lon="2.59098">
        <ele>76.669998</ele>
        <time>2010-08-28T14:49:09Z</time>
      </trkpt>
      <trkpt lat="48.30114" lon="2.59101">
        <ele>76.349998</ele>
        <time>2010-08-28T14:49:14Z</time>
      </trkpt>
      <trkpt lat="48.30109" lon="2.59105">
        <ele>74.769997</ele>
        <time>2010-08-28T14:49:19Z</time>
      </trkpt>
      <trkpt lat="48.30103" lon="2.59109">
        <ele>73.919998</ele>
        <time>2010-08-28T14:49:24Z</time>
      </trkpt>
      <trkpt lat="48.30097" lon="2.59115">
        <ele>72.43</ele>
        <time>2010-08-28T14:49:29Z</time>
      </trkpt>
      <trkpt lat="48.30095" lon="2.59118">
        <ele>72.269997</ele>
        <time>2010-08-28T14:49:34Z</time>
      </trkpt>
      <trkpt lat="48.30089" lon="2.59123">
        <ele>70.110001</ele>
        <time>2010-08-28T14:49:39Z</time>
      </trkpt>
      <trkpt lat="48.30084" lon="2.59131">
        <ele>67.400002</ele>
        <time>2010-08-28T14:49:44Z</time>
      </trkpt>
      <trkpt lat="48.30078" lon="2.59137">
        <ele>65.699997</ele>
        <time>2010-08-28T14:49:49Z</time>
      </trkpt>
      <trkpt lat="48.30073" lon="2.59143">
        <ele>64.82</ele>
        <time>2010-08-28T14:49:54Z</time>
      </trkpt>
      <trkpt lat="48.30069" lon="2.5915">
        <ele>64.889999</ele>
        <time>2010-08-28T14:49:59Z</time>
      </trkpt>
      <trkpt lat="48.30064" lon="2.59157">
        <ele>63.75</ele>
        <time>2010-08-28T14:50:04Z</time>
      </trkpt>
      <trkpt lat="48.30058" lon="2.59161">
        <ele>63.419998</ele>
        <time>2010-08-28T14:50:09Z</time>
      </trkpt>
      <trkpt lat="48.30056" lon="2.59167">
        <ele>64.199997</ele>
        <time>2010-08-28T14:50:14Z</time>
      </trkpt>
      <trkpt lat="48.30056" lon="2.59167">
        <ele>64.199997</ele>
        <time>2010-08-28T14:50:19Z</time>
      </trkpt>
      <trkpt lat="48.30049" lon="2.59174">
        <ele>63.93</ele>
        <time>2010-08-28T14:50:24Z</time>
      </trkpt>
      <trkpt lat="48.30043" lon="2.5918">
        <ele>63.439999</ele>
        <time>2010-08-28T14:50:29Z</time>
      </trkpt>
      <trkpt lat="48.30037" lon="2.59186">
        <ele>61.77</ele>
        <time>2010-08-28T14:50:34Z</time>
      </trkpt>
      <trkpt lat="48.30031" lon="2.59193">
        <ele>61.559998</ele>
        <time>2010-08-28T14:50:39Z</time>
      </trkpt>
      <trkpt lat="48.30026" lon="2.59199">
        <ele>62.119999</ele>
        <time>2010-08-28T14:50:44Z</time>
      </trkpt>
      <trkpt lat="48.30019" lon="2.59202">
        <ele>64.299995</ele>
        <time>2010-08-28T14:50:49Z</time>
      </trkpt>
      <trkpt lat="48.30013" lon="2.59207">
        <ele>64.449997</ele>
        <time>2010-08-28T14:50:54Z</time>
      </trkpt>
      <trkpt lat="48.30008" lon="2.59214">
        <ele>66.510002</ele>
        <time>2010-08-28T14:50:58Z</time>
      </trkpt>
      <trkpt lat="48.29999" lon="2.59215">
        <ele>76.619995</ele>
        <time>2010-08-28T14:51:03Z</time>
      </trkpt>
      <trkpt lat="48.2999" lon="2.59218">
        <ele>76.449997</ele>
        <time>2010-08-28T14:51:08Z</time>
      </trkpt>
      <trkpt lat="48.29987" lon="2.59225">
        <ele>77.379997</ele>
        <time>2010-08-28T14:51:13Z</time>
      </trkpt>
      <trkpt lat="48.29984" lon="2.59234">
        <ele>76.970001</ele>
        <time>2010-08-28T14:51:18Z</time>
      </trkpt>
      <trkpt lat="48.29983" lon="2.59236">
        <ele>77.68</ele>
        <time>2010-08-28T14:51:22Z</time>
      </trkpt>
      <trkpt lat="48.29983" lon="2.59236">
        <ele>77.68</ele>
        <time>2010-08-28T14:51:27Z</time>
      </trkpt>
      <trkpt lat="48.29983" lon="2.59236">
        <ele>77.68</ele>
        <time>2010-08-28T14:51:32Z</time>
      </trkpt>
      <trkpt lat="48.29983" lon="2.59236">
        <ele>77.68</ele>
        <time>2010-08-28T14:51:37Z</time>
      </trkpt>
      <trkpt lat="48.29983" lon="2.59236">
        <ele>77.68</ele>
        <time>2010-08-28T14:51:42Z</time>
      </trkpt>
      <trkpt lat="48.29983" lon="2.59236">
        <ele>77.68</ele>
        <time>2010-08-28T14:51:47Z</time>
      </trkpt>
      <trkpt lat="48.29983" lon="2.59236">
        <ele>77.68</ele>
        <time>2010-08-28T14:51:52Z</time>
      </trkpt>
      <trkpt lat="48.29983" lon="2.59236">
        <ele>77.68</ele>
        <time>2010-08-28T14:51:57Z</time>
      </trkpt>
      <trkpt lat="48.29983" lon="2.59236">
        <ele>77.68</ele>
        <time>2010-08-28T14:52:02Z</time>
      </trkpt>
      <trkpt lat="48.29983" lon="2.59236">
        <ele>77.68</ele>
        <time>2010-08-28T14:52:07Z</time>
      </trkpt>
      <trkpt lat="48.29983" lon="2.59236">
        <ele>77.68</ele>
        <time>2010-08-28T14:52:12Z</time>
      </trkpt>
      <trkpt lat="48.29983" lon="2.59236">
        <ele>77.68</ele>
        <time>2010-08-28T14:52:17Z</time>
      </trkpt>
      <trkpt lat="48.29983" lon="2.59236">
        <ele>77.68</ele>
        <time>2010-08-28T14:52:22Z</time>
      </trkpt>
      <trkpt lat="48.29983" lon="2.59236">
        <ele>77.68</ele>
        <time>2010-08-28T14:52:27Z</time>
      </trkpt>
      <trkpt lat="48.29983" lon="2.59236">
        <ele>77.68</ele>
        <time>2010-08-28T14:52:31Z</time>
      </trkpt>
      <trkpt lat="48.29983" lon="2.59236">
        <ele>77.68</ele>
        <time>2010-08-28T14:52:37Z</time>
      </trkpt>
      <trkpt lat="48.29983" lon="2.59236">
        <ele>77.68</ele>
        <time>2010-08-28T14:52:42Z</time>
      </trkpt>
      <trkpt lat="48.29983" lon="2.59236">
        <ele>77.68</ele>
        <time>2010-08-28T14:52:47Z</time>
      </trkpt>
      <trkpt lat="48.29983" lon="2.59236">
        <ele>77.68</ele>
        <time>2010-08-28T14:52:52Z</time>
      </trkpt>
      <trkpt lat="48.29983" lon="2.59236">
        <ele>77.68</ele>
        <time>2010-08-28T14:52:57Z</time>
      </trkpt>
      <trkpt lat="48.29983" lon="2.59236">
        <ele>77.68</ele>
        <time>2010-08-28T14:53:02Z</time>
      </trkpt>
      <trkpt lat="48.29983" lon="2.59236">
        <ele>77.68</ele>
        <time>2010-08-28T14:53:07Z</time>
      </trkpt>
      <trkpt lat="48.29983" lon="2.59236">
        <ele>77.68</ele>
        <time>2010-08-28T14:53:13Z</time>
      </trkpt>
      <trkpt lat="48.29983" lon="2.59236">
        <ele>77.68</ele>
        <time>2010-08-28T14:53:18Z</time>
      </trkpt>
      <trkpt lat="48.29983" lon="2.59236">
        <ele>77.68</ele>
        <time>2010-08-28T14:53:23Z</time>
      </trkpt>
      <trkpt lat="48.29983" lon="2.59236">
        <ele>77.68</ele>
        <time>2010-08-28T14:53:28Z</time>
      </trkpt>
      <trkpt lat="48.29983" lon="2.59236">
        <ele>77.68</ele>
        <time>2010-08-28T14:53:33Z</time>
      </trkpt>
      <trkpt lat="48.29983" lon="2.59236">
        <ele>77.68</ele>
        <time>2010-08-28T14:53:38Z</time>
      </trkpt>
      <trkpt lat="48.29983" lon="2.59236">
        <ele>77.68</ele>
        <time>2010-08-28T14:53:43Z</time>
      </trkpt>
      <trkpt lat="48.29983" lon="2.59236">
        <ele>77.68</ele>
        <time>2010-08-28T14:53:48Z</time>
      </trkpt>
      <trkpt lat="48.29983" lon="2.59236">
        <ele>77.68</ele>
        <time>2010-08-28T14:53:53Z</time>
      </trkpt>
      <trkpt lat="48.29983" lon="2.59236">
        <ele>77.68</ele>
        <time>2010-08-28T14:53:58Z</time>
      </trkpt>
      <trkpt lat="48.29983" lon="2.59236">
        <ele>77.68</ele>
        <time>2010-08-28T14:54:03Z</time>
      </trkpt>
      <trkpt lat="48.29983" lon="2.59236">
        <ele>77.68</ele>
        <time>2010-08-28T14:54:08Z</time>
      </trkpt>
      <trkpt lat="48.29983" lon="2.59236">
        <ele>77.68</ele>
        <time>2010-08-28T14:54:13Z</time>
      </trkpt>
      <trkpt lat="48.29983" lon="2.59236">
        <ele>77.68</ele>
        <time>2010-08-28T14:54:18Z</time>
      </trkpt>
      <trkpt lat="48.29983" lon="2.59236">
        <ele>77.68</ele>
        <time>2010-08-28T14:54:23Z</time>
      </trkpt>
      <trkpt lat="48.29983" lon="2.59236">
        <ele>77.68</ele>
        <time>2010-08-28T14:54:28Z</time>
      </trkpt>
      <trkpt lat="48.29983" lon="2.59236">
        <ele>77.68</ele>
        <time>2010-08-28T14:54:33Z</time>
      </trkpt>
      <trkpt lat="48.29963" lon="2.59253">
        <ele>75.049995</ele>
        <time>2010-08-28T14:54:38Z</time>
      </trkpt>
      <trkpt lat="48.29958" lon="2.59259">
        <ele>73.290001</ele>
        <time>2010-08-28T14:54:43Z</time>
      </trkpt>
      <trkpt lat="48.29957" lon="2.59269">
        <ele>72.25</ele>
        <time>2010-08-28T14:54:48Z</time>
      </trkpt>
      <trkpt lat="48.29954" lon="2.59276">
        <ele>69.379997</ele>
        <time>2010-08-28T14:54:53Z</time>
      </trkpt>
      <trkpt lat="48.2995" lon="2.59284">
        <ele>66.209999</ele>
        <time>2010-08-28T14:54:58Z</time>
      </trkpt>
      <trkpt lat="48.29946" lon="2.5929">
        <ele>63.369999</ele>
        <time>2010-08-28T14:55:03Z</time>
      </trkpt>
      <trkpt lat="48.29942" lon="2.5929">
        <ele>62.25</ele>
        <time>2010-08-28T14:55:08Z</time>
      </trkpt>
      <trkpt lat="48.29942" lon="2.5929">
        <ele>62.25</ele>
        <time>2010-08-28T14:55:13Z</time>
      </trkpt>
      <trkpt lat="48.29942" lon="2.5929">
        <ele>62.25</ele>
        <time>2010-08-28T14:55:18Z</time>
      </trkpt>
      <trkpt lat="48.29934" lon="2.59304">
        <ele>67.839996</ele>
        <time>2010-08-28T14:55:23Z</time>
      </trkpt>
      <trkpt lat="48.29936" lon="2.59306">
        <ele>78.220001</ele>
        <time>2010-08-28T14:55:28Z</time>
      </trkpt>
      <trkpt lat="48.29942" lon="2.59309">
        <ele>80.540001</ele>
        <time>2010-08-28T14:55:33Z</time>
      </trkpt>
      <trkpt lat="48.29947" lon="2.59311">
        <ele>82.049995</ele>
        <time>2010-08-28T14:55:38Z</time>
      </trkpt>
      <trkpt lat="48.29952" lon="2.59316">
        <ele>87.080002</ele>
        <time>2010-08-28T14:55:43Z</time>
      </trkpt>
      <trkpt lat="48.29959" lon="2.59322">
        <ele>88.129997</ele>
        <time>2010-08-28T14:55:48Z</time>
      </trkpt>
      <trkpt lat="48.29965" lon="2.59323">
        <ele>91.979996</ele>
        <time>2010-08-28T14:55:53Z</time>
      </trkpt>
      <trkpt lat="48.2997" lon="2.59328">
        <ele>92.699997</ele>
        <time>2010-08-28T14:55:58Z</time>
      </trkpt>
      <trkpt lat="48.29974" lon="2.5933">
        <ele>92.659996</ele>
        <time>2010-08-28T14:56:03Z</time>
      </trkpt>
      <trkpt lat="48.29979" lon="2.59337">
        <ele>94.769997</ele>
        <time>2010-08-28T14:56:08Z</time>
      </trkpt>
      <trkpt lat="48.29982" lon="2.59341">
        <ele>96.139999</ele>
        <time>2010-08-28T14:56:13Z</time>
      </trkpt>
      <trkpt lat="48.29983" lon="2.59341">
        <ele>96.529999</ele>
        <time>2010-08-28T14:56:18Z</time>
      </trkpt>
      <trkpt lat="48.29983" lon="2.59341">
        <ele>96.529999</ele>
        <time>2010-08-28T14:56:23Z</time>
      </trkpt>
      <trkpt lat="48.29983" lon="2.59341">
        <ele>96.529999</ele>
        <time>2010-08-28T14:56:27Z</time>
      </trkpt>
      <trkpt lat="48.29983" lon="2.59341">
        <ele>96.529999</ele>
        <time>2010-08-28T14:56:33Z</time>
      </trkpt>
      <trkpt lat="48.29983" lon="2.59341">
        <ele>96.529999</ele>
        <time>2010-08-28T14:56:38Z</time>
      </trkpt>
      <trkpt lat="48.30001" lon="2.59345">
        <ele>98.869995</ele>
        <time>2010-08-28T14:56:43Z</time>
      </trkpt>
      <trkpt lat="48.30004" lon="2.59349">
        <ele>100.07</ele>
        <time>2010-08-28T14:56:48Z</time>
      </trkpt>
      <trkpt lat="48.30005" lon="2.59359">
        <ele>100.849998</ele>
        <time>2010-08-28T14:56:52Z</time>
      </trkpt>
      <trkpt lat="48.30003" lon="2.59367">
        <ele>100.809998</ele>
        <time>2010-08-28T14:56:58Z</time>
      </trkpt>
      <trkpt lat="48.30004" lon="2.59377">
        <ele>101.639999</ele>
        <time>2010-08-28T14:57:03Z</time>
      </trkpt>
      <trkpt lat="48.30004" lon="2.59386">
        <ele>104.689995</ele>
        <time>2010-08-28T14:57:07Z</time>
      </trkpt>
      <trkpt lat="48.30005" lon="2.59389">
        <ele>104.290001</ele>
        <time>2010-08-28T14:57:12Z</time>
      </trkpt>
      <trkpt lat="48.30006" lon="2.59391">
        <ele>102.099998</ele>
        <time>2010-08-28T14:57:18Z</time>
      </trkpt>
      <trkpt lat="48.30005" lon="2.59393">
        <ele>101.900002</ele>
        <time>2010-08-28T14:57:22Z</time>
      </trkpt>
      <trkpt lat="48.30005" lon="2.59393">
        <ele>101.900002</ele>
        <time>2010-08-28T14:57:28Z</time>
      </trkpt>
      <trkpt lat="48.30005" lon="2.59393">
        <ele>101.900002</ele>
        <time>2010-08-28T14:57:33Z</time>
      </trkpt>
      <trkpt lat="48.30005" lon="2.59393">
        <ele>101.900002</ele>
        <time>2010-08-28T14:57:37Z</time>
      </trkpt>
      <trkpt lat="48.30005" lon="2.59393">
        <ele>101.900002</ele>
        <time>2010-08-28T14:57:42Z</time>
      </trkpt>
      <trkpt lat="48.30005" lon="2.59393">
        <ele>101.900002</ele>
        <time>2010-08-28T14:57:47Z</time>
      </trkpt>
      <trkpt lat="48.30005" lon="2.59393">
        <ele>101.900002</ele>
        <time>2010-08-28T14:57:53Z</time>
      </trkpt>
      <trkpt lat="48.30005" lon="2.59393">
        <ele>101.900002</ele>
        <time>2010-08-28T14:57:58Z</time>
      </trkpt>
      <trkpt lat="48.30005" lon="2.59393">
        <ele>101.900002</ele>
        <time>2010-08-28T14:58:02Z</time>
      </trkpt>
      <trkpt lat="48.30005" lon="2.59393">
        <ele>101.900002</ele>
        <time>2010-08-28T14:58:08Z</time>
      </trkpt>
      <trkpt lat="48.30005" lon="2.59393">
        <ele>101.900002</ele>
        <time>2010-08-28T14:58:13Z</time>
      </trkpt>
      <trkpt lat="48.30005" lon="2.59393">
        <ele>101.900002</ele>
        <time>2010-08-28T14:58:17Z</time>
      </trkpt>
      <trkpt lat="48.30005" lon="2.59393">
        <ele>101.900002</ele>
        <time>2010-08-28T14:58:22Z</time>
      </trkpt>
      <trkpt lat="48.30005" lon="2.59393">
        <ele>101.900002</ele>
        <time>2010-08-28T14:58:28Z</time>
      </trkpt>
      <trkpt lat="48.30005" lon="2.59393">
        <ele>101.900002</ele>
        <time>2010-08-28T14:58:33Z</time>
      </trkpt>
      <trkpt lat="48.30005" lon="2.59393">
        <ele>101.900002</ele>
        <time>2010-08-28T14:58:38Z</time>
      </trkpt>
      <trkpt lat="48.30005" lon="2.59393">
        <ele>101.900002</ele>
        <time>2010-08-28T14:58:43Z</time>
      </trkpt>
      <trkpt lat="48.30005" lon="2.59393">
        <ele>101.900002</ele>
        <time>2010-08-28T14:58:48Z</time>
      </trkpt>
      <trkpt lat="48.30005" lon="2.59393">
        <ele>101.900002</ele>
        <time>2010-08-28T14:58:53Z</time>
      </trkpt>
      <trkpt lat="48.30005" lon="2.59393">
        <ele>101.900002</ele>
        <time>2010-08-28T14:58:58Z</time>
      </trkpt>
      <trkpt lat="48.30005" lon="2.59393">
        <ele>101.900002</ele>
        <time>2010-08-28T14:59:03Z</time>
      </trkpt>
      <trkpt lat="48.30005" lon="2.59393">
        <ele>101.900002</ele>
        <time>2010-08-28T14:59:08Z</time>
      </trkpt>
      <trkpt lat="48.30005" lon="2.59393">
        <ele>101.900002</ele>
        <time>2010-08-28T14:59:13Z</time>
      </trkpt>
      <trkpt lat="48.30005" lon="2.59393">
        <ele>101.900002</ele>
        <time>2010-08-28T14:59:18Z</time>
      </trkpt>
      <trkpt lat="48.30005" lon="2.59393">
        <ele>101.900002</ele>
        <time>2010-08-28T14:59:23Z</time>
      </trkpt>
      <trkpt lat="48.30005" lon="2.59393">
        <ele>101.900002</ele>
        <time>2010-08-28T14:59:28Z</time>
      </trkpt>
      <trkpt lat="48.30005" lon="2.59393">
        <ele>101.900002</ele>
        <time>2010-08-28T14:59:33Z</time>
      </trkpt>
      <trkpt lat="48.30005" lon="2.59393">
        <ele>101.900002</ele>
        <time>2010-08-28T14:59:38Z</time>
      </trkpt>
      <trkpt lat="48.30005" lon="2.59393">
        <ele>101.900002</ele>
        <time>2010-08-28T14:59:43Z</time>
      </trkpt>
      <trkpt lat="48.30005" lon="2.59393">
        <ele>101.900002</ele>
        <time>2010-08-28T14:59:48Z</time>
      </trkpt>
      <trkpt lat="48.30005" lon="2.59393">
        <ele>101.900002</ele>
        <time>2010-08-28T14:59:53Z</time>
      </trkpt>
      <trkpt lat="48.30005" lon="2.59393">
        <ele>101.900002</ele>
        <time>2010-08-28T14:59:58Z</time>
      </trkpt>
      <trkpt lat="48.30005" lon="2.59393">
        <ele>101.900002</ele>
        <time>2010-08-28T15:00:03Z</time>
      </trkpt>
      <trkpt lat="48.30005" lon="2.59393">
        <ele>101.900002</ele>
        <time>2010-08-28T15:00:08Z</time>
      </trkpt>
      <trkpt lat="48.30005" lon="2.59393">
        <ele>101.900002</ele>
        <time>2010-08-28T15:00:13Z</time>
      </trkpt>
      <trkpt lat="48.30005" lon="2.59393">
        <ele>101.900002</ele>
        <time>2010-08-28T15:00:18Z</time>
      </trkpt>
      <trkpt lat="48.30005" lon="2.59393">
        <ele>101.900002</ele>
        <time>2010-08-28T15:00:23Z</time>
      </trkpt>
      <trkpt lat="48.30005" lon="2.59393">
        <ele>101.900002</ele>
        <time>2010-08-28T15:00:28Z</time>
      </trkpt>
      <trkpt lat="48.30005" lon="2.59393">
        <ele>101.900002</ele>
        <time>2010-08-28T15:00:33Z</time>
      </trkpt>
      <trkpt lat="48.30005" lon="2.59393">
        <ele>101.900002</ele>
        <time>2010-08-28T15:00:38Z</time>
      </trkpt>
      <trkpt lat="48.30005" lon="2.59393">
        <ele>101.900002</ele>
        <time>2010-08-28T15:00:43Z</time>
      </trkpt>
      <trkpt lat="48.30005" lon="2.59393">
        <ele>101.900002</ele>
        <time>2010-08-28T15:00:48Z</time>
      </trkpt>
      <trkpt lat="48.30005" lon="2.59393">
        <ele>101.900002</ele>
        <time>2010-08-28T15:00:53Z</time>
      </trkpt>
      <trkpt lat="48.30005" lon="2.59393">
        <ele>101.900002</ele>
        <time>2010-08-28T15:00:58Z</time>
      </trkpt>
      <trkpt lat="48.30005" lon="2.59393">
        <ele>101.900002</ele>
        <time>2010-08-28T15:01:03Z</time>
      </trkpt>
      <trkpt lat="48.30005" lon="2.59393">
        <ele>101.900002</ele>
        <time>2010-08-28T15:01:08Z</time>
      </trkpt>
      <trkpt lat="48.30005" lon="2.59393">
        <ele>101.900002</ele>
        <time>2010-08-28T15:01:13Z</time>
      </trkpt>
      <trkpt lat="48.30005" lon="2.59393">
        <ele>101.900002</ele>
        <time>2010-08-28T15:01:18Z</time>
      </trkpt>
      <trkpt lat="48.30005" lon="2.59393">
        <ele>101.900002</ele>
        <time>2010-08-28T15:01:23Z</time>
      </trkpt>
      <trkpt lat="48.30005" lon="2.59393">
        <ele>101.900002</ele>
        <time>2010-08-28T15:01:28Z</time>
      </trkpt>
      <trkpt lat="48.30005" lon="2.59393">
        <ele>101.900002</ele>
        <time>2010-08-28T15:01:33Z</time>
      </trkpt>
      <trkpt lat="48.30005" lon="2.59393">
        <ele>101.900002</ele>
        <time>2010-08-28T15:01:38Z</time>
      </trkpt>
      <trkpt lat="48.30005" lon="2.59393">
        <ele>101.900002</ele>
        <time>2010-08-28T15:01:43Z</time>
      </trkpt>
      <trkpt lat="48.30005" lon="2.59393">
        <ele>101.900002</ele>
        <time>2010-08-28T15:01:48Z</time>
      </trkpt>
      <trkpt lat="48.30005" lon="2.59393">
        <ele>101.900002</ele>
        <time>2010-08-28T15:01:53Z</time>
      </trkpt>
      <trkpt lat="48.30005" lon="2.59393">
        <ele>101.900002</ele>
        <time>2010-08-28T15:01:58Z</time>
      </trkpt>
      <trkpt lat="48.30005" lon="2.59393">
        <ele>101.900002</ele>
        <time>2010-08-28T15:02:03Z</time>
      </trkpt>
      <trkpt lat="48.30005" lon="2.59393">
        <ele>101.900002</ele>
        <time>2010-08-28T15:02:08Z</time>
      </trkpt>
      <trkpt lat="48.30005" lon="2.59393">
        <ele>101.900002</ele>
        <time>2010-08-28T15:02:13Z</time>
      </trkpt>
      <trkpt lat="48.30005" lon="2.59393">
        <ele>101.900002</ele>
        <time>2010-08-28T15:02:18Z</time>
      </trkpt>
      <trkpt lat="48.30005" lon="2.59393">
        <ele>101.900002</ele>
        <time>2010-08-28T15:02:23Z</time>
      </trkpt>
      <trkpt lat="48.30005" lon="2.59393">
        <ele>101.900002</ele>
        <time>2010-08-28T15:02:28Z</time>
      </trkpt>
      <trkpt lat="48.30005" lon="2.59393">
        <ele>101.900002</ele>
        <time>2010-08-28T15:02:33Z</time>
      </trkpt>
      <trkpt lat="48.30005" lon="2.59393">
        <ele>101.900002</ele>
        <time>2010-08-28T15:02:38Z</time>
      </trkpt>
      <trkpt lat="48.30005" lon="2.59393">
        <ele>101.900002</ele>
        <time>2010-08-28T15:02:43Z</time>
      </trkpt>
      <trkpt lat="48.30005" lon="2.59393">
        <ele>101.900002</ele>
        <time>2010-08-28T15:02:48Z</time>
      </trkpt>
      <trkpt lat="48.30005" lon="2.59393">
        <ele>101.900002</ele>
        <time>2010-08-28T15:02:53Z</time>
      </trkpt>
      <trkpt lat="48.30005" lon="2.59393">
        <ele>101.900002</ele>
        <time>2010-08-28T15:02:58Z</time>
      </trkpt>
      <trkpt lat="48.30005" lon="2.59393">
        <ele>101.900002</ele>
        <time>2010-08-28T15:03:03Z</time>
      </trkpt>
      <trkpt lat="48.30005" lon="2.59393">
        <ele>101.900002</ele>
        <time>2010-08-28T15:03:08Z</time>
      </trkpt>
      <trkpt lat="48.30005" lon="2.59393">
        <ele>101.900002</ele>
        <time>2010-08-28T15:03:13Z</time>
      </trkpt>
      <trkpt lat="48.30001" lon="2.59397">
        <ele>109.849998</ele>
        <time>2010-08-28T15:03:18Z</time>
      </trkpt>
      <trkpt lat="48.30002" lon="2.59402">
        <ele>102.829994</ele>
        <time>2010-08-28T15:03:23Z</time>
      </trkpt>
      <trkpt lat="48.30002" lon="2.59402">
        <ele>102.829994</ele>
        <time>2010-08-28T15:03:28Z</time>
      </trkpt>
      <trkpt lat="48.30002" lon="2.59402">
        <ele>102.829994</ele>
        <time>2010-08-28T15:03:33Z</time>
      </trkpt>
      <trkpt lat="48.30002" lon="2.59402">
        <ele>102.829994</ele>
        <time>2010-08-28T15:03:38Z</time>
      </trkpt>
      <trkpt lat="48.30002" lon="2.59402">
        <ele>102.829994</ele>
        <time>2010-08-28T15:03:43Z</time>
      </trkpt>
      <trkpt lat="48.30002" lon="2.59402">
        <ele>102.829994</ele>
        <time>2010-08-28T15:03:48Z</time>
      </trkpt>
      <trkpt lat="48.30002" lon="2.59402">
        <ele>102.829994</ele>
        <time>2010-08-28T15:03:53Z</time>
      </trkpt>
      <trkpt lat="48.30002" lon="2.59402">
        <ele>102.829994</ele>
        <time>2010-08-28T15:03:58Z</time>
      </trkpt>
      <trkpt lat="48.30002" lon="2.59402">
        <ele>102.829994</ele>
        <time>2010-08-28T15:04:03Z</time>
      </trkpt>
      <trkpt lat="48.30002" lon="2.59402">
        <ele>102.829994</ele>
        <time>2010-08-28T15:04:08Z</time>
      </trkpt>
      <trkpt lat="48.29992" lon="2.59405">
        <ele>83.790001</ele>
        <time>2010-08-28T15:04:13Z</time>
      </trkpt>
      <trkpt lat="48.29992" lon="2.59405">
        <ele>83.790001</ele>
        <time>2010-08-28T15:04:18Z</time>
      </trkpt>
      <trkpt lat="48.29992" lon="2.59405">
        <ele>83.790001</ele>
        <time>2010-08-28T15:04:23Z</time>
      </trkpt>
      <trkpt lat="48.29992" lon="2.59405">
        <ele>83.790001</ele>
        <time>2010-08-28T15:04:28Z</time>
      </trkpt>
      <trkpt lat="48.29992" lon="2.59405">
        <ele>83.790001</ele>
        <time>2010-08-28T15:04:33Z</time>
      </trkpt>
      <trkpt lat="48.29992" lon="2.59405">
        <ele>83.790001</ele>
        <time>2010-08-28T15:04:38Z</time>
      </trkpt>
      <trkpt lat="48.29992" lon="2.59405">
        <ele>83.790001</ele>
        <time>2010-08-28T15:04:43Z</time>
      </trkpt>
      <trkpt lat="48.29992" lon="2.59405">
        <ele>83.790001</ele>
        <time>2010-08-28T15:04:48Z</time>
      </trkpt>
      <trkpt lat="48.29992" lon="2.59405">
        <ele>83.790001</ele>
        <time>2010-08-28T15:04:53Z</time>
      </trkpt>
      <trkpt lat="48.29992" lon="2.59405">
        <ele>83.790001</ele>
        <time>2010-08-28T15:04:58Z</time>
      </trkpt>
      <trkpt lat="48.29992" lon="2.59405">
        <ele>83.790001</ele>
        <time>2010-08-28T15:05:03Z</time>
      </trkpt>
      <trkpt lat="48.29992" lon="2.59405">
        <ele>83.790001</ele>
        <time>2010-08-28T15:05:08Z</time>
      </trkpt>
      <trkpt lat="48.29992" lon="2.59405">
        <ele>83.790001</ele>
        <time>2010-08-28T15:05:13Z</time>
      </trkpt>
      <trkpt lat="48.29992" lon="2.59405">
        <ele>83.790001</ele>
        <time>2010-08-28T15:05:18Z</time>
      </trkpt>
      <trkpt lat="48.29992" lon="2.59405">
        <ele>83.790001</ele>
        <time>2010-08-28T15:05:23Z</time>
      </trkpt>
      <trkpt lat="48.2997" lon="2.5945">
        <ele>82.889999</ele>
        <time>2010-08-28T15:05:28Z</time>
      </trkpt>
      <trkpt lat="48.29966" lon="2.59448">
        <ele>79.790001</ele>
        <time>2010-08-28T15:05:32Z</time>
      </trkpt>
      <trkpt lat="48.29965" lon="2.59448">
        <ele>81.25</ele>
        <time>2010-08-28T15:05:38Z</time>
      </trkpt>
      <trkpt lat="48.29965" lon="2.59448">
        <ele>81.25</ele>
        <time>2010-08-28T15:05:43Z</time>
      </trkpt>
      <trkpt lat="48.29965" lon="2.59448">
        <ele>81.25</ele>
        <time>2010-08-28T15:05:48Z</time>
      </trkpt>
      <trkpt lat="48.29965" lon="2.59448">
        <ele>81.25</ele>
        <time>2010-08-28T15:05:53Z</time>
      </trkpt>
      <trkpt lat="48.29965" lon="2.59448">
        <ele>81.25</ele>
        <time>2010-08-28T15:05:58Z</time>
      </trkpt>
      <trkpt lat="48.29965" lon="2.59448">
        <ele>81.25</ele>
        <time>2010-08-28T15:06:03Z</time>
      </trkpt>
      <trkpt lat="48.29965" lon="2.59448">
        <ele>81.25</ele>
        <time>2010-08-28T15:06:08Z</time>
      </trkpt>
      <trkpt lat="48.29965" lon="2.59448">
        <ele>81.25</ele>
        <time>2010-08-28T15:06:13Z</time>
      </trkpt>
      <trkpt lat="48.29965" lon="2.59448">
        <ele>81.25</ele>
        <time>2010-08-28T15:06:18Z</time>
      </trkpt>
      <trkpt lat="48.29958" lon="2.59446">
        <ele>89.119995</ele>
        <time>2010-08-28T15:06:23Z</time>
      </trkpt>
      <trkpt lat="48.29956" lon="2.59438">
        <ele>87.989998</ele>
        <time>2010-08-28T15:06:28Z</time>
      </trkpt>
      <trkpt lat="48.29951" lon="2.59441">
        <ele>86.799995</ele>
        <time>2010-08-28T15:06:33Z</time>
      </trkpt>
      <trkpt lat="48.2995" lon="2.59452">
        <ele>85.839996</ele>
        <time>2010-08-28T15:06:38Z</time>
      </trkpt>
      <trkpt lat="48.2995" lon="2.59461">
        <ele>85.830002</ele>
        <time>2010-08-28T15:06:43Z</time>
      </trkpt>
      <trkpt lat="48.29948" lon="2.59464">
        <ele>83.150002</ele>
        <time>2010-08-28T15:06:48Z</time>
      </trkpt>
      <trkpt lat="48.29948" lon="2.59464">
        <ele>83.150002</ele>
        <time>2010-08-28T15:06:53Z</time>
      </trkpt>
      <trkpt lat="48.29948" lon="2.59464">
        <ele>83.150002</ele>
        <time>2010-08-28T15:06:58Z</time>
      </trkpt>
      <trkpt lat="48.29938" lon="2.5948">
        <ele>77.610001</ele>
        <time>2010-08-28T15:07:03Z</time>
      </trkpt>
      <trkpt lat="48.29939" lon="2.59488">
        <ele>75.919998</ele>
        <time>2010-08-28T15:07:08Z</time>
      </trkpt>
      <trkpt lat="48.29941" lon="2.59497">
        <ele>76.650002</ele>
        <time>2010-08-28T15:07:13Z</time>
      </trkpt>
      <trkpt lat="48.29943" lon="2.59504">
        <ele>77.709999</ele>
        <time>2010-08-28T15:07:18Z</time>
      </trkpt>
      <trkpt lat="48.29943" lon="2.59512">
        <ele>79.869995</ele>
        <time>2010-08-28T15:07:23Z</time>
      </trkpt>
      <trkpt lat="48.2994" lon="2.59519">
        <ele>79.93</ele>
        <time>2010-08-28T15:07:28Z</time>
      </trkpt>
      <trkpt lat="48.29938" lon="2.59527">
        <ele>82.769997</ele>
        <time>2010-08-28T15:07:33Z</time>
      </trkpt>
      <trkpt lat="48.29937" lon="2.59535">
        <ele>81.619995</ele>
        <time>2010-08-28T15:07:38Z</time>
      </trkpt>
      <trkpt lat="48.29935" lon="2.59544">
        <ele>81.099998</ele>
        <time>2010-08-28T15:07:43Z</time>
      </trkpt>
      <trkpt lat="48.29931" lon="2.59551">
        <ele>79.32</ele>
        <time>2010-08-28T15:07:48Z</time>
      </trkpt>
      <trkpt lat="48.29927" lon="2.59557">
        <ele>79.769997</ele>
        <time>2010-08-28T15:07:53Z</time>
      </trkpt>
      <trkpt lat="48.29926" lon="2.59559">
        <ele>80.82</ele>
        <time>2010-08-28T15:07:58Z</time>
      </trkpt>
      <trkpt lat="48.29919" lon="2.59569">
        <ele>81.489998</ele>
        <time>2010-08-28T15:08:03Z</time>
      </trkpt>
      <trkpt lat="48.29914" lon="2.59574">
        <ele>78.580002</ele>
        <time>2010-08-28T15:08:08Z</time>
      </trkpt>
      <trkpt lat="48.29909" lon="2.59579">
        <ele>74.339996</ele>
        <time>2010-08-28T15:08:12Z</time>
      </trkpt>
      <trkpt lat="48.29902" lon="2.59581">
        <ele>70.439995</ele>
        <time>2010-08-28T15:08:17Z</time>
      </trkpt>
      <trkpt lat="48.29899" lon="2.59586">
        <ele>69.93</ele>
        <time>2010-08-28T15:08:22Z</time>
      </trkpt>
      <trkpt lat="48.29894" lon="2.59591">
        <ele>67.169998</ele>
        <time>2010-08-28T15:08:27Z</time>
      </trkpt>
      <trkpt lat="48.29894" lon="2.59599">
        <ele>67.309998</ele>
        <time>2010-08-28T15:08:32Z</time>
      </trkpt>
      <trkpt lat="48.29889" lon="2.59604">
        <ele>67.57</ele>
        <time>2010-08-28T15:08:37Z</time>
      </trkpt>
      <trkpt lat="48.29883" lon="2.59607">
        <ele>67.260002</ele>
        <time>2010-08-28T15:08:42Z</time>
      </trkpt>
      <trkpt lat="48.29878" lon="2.59614">
        <ele>65.43</ele>
        <time>2010-08-28T15:08:47Z</time>
      </trkpt>
      <trkpt lat="48.29878" lon="2.59615">
        <ele>66.059998</ele>
        <time>2010-08-28T15:08:53Z</time>
      </trkpt>
      <trkpt lat="48.29878" lon="2.59615">
        <ele>66.059998</ele>
        <time>2010-08-28T15:08:58Z</time>
      </trkpt>
      <trkpt lat="48.29878" lon="2.59615">
        <ele>66.059998</ele>
        <time>2010-08-28T15:09:03Z</time>
      </trkpt>
      <trkpt lat="48.29878" lon="2.59615">
        <ele>66.059998</ele>
        <time>2010-08-28T15:09:08Z</time>
      </trkpt>
      <trkpt lat="48.29878" lon="2.59615">
        <ele>66.059998</ele>
        <time>2010-08-28T15:09:13Z</time>
      </trkpt>
      <trkpt lat="48.29878" lon="2.59615">
        <ele>66.059998</ele>
        <time>2010-08-28T15:09:18Z</time>
      </trkpt>
      <trkpt lat="48.29862" lon="2.59642">
        <ele>111.040001</ele>
        <time>2010-08-28T15:09:23Z</time>
      </trkpt>
      <trkpt lat="48.29858" lon="2.59645">
        <ele>109.959999</ele>
        <time>2010-08-28T15:09:28Z</time>
      </trkpt>
      <trkpt lat="48.29858" lon="2.59645">
        <ele>109.959999</ele>
        <time>2010-08-28T15:09:33Z</time>
      </trkpt>
      <trkpt lat="48.29858" lon="2.59645">
        <ele>109.959999</ele>
        <time>2010-08-28T15:09:38Z</time>
      </trkpt>
      <trkpt lat="48.29858" lon="2.59645">
        <ele>109.959999</ele>
        <time>2010-08-28T15:09:43Z</time>
      </trkpt>
      <trkpt lat="48.29858" lon="2.59645">
        <ele>109.959999</ele>
        <time>2010-08-28T15:09:48Z</time>
      </trkpt>
      <trkpt lat="48.29836" lon="2.59665">
        <ele>86.169998</ele>
        <time>2010-08-28T15:09:53Z</time>
      </trkpt>
      <trkpt lat="48.29831" lon="2.59663">
        <ele>83.689995</ele>
        <time>2010-08-28T15:09:58Z</time>
      </trkpt>
      <trkpt lat="48.29827" lon="2.59665">
        <ele>80.519997</ele>
        <time>2010-08-28T15:10:03Z</time>
      </trkpt>
      <trkpt lat="48.2982" lon="2.59665">
        <ele>79.220001</ele>
        <time>2010-08-28T15:10:08Z</time>
      </trkpt>
      <trkpt lat="48.29814" lon="2.59665">
        <ele>78.709999</ele>
        <time>2010-08-28T15:10:13Z</time>
      </trkpt>
      <trkpt lat="48.29811" lon="2.59671">
        <ele>76.909996</ele>
        <time>2010-08-28T15:10:18Z</time>
      </trkpt>
      <trkpt lat="48.29809" lon="2.59678">
        <ele>76.549995</ele>
        <time>2010-08-28T15:10:23Z</time>
      </trkpt>
      <trkpt lat="48.29805" lon="2.59686">
        <ele>80.080002</ele>
        <time>2010-08-28T15:10:28Z</time>
      </trkpt>
      <trkpt lat="48.29804" lon="2.59695">
        <ele>81.619995</ele>
        <time>2010-08-28T15:10:33Z</time>
      </trkpt>
      <trkpt lat="48.298" lon="2.59704">
        <ele>79.040001</ele>
        <time>2010-08-28T15:10:38Z</time>
      </trkpt>
      <trkpt lat="48.29799" lon="2.59711">
        <ele>79.669998</ele>
        <time>2010-08-28T15:10:43Z</time>
      </trkpt>
      <trkpt lat="48.29792" lon="2.59717">
        <ele>82.709999</ele>
        <time>2010-08-28T15:10:47Z</time>
      </trkpt>
      <trkpt lat="48.29775" lon="2.5972">
        <ele>77.769997</ele>
        <time>2010-08-28T15:10:53Z</time>
      </trkpt>
      <trkpt lat="48.29775" lon="2.5972">
        <ele>81.360001</ele>
        <time>2010-08-28T15:10:58Z</time>
      </trkpt>
      <trkpt lat="48.29775" lon="2.5972">
        <ele>81.360001</ele>
        <time>2010-08-28T15:11:03Z</time>
      </trkpt>
      <trkpt lat="48.29768" lon="2.59741">
        <ele>76.040001</ele>
        <time>2010-08-28T15:11:08Z</time>
      </trkpt>
      <trkpt lat="48.29767" lon="2.5975">
        <ele>72.040001</ele>
        <time>2010-08-28T15:11:13Z</time>
      </trkpt>
      <trkpt lat="48.29767" lon="2.5975">
        <ele>72.040001</ele>
        <time>2010-08-28T15:11:18Z</time>
      </trkpt>
      <trkpt lat="48.29768" lon="2.59766">
        <ele>75.650002</ele>
        <time>2010-08-28T15:11:23Z</time>
      </trkpt>
      <trkpt lat="48.29771" lon="2.59771">
        <ele>76.389999</ele>
        <time>2010-08-28T15:11:28Z</time>
      </trkpt>
      <trkpt lat="48.2977" lon="2.59773">
        <ele>77.5</ele>
        <time>2010-08-28T15:11:33Z</time>
      </trkpt>
      <trkpt lat="48.29766" lon="2.59783">
        <ele>77.919998</ele>
        <time>2010-08-28T15:11:38Z</time>
      </trkpt>
      <trkpt lat="48.29765" lon="2.59792">
        <ele>79.330002</ele>
        <time>2010-08-28T15:11:43Z</time>
      </trkpt>
      <trkpt lat="48.29763" lon="2.598">
        <ele>77.379997</ele>
        <time>2010-08-28T15:11:48Z</time>
      </trkpt>
      <trkpt lat="48.29761" lon="2.59809">
        <ele>78.919998</ele>
        <time>2010-08-28T15:11:53Z</time>
      </trkpt>
      <trkpt lat="48.29759" lon="2.59815">
        <ele>79.089996</ele>
        <time>2010-08-28T15:11:58Z</time>
      </trkpt>
      <trkpt lat="48.29759" lon="2.59817">
        <ele>79.119995</ele>
        <time>2010-08-28T15:12:03Z</time>
      </trkpt>
      <trkpt lat="48.29759" lon="2.59817">
        <ele>79.119995</ele>
        <time>2010-08-28T15:12:08Z</time>
      </trkpt>
    </trkseg>
  </trk>
</gpx>